[[{"header":{"parameterUnit":"m.s-1","parameterCategory":1,"la1":31.0,"la2":29.5877,"lo1":-88.7671,"lo2":-86.6584,"dy":0.0162,"dx":0.0185,"nx":115,"ny":88,"refTime":"2023-06-07T06:00:00:Z","depth":0,"parameterNumber":2,"parameterNumberName":"U-component_of_WINDS"},"data":[0.0,0.0,0.0,0.0,0.0,0.0,0.0,0.0,0.0,0.0,0.0,0.0,0.0,0.0,0.0,0.0,0.0,0.0,0.0,0.0,0.0,0.0,0.0,0.0,0.0,0.0,0.0,0.0,0.0,0.0,0.0,0.0,0.0,0.0,0.0,0.0,0.0,0.0,0.0,0.0,0.0,0.0,0.0,0.0,0.0,0.0,0.0,0.0,0.0,0.0,0.0,0.0,0.0,0.0,0.0,0.0,0.0,0.0,0.0,0.0,0.0,0.0,0.0,0.0,0.0,0.0,0.0,0.0,0.0,0.0,0.0,0.0,0.0,0.0,0.0,0.0,0.0,0.0,0.0,0.0,0.0,0.0,0.0,0.0,0.0,0.0,0.0,0.0,0.0,0.0,0.0,0.0,0.0,0.0,0.0,0.0,0.0,0.0,0.0,0.0,0.0,0.0,0.0,0.0,0.0,0.0,0.0,0.0,0.0,0.0,0.0,0.0,0.0,0.0,0.0,0.0,0.0,0.0,0.0,0.0,0.0,0.0,0.0,0.0,0.0,0.0,0.0,0.0,0.0,0.0,0.0,0.0,0.0,0.0,0.0,0.0,0.0,0.0,0.0,0.0,0.0,0.0,0.0,0.0,0.0,0.0,0.0,0.0,0.0,0.0,0.0,0.0,0.0,0.0,0.0,0.0,0.0,0.0,0.0,0.0,0.0,0.0,0.0,0.0,0.0,0.0,0.0,0.0,0.0,0.0,0.0,0.0,0.0,0.0,0.0,0.0,0.0,0.0,0.0,0.0,0.0,0.0,0.0,0.0,0.0,0.0,0.0,0.0,0.0,0.0,0.0,0.0,0.0,0.0,0.0,0.0,0.0,0.0,0.0,0.0,0.0,0.0,0.0,0.0,0.0,0.0,0.0,0.0,0.0,0.0,0.0,0.0,0.0,0.0,0.0,0.0,0.0,0.0,0.0,0.0,0.0,0.0,0.0,0.0,0.0,0.0,0.0,0.0,0.0,0.0,0.0,0.0,0.0,0.0,0.0,0.0,0.0,0.0,0.0,0.0,0.0,0.0,0.0,0.0,0.0,0.0,0.0,0.0,0.0,0.0,0.0,0.0,0.0,0.0,0.0,0.0,0.0,0.0,0.0,0.0,0.0,0.0,0.0,0.0,0.0,0.0,0.0,0.0,0.0,0.0,0.0,0.0,0.0,0.0,0.0,0.0,0.0,0.0,0.0,0.0,0.0,0.0,0.0,0.0,0.0,0.0,0.0,0.0,0.0,0.0,0.0,0.0,0.0,0.0,0.0,0.0,0.0,0.0,0.0,0.0,0.0,0.0,0.0,0.0,0.0,0.0,0.0,0.0,0.0,0.0,0.0,0.0,0.0,0.0,0.0,0.0,0.0,0.0,0.0,0.0,0.0,0.0,0.0,0.0,0.0,0.0,0.0,0.0,0.0,0.0,0.0,0.0,0.0,0.0,0.0,0.0,0.0,0.0,0.0,0.0,0.0,0.0,0.0,0.0,0.0,0.0,0.0,0.0,0.0,0.0,0.0,0.0,0.0,0.0,0.0,0.0,0.0,0.0,0.0,0.0,0.0,0.0,0.0,0.0,0.0,0.0,0.0,0.0,0.0,0.0,0.0,0.0,0.0,0.0,0.0,0.0,0.0,0.0,0.0,0.0,0.0,0.0,0.0,0.0,0.0,0.0,0.0,0.0,0.0,0.0,0.0,0.0,0.0,0.0,0.0,0.0,0.0,0.0,0.0,0.0,0.0,0.0,0.0,0.0,0.0,0.0,0.0,0.0,0.0,0.0,0.0,0.0,0.0,0.0,0.0,0.0,0.0,0.0,0.0,0.0,0.0,0.0,0.0,0.0,0.0,0.0,0.0,0.0,0.0,0.0,0.0,0.0,0.0,0.0,0.0,0.0,0.0,0.0,0.0,0.0,0.0,0.0,0.0,0.0,0.0,0.0,0.0,0.0,0.0,0.0,0.0,0.0,0.0,0.0,0.0,0.0,0.0,0.0,0.0,0.0,0.0,0.0,0.0,0.0,0.0,0.0,0.0,0.0,0.0,0.0,0.0,0.0,0.0,0.0,0.0,0.0,0.0,0.0,0.0,0.0,0.0,0.0,0.0,0.0,0.0,0.0,0.0,0.0,0.0,0.0,0.0,0.0,0.0,0.0,0.0,0.0,0.0,0.0,0.0,0.0,0.0,0.0,0.0,0.0,0.0,0.0,0.0,0.0,0.0,0.0,0.0,0.0,0.0,0.0,0.0,0.0,0.0,0.0,0.0,0.0,0.0,0.0,0.0,0.0,0.0,0.0,0.0,0.0,0.0,0.0,0.0,0.0,0.0,0.0,0.0,0.0,0.0,0.0,0.0,0.0,0.0,0.0,0.0,0.0,0.0,0.0,0.0,0.0,0.0,0.0,0.0,0.0,0.0,0.0,0.0,0.0,0.0,0.0,0.0,0.0,0.0,0.0,0.0,0.0,0.0,0.0,0.0,0.0,0.0,0.0,0.0,0.0,0.0,0.0,0.0,0.0,0.0,0.0,0.0,0.0,0.0,0.0,0.0,0.0,0.0,0.0,0.0,0.0,0.0,0.0,0.0,0.0,0.0,0.0,0.0,0.0,0.0,0.0,0.0,0.0,0.0,0.0,0.0,0.0,0.0,0.0,0.0,0.0,0.0,0.0,0.0,0.0,0.0,0.0,0.0,0.0,0.0,0.0,0.0,0.0,0.0,0.0,0.0,0.0,0.0,0.0,0.0,0.0,0.0,0.0,0.0,0.0,0.0,0.0,0.0,0.0,0.0,0.0,0.0,0.0,0.0,0.0,0.0,0.0,0.0,0.0,0.0,0.0,0.0,0.0,0.0,0.0,0.0,0.0,0.0,0.0,0.0,0.0,0.0,0.0,0.0,0.0,0.0,0.0,0.0,0.0,0.0,0.0,0.0,0.0,0.0,0.0,0.0,0.0,0.0,0.0,0.0,0.0,0.0,0.0,0.0,0.0,0.0,0.0,0.0,0.0,0.0,0.0,0.0,0.0,0.0,0.0,0.0,0.0,0.0,0.0,0.0,0.0,0.0,0.0,0.0,0.0,0.0,0.0,0.0,0.0,0.0,0.0,0.0,0.0,0.0,0.0,0.0,0.0,0.0,0.0,0.0,0.0,0.0,0.0,0.0,0.0,0.0,0.0,0.0,0.0,0.0,0.0,0.0,0.0,0.0,0.0,0.0,0.0,0.0,0.0,0.0,0.0,0.0,0.0,0.0,0.0,0.0,0.0,0.0,0.0,0.0,0.0,0.0,0.0,0.0,0.0,0.0,0.0,0.0,0.0,0.0,0.0,0.0,0.0,0.0,0.0,0.0,0.0,0.0,0.0,0.0,0.0,0.0,0.0,0.0,0.0,0.0,0.0,0.0,0.0,0.0,0.0,0.0,0.0,0.0,0.0,0.0,0.0,0.0,0.0,0.0,0.0,0.0,0.0,0.0,0.0,0.0,0.0,0.0,0.0,0.0,0.0,0.0,0.0,0.0,0.0,0.0,0.0,0.0,0.0,0.0,0.0,0.0,0.0,0.0,0.0,0.0,0.0,0.0,0.0,0.0,0.0,0.0,0.0,0.0,0.0,0.0,0.0,0.0,0.0,0.0,0.0,0.0,0.0,0.0,0.0,0.0,0.0,0.0,0.0,0.0,0.0,0.0,0.0,0.0,0.0,0.0,0.0,0.0,0.0,0.0,0.0,0.0,0.0,0.0,0.0,0.0,0.0,0.0,0.0,0.0,0.0,0.0,0.0,0.0,0.0,0.0,0.0,0.0,0.0,0.0,0.0,0.0,0.0,0.0,0.0,0.0,0.0,0.0,0.0,0.0,0.0,0.0,0.0,0.0,0.0,0.0,0.0,0.0,0.0,0.0,0.0,0.0,0.0,0.0,0.0,0.0,0.0,0.0,0.0,0.0,0.0,0.0,0.0,0.0,0.0,0.0,0.0,0.0,0.0,0.0,0.0,0.0,0.0,0.0,0.0,0.0,0.0,0.0,0.0,0.0,0.0,0.0,0.0,0.0,0.0,0.0,0.0,0.0,0.0,0.0,0.0,0.0,0.0,0.0,0.0,0.0,0.0,0.0,0.0,0.0,0.0,0.0,0.0,0.0,0.0,0.0,0.0,0.0,0.0,0.0,0.0,0.0,0.0,0.0,0.0,0.0,0.0,0.0,0.0,0.0,0.0,0.0,0.0,0.0,0.0,0.0,0.0,0.0,0.0,2.945,0.0,0.0,0.0,0.0,0.0,0.0,0.0,0.0,0.0,0.0,0.0,0.0,0.0,0.0,0.0,0.0,0.0,0.0,0.0,0.0,0.0,0.0,0.0,0.0,0.0,0.0,0.0,0.0,0.0,0.0,0.0,0.0,0.0,0.0,0.0,0.0,0.0,0.0,0.0,0.0,0.0,0.0,0.0,0.0,0.0,0.0,0.0,0.0,0.0,0.0,0.0,0.0,0.0,0.0,0.0,0.0,0.0,0.0,0.0,0.0,0.0,0.0,0.0,0.0,0.0,0.0,0.0,0.0,0.0,0.0,0.0,0.0,0.0,0.0,0.0,0.0,0.0,0.0,0.0,0.0,0.0,0.0,0.0,0.0,0.0,0.0,0.0,0.0,0.0,0.0,0.0,0.0,0.0,0.0,0.0,0.0,0.0,0.0,0.0,0.0,0.0,0.0,0.0,0.0,0.0,0.0,0.0,0.0,0.0,0.0,2.9427,2.9544,2.9645,2.9664,2.9569,0.0,0.0,0.0,0.0,0.0,0.0,0.0,0.0,0.0,0.0,0.0,0.0,0.0,0.0,0.0,0.0,0.0,0.0,0.0,0.0,0.0,0.0,0.0,0.0,0.0,0.0,0.0,0.0,0.0,0.0,0.0,0.0,0.0,0.0,0.0,0.0,0.0,0.0,0.0,0.0,0.0,0.0,0.0,0.0,0.0,0.0,0.0,0.0,0.0,0.0,0.0,0.0,0.0,0.0,0.0,0.0,0.0,0.0,0.0,0.0,0.0,0.0,0.0,0.0,0.0,0.0,0.0,0.0,0.0,0.0,0.0,0.0,0.0,0.0,0.0,0.0,0.0,0.0,0.0,0.0,0.0,0.0,0.0,0.0,0.0,0.0,0.0,0.0,0.0,0.0,0.0,0.0,0.0,0.0,0.0,0.0,0.0,0.0,0.0,0.0,0.0,0.0,0.0,0.0,0.0,0.0,0.0,0.0,0.0,0.0,0.0,0.0,2.972,2.9701,2.9664,0.0,0.0,0.0,0.0,0.0,0.0,0.0,0.0,0.0,0.0,0.0,0.0,0.0,0.0,0.0,0.0,0.0,0.0,0.0,0.0,0.0,0.0,0.0,0.0,0.0,0.0,0.0,0.0,0.0,0.0,0.0,0.0,0.0,0.0,0.0,0.0,0.0,0.0,0.0,0.0,0.0,0.0,0.0,0.0,0.0,0.0,0.0,0.0,0.0,0.0,0.0,0.0,0.0,0.0,0.0,0.0,0.0,0.0,0.0,0.0,0.0,0.0,0.0,0.0,0.0,0.0,0.0,0.0,0.0,0.0,0.0,0.0,0.0,0.0,0.0,0.0,0.0,0.0,0.0,0.0,0.0,0.0,0.0,0.0,0.0,0.0,0.0,0.0,0.0,0.0,0.0,0.0,0.0,0.0,0.0,0.0,0.0,0.0,0.0,0.0,0.0,0.0,0.0,0.0,0.0,0.0,0.0,0.0,0.0,0.0,2.9607,2.9446,2.9491,0.0,2.9531,0.0,0.0,0.0,0.0,0.0,0.0,0.0,0.0,0.0,0.0,0.0,0.0,0.0,0.0,0.0,0.0,0.0,0.0,0.0,0.0,0.0,0.0,0.0,0.0,0.0,0.0,0.0,0.0,0.0,0.0,0.0,0.0,0.0,0.0,0.0,0.0,0.0,0.0,0.0,0.0,0.0,0.0,0.0,0.0,0.0,0.0,0.0,0.0,0.0,0.0,0.0,0.0,0.0,0.0,0.0,0.0,0.0,0.0,0.0,0.0,0.0,0.0,0.0,0.0,0.0,0.0,0.0,0.0,0.0,0.0,0.0,0.0,0.0,0.0,0.0,0.0,0.0,0.0,0.0,0.0,0.0,0.0,0.0,0.0,0.0,0.0,0.0,0.0,0.0,0.0,0.0,0.0,0.0,0.0,0.0,0.0,0.0,0.0,0.0,0.0,0.0,0.0,0.0,0.0,0.0,0.0,0.0,0.0,0.0,0.0,2.9569,2.9527,2.9626,2.9626,0.0,0.0,0.0,0.0,0.0,0.0,0.0,0.0,0.0,0.0,0.0,0.0,0.0,0.0,0.0,0.0,0.0,0.0,0.0,0.0,0.0,0.0,0.0,0.0,0.0,0.0,0.0,0.0,0.0,0.0,0.0,0.0,0.0,0.0,0.0,0.0,0.0,0.0,0.0,0.0,0.0,0.0,0.0,0.0,0.0,0.0,0.0,0.0,0.0,0.0,0.0,0.0,0.0,0.0,0.0,0.0,0.0,0.0,0.0,0.0,0.0,0.0,0.0,0.0,0.0,0.0,0.0,0.0,0.0,0.0,0.0,0.0,0.0,0.0,0.0,0.0,0.0,0.0,0.0,0.0,0.0,0.0,0.0,0.0,0.0,0.0,0.0,0.0,0.0,0.0,0.0,0.0,0.0,0.0,0.0,0.0,0.0,0.0,0.0,0.0,0.0,0.0,0.0,0.0,0.0,0.0,0.0,0.0,0.0,0.0,2.9625,2.9514,2.9345,2.9362,2.9362,2.927,0.0,0.0,0.0,0.0,0.0,0.0,0.0,0.0,0.0,0.0,0.0,0.0,0.0,0.0,0.0,0.0,0.0,0.0,0.0,0.0,0.0,0.0,0.0,0.0,0.0,0.0,0.0,0.0,0.0,0.0,0.0,0.0,0.0,0.0,0.0,0.0,0.0,0.0,0.0,0.0,0.0,0.0,0.0,0.0,0.0,0.0,0.0,0.0,0.0,0.0,0.0,0.0,0.0,0.0,0.0,0.0,0.0,0.0,0.0,0.0,0.0,0.0,0.0,0.0,0.0,0.0,0.0,0.0,0.0,0.0,0.0,0.0,0.0,0.0,0.0,0.0,0.0,0.0,0.0,0.0,0.0,0.0,0.0,0.0,0.0,0.0,0.0,0.0,0.0,0.0,0.0,0.0,0.0,0.0,0.0,0.0,0.0,0.0,0.0,0.0,0.0,0.0,0.0,0.0,0.0,0.0,0.0,0.0,2.9332,2.9662,2.946,2.868,2.8534,2.8515,0.0,0.0,0.0,0.0,0.0,0.0,0.0,0.0,0.0,0.0,0.0,0.0,0.0,0.0,0.0,0.0,0.0,0.0,0.0,0.0,0.0,0.0,0.0,0.0,0.0,0.0,0.0,0.0,0.0,0.0,0.0,0.0,0.0,0.0,0.0,0.0,0.0,0.0,0.0,0.0,0.0,0.0,0.0,0.0,0.0,0.0,0.0,0.0,0.0,0.0,0.0,0.0,0.0,0.0,0.0,0.0,0.0,0.0,0.0,0.0,0.0,0.0,0.0,0.0,0.0,0.0,0.0,0.0,0.0,0.0,0.0,0.0,0.0,0.0,0.0,0.0,0.0,0.0,0.0,0.0,0.0,0.0,0.0,0.0,0.0,0.0,0.0,0.0,0.0,0.0,0.0,0.0,0.0,0.0,0.0,0.0,0.0,0.0,0.0,0.0,0.0,0.0,0.0,0.0,0.0,0.0,0.0,0.0,0.0,2.8373,2.7661,2.7548,2.8013,2.7305,2.73,0.0,0.0,0.0,0.0,0.0,0.0,0.0,0.0,0.0,0.0,0.0,0.0,0.0,0.0,0.0,0.0,0.0,0.0,0.0,0.0,0.0,0.0,0.0,0.0,0.0,0.0,0.0,0.0,0.0,0.0,0.0,0.0,0.0,0.0,0.0,0.0,0.0,0.0,0.0,0.0,0.0,0.0,0.0,0.0,0.0,0.0,0.0,0.0,0.0,0.0,0.0,0.0,0.0,0.0,0.0,0.0,0.0,0.0,0.0,0.0,0.0,0.0,0.0,0.0,0.0,0.0,0.0,0.0,0.0,0.0,0.0,0.0,0.0,0.0,0.0,0.0,0.0,0.0,0.0,0.0,0.0,0.0,0.0,0.0,0.0,0.0,0.0,0.0,0.0,0.0,0.0,0.0,0.0,0.0,0.0,0.0,0.0,0.0,0.0,0.0,0.0,0.0,0.0,0.0,0.0,0.0,0.0,0.0,0.0,2.7885,0.0,2.6745,2.7444,2.6711,2.6667,0.0,0.0,0.0,0.0,0.0,0.0,0.0,0.0,0.0,0.0,0.0,0.0,0.0,0.0,0.0,0.0,0.0,0.0,0.0,0.0,0.0,0.0,0.0,0.0,0.0,0.0,0.0,0.0,0.0,0.0,0.0,0.0,0.0,0.0,0.0,0.0,0.0,0.0,0.0,0.0,0.0,0.0,0.0,0.0,0.0,0.0,0.0,0.0,0.0,0.0,0.0,0.0,0.0,0.0,0.0,0.0,0.0,0.0,0.0,0.0,0.0,0.0,0.0,0.0,0.0,0.0,0.0,0.0,0.0,0.0,0.0,0.0,0.0,0.0,0.0,0.0,0.0,0.0,0.0,0.0,0.0,0.0,0.0,0.0,0.0,0.0,0.0,0.0,0.0,0.0,0.0,0.0,0.0,0.0,0.0,0.0,0.0,0.0,0.0,0.0,0.0,0.0,0.0,0.0,0.0,0.0,0.0,0.0,2.7779,2.7892,2.76,2.7181,2.6916,2.6786,2.6576,0.0,0.0,0.0,0.0,0.0,0.0,0.0,0.0,0.0,0.0,0.0,0.0,0.0,0.0,0.0,0.0,0.0,0.0,0.0,0.0,0.0,0.0,0.0,0.0,0.0,0.0,0.0,0.0,0.0,0.0,0.0,0.0,0.0,0.0,0.0,0.0,0.0,0.0,0.0,0.0,0.0,0.0,0.0,0.0,0.0,0.0,0.0,0.0,0.0,0.0,0.0,0.0,0.0,0.0,0.0,0.0,0.0,0.0,0.0,0.0,0.0,0.0,0.0,0.0,0.0,0.0,0.0,0.0,0.0,0.0,0.0,0.0,0.0,0.0,0.0,0.0,0.0,0.0,0.0,0.0,0.0,0.0,0.0,0.0,0.0,0.0,0.0,0.0,0.0,0.0,0.0,0.0,0.0,0.0,0.0,0.0,0.0,0.0,0.0,0.0,0.0,0.0,0.0,0.0,0.0,0.0,0.0,0.0,0.0,2.5111,2.4929,2.5325,2.6257,2.4985,2.4966,0.0,0.0,0.0,0.0,0.0,0.0,0.0,0.0,0.0,0.0,0.0,0.0,0.0,0.0,0.0,0.0,0.0,0.0,0.0,0.0,0.0,0.0,0.0,0.0,0.0,0.0,0.0,0.0,0.0,0.0,0.0,0.0,0.0,0.0,0.0,0.0,0.0,0.0,0.0,0.0,0.0,0.0,0.0,0.0,0.0,0.0,0.0,0.0,0.0,0.0,0.0,0.0,0.0,0.0,0.0,0.0,0.0,0.0,0.0,0.0,0.0,0.0,0.0,0.0,0.0,0.0,0.0,0.0,0.0,0.0,0.0,0.0,0.0,0.0,0.0,0.0,0.0,0.0,0.0,0.0,0.0,0.0,0.0,0.0,0.0,0.0,0.0,0.0,0.0,0.0,0.0,0.0,0.0,0.0,0.0,0.0,0.0,0.0,0.0,0.0,0.0,0.0,0.0,0.0,0.0,0.0,0.0,0.0,0.0,2.4619,2.4931,2.5386,2.5882,2.4913,2.4801,2.5669,0.0,0.0,0.0,0.0,0.0,0.0,0.0,0.0,0.0,0.0,0.0,0.0,0.0,0.0,0.0,0.0,0.0,0.0,0.0,0.0,0.0,0.0,0.0,0.0,0.0,0.0,0.0,0.0,0.0,0.0,0.0,0.0,0.0,0.0,0.0,0.0,0.0,0.0,0.0,0.0,0.0,0.0,0.0,0.0,0.0,0.0,0.0,0.0,0.0,0.0,0.0,0.0,0.0,0.0,0.0,0.0,0.0,0.0,0.0,0.0,0.0,0.0,0.0,0.0,0.0,0.0,0.0,0.0,0.0,0.0,0.0,0.0,0.0,0.0,0.0,0.0,0.0,0.0,0.0,0.0,0.0,0.0,0.0,0.0,0.0,0.0,0.0,0.0,0.0,0.0,0.0,0.0,0.0,0.0,0.0,0.0,0.0,0.0,0.0,0.0,0.0,0.0,0.0,0.0,0.0,0.0,0.0,0.0,2.5925,2.7118,2.708,2.5738,2.6162,2.5768,0.0,0.0,0.0,0.0,0.0,0.0,0.0,0.0,0.0,0.0,0.0,0.0,0.0,0.0,0.0,0.0,0.0,0.0,0.0,0.0,0.0,0.0,0.0,0.0,0.0,0.0,0.0,0.0,0.0,0.0,0.0,0.0,0.0,0.0,0.0,0.0,0.0,0.0,0.0,0.0,0.0,0.0,0.0,0.0,0.0,0.0,0.0,0.0,0.0,0.0,0.0,0.0,0.0,0.0,0.0,0.0,0.0,0.0,0.0,0.0,0.0,0.0,0.0,0.0,0.0,0.0,0.0,0.0,0.0,0.0,0.0,0.0,0.0,0.0,0.0,0.0,0.0,0.0,0.0,0.0,0.0,0.0,0.0,0.0,0.0,0.0,0.0,0.0,0.0,0.0,0.0,0.0,0.0,0.0,0.0,0.0,0.0,0.0,0.0,0.0,0.0,0.0,0.0,0.0,0.0,0.0,0.0,0.0,0.0,2.61,2.7621,2.7895,2.6732,2.6189,2.5533,0.0,0.0,0.0,0.0,0.0,0.0,0.0,0.0,0.0,0.0,0.0,0.0,0.0,0.0,0.0,0.0,0.0,0.0,0.0,0.0,0.0,0.0,0.0,0.0,0.0,0.0,0.0,0.0,0.0,0.0,0.0,0.0,0.0,0.0,0.0,0.0,0.0,0.0,0.0,0.0,0.0,0.0,0.0,0.0,0.0,0.0,0.0,0.0,0.0,0.0,0.0,0.0,0.0,0.0,0.0,0.0,0.0,0.0,0.0,0.0,0.0,0.0,0.0,0.0,0.0,0.0,0.0,0.0,0.0,0.0,0.0,0.0,0.0,0.0,0.0,0.0,0.0,0.0,0.0,0.0,0.0,0.0,0.0,0.0,0.0,0.0,0.0,0.0,0.0,0.0,0.0,0.0,0.0,0.0,0.0,0.0,0.0,0.0,0.0,0.0,0.0,0.0,0.0,0.0,0.0,0.0,0.0,0.0,2.6104,2.7049,2.8352,2.8489,2.741,2.6947,2.5879,0.0,0.0,0.0,0.0,0.0,0.0,0.0,0.0,0.0,0.0,0.0,0.0,0.0,0.0,0.0,0.0,0.0,0.0,0.0,0.0,0.0,0.0,0.0,0.0,0.0,0.0,0.0,0.0,0.0,0.0,0.0,0.0,0.0,0.0,0.0,0.0,0.0,0.0,0.0,0.0,0.0,0.0,0.0,0.0,0.0,0.0,0.0,0.0,0.0,0.0,0.0,0.0,0.0,0.0,0.0,0.0,0.0,0.0,0.0,0.0,0.0,0.0,0.0,0.0,0.0,0.0,0.0,0.0,0.0,0.0,0.0,0.0,0.0,0.0,0.0,0.0,0.0,0.0,0.0,0.0,0.0,0.0,0.0,0.0,0.0,0.0,0.0,0.0,0.0,0.0,0.0,0.0,0.0,0.0,0.0,0.0,0.0,0.0,0.0,0.0,0.0,0.0,0.0,0.0,0.0,0.0,0.0,0.0,2.638,2.806,2.8917,2.8718,2.7542,2.7746,2.635,0.0,0.0,0.0,0.0,0.0,0.0,0.0,0.0,0.0,0.0,0.0,0.0,0.0,0.0,0.0,0.0,0.0,0.0,0.0,0.0,0.0,0.0,0.0,0.0,0.0,0.0,0.0,0.0,0.0,0.0,0.0,0.0,0.0,0.0,0.0,0.0,0.0,0.0,0.0,0.0,0.0,0.0,0.0,0.0,0.0,0.0,0.0,0.0,0.0,0.0,0.0,0.0,0.0,0.0,0.0,0.0,0.0,0.0,0.0,0.0,0.0,0.0,0.0,0.0,0.0,0.0,0.0,0.0,0.0,0.0,0.0,0.0,0.0,0.0,0.0,0.0,0.0,0.0,0.0,0.0,0.0,0.0,0.0,0.0,0.0,0.0,0.0,0.0,0.0,0.0,0.0,0.0,0.0,0.0,0.0,0.0,0.0,0.0,0.0,0.0,0.0,0.0,0.0,0.0,0.0,0.0,0.0,0.0,2.5087,2.626,2.7938,2.7779,2.5484,2.6253,2.5321,0.0,0.0,0.0,0.0,0.0,0.0,0.0,0.0,0.0,0.0,0.0,0.0,0.0,0.0,0.0,0.0,0.0,0.0,0.0,0.0,0.0,0.0,0.0,0.0,0.0,0.0,0.0,0.0,0.0,0.0,0.0,0.0,0.0,0.0,0.0,0.0,0.0,0.0,0.0,0.0,0.0,0.0,0.0,0.0,0.0,0.0,0.0,0.0,2.6108,0.0,0.0,0.0,0.0,0.0,0.0,0.0,0.0,0.0,0.0,0.0,0.0,0.0,0.0,0.0,0.0,0.0,0.0,0.0,0.0,0.0,0.0,0.0,0.0,0.0,0.0,0.0,0.0,0.0,0.0,0.0,0.0,0.0,0.0,0.0,0.0,0.0,0.0,0.0,0.0,0.0,0.0,0.0,0.0,0.0,0.0,0.0,0.0,0.0,0.0,0.0,0.0,0.0,0.0,0.0,0.0,0.0,0.0,0.0,2.4268,2.5723,2.6931,2.6546,2.4492,2.455,2.3658,0.0,0.0,0.0,0.0,0.0,0.0,0.0,0.0,0.0,0.0,0.0,0.0,0.0,0.0,0.0,0.0,0.0,0.0,0.0,0.0,0.0,0.0,0.0,0.0,0.0,0.0,0.0,0.0,0.0,0.0,0.0,0.0,0.0,0.0,0.0,0.0,0.0,0.0,0.0,0.0,0.0,0.0,0.0,0.0,0.0,0.0,0.0,0.0,0.0,0.0,0.0,0.0,0.0,0.0,0.0,0.0,0.0,0.0,0.0,0.0,0.0,0.0,0.0,0.0,0.0,0.0,0.0,0.0,0.0,0.0,0.0,0.0,0.0,0.0,0.0,0.0,0.0,0.0,0.0,0.0,0.0,0.0,0.0,0.0,0.0,0.0,0.0,0.0,0.0,0.0,0.0,0.0,0.0,0.0,0.0,0.0,0.0,0.0,0.0,0.0,0.0,0.0,0.0,0.0,0.0,0.0,0.0,2.2236,2.3482,2.5272,2.574,2.5155,2.3472,2.2749,2.1745,2.0563,0.0,0.0,0.0,0.0,0.0,0.0,0.0,0.0,0.0,0.0,0.0,0.0,0.0,0.0,0.0,0.0,0.0,0.0,0.0,0.0,0.0,0.0,0.0,0.0,0.0,0.0,0.0,0.0,0.0,0.0,0.0,0.0,0.0,0.0,0.0,0.0,0.0,0.0,2.623,2.5495,0.0,0.0,0.0,0.0,0.0,0.0,0.0,0.0,2.3382,0.0,0.0,0.0,0.0,0.0,0.0,0.0,0.0,0.0,0.0,0.0,0.0,0.0,0.0,0.0,0.0,0.0,0.0,0.0,0.0,0.0,0.0,0.0,0.0,0.0,0.0,0.0,0.0,0.0,0.0,0.0,0.0,0.0,0.0,0.0,0.0,0.0,0.0,0.0,0.0,0.0,0.0,0.0,0.0,0.0,0.0,0.0,0.0,0.0,0.0,0.0,0.0,0.0,0.0,0.0,0.0,2.0795,2.1356,2.2232,2.3439,2.4374,2.3702,2.1318,2.0982,2.0314,1.9153,0.0,0.0,0.0,0.0,0.0,0.0,0.0,0.0,0.0,0.0,0.0,0.0,0.0,0.0,0.0,0.0,0.0,0.0,0.0,0.0,0.0,0.0,0.0,0.0,0.0,0.0,0.0,0.0,0.0,0.0,0.0,0.0,0.0,0.0,0.0,0.0,0.0,0.0,0.0,2.29,2.2197,0.0,0.0,0.0,0.0,0.0,0.0,0.0,0.0,2.1698,0.0,0.0,0.0,0.0,0.0,0.0,0.0,0.0,0.0,0.0,0.0,0.0,0.0,0.0,0.0,0.0,0.0,0.0,0.0,0.0,0.0,0.0,0.0,0.0,0.0,0.0,0.0,0.0,0.0,0.0,0.0,0.0,0.0,0.0,0.0,0.0,0.0,0.0,0.0,0.0,0.0,0.0,0.0,0.0,0.0,0.0,0.0,0.0,0.0,0.0,0.0,0.0,0.0,0.0,0.0,1.9716,1.9721,2.0393,2.1706,2.233,2.1823,1.9997,1.9759,1.9061,0.0,0.0,0.0,0.0,0.0,0.0,0.0,0.0,0.0,0.0,0.0,0.0,0.0,0.0,0.0,0.0,0.0,0.0,0.0,0.0,0.0,0.0,0.0,0.0,0.0,0.0,0.0,0.0,0.0,0.0,0.0,0.0,0.0,0.0,0.0,0.0,0.0,0.0,0.0,0.0,2.1951,2.1378,1.9975,0.0,0.0,0.0,0.0,0.0,0.0,2.1073,2.1097,0.0,0.0,0.0,0.0,0.0,0.0,0.0,0.0,0.0,0.0,0.0,0.0,0.0,0.0,0.0,0.0,0.0,0.0,0.0,0.0,0.0,0.0,0.0,0.0,0.0,0.0,0.0,0.0,0.0,0.0,0.0,0.0,0.0,0.0,0.0,0.0,0.0,0.0,0.0,0.0,0.0,0.0,0.0,0.0,0.0,0.0,0.0,0.0,0.0,0.0,0.0,0.0,0.0,0.0,0.0,1.8805,1.8319,1.883,2.032,2.0414,1.9995,1.9071,1.8573,1.7855,0.0,0.0,0.0,0.0,0.0,0.0,0.0,0.0,0.0,0.0,0.0,0.0,0.0,0.0,0.0,0.0,0.0,0.0,0.0,0.0,0.0,0.0,0.0,0.0,0.0,0.0,0.0,0.0,0.0,0.0,0.0,0.0,0.0,0.0,0.0,0.0,0.0,0.0,0.0,0.0,0.0,2.0955,1.96,1.95,0.0,0.0,0.0,0.0,1.982,2.0314,0.0,0.0,0.0,0.0,0.0,0.0,0.0,0.0,0.0,0.0,0.0,0.0,0.0,0.0,0.0,0.0,0.0,0.0,0.0,0.0,0.0,0.0,0.0,0.0,0.0,0.0,0.0,0.0,0.0,0.0,0.0,0.0,0.0,0.0,0.0,0.0,0.0,0.0,0.0,0.0,0.0,0.0,0.0,0.0,0.0,0.0,0.0,0.0,0.0,0.0,0.0,0.0,0.0,0.0,0.0,0.0,1.8249,1.8137,1.859,1.9681,1.9259,1.8779,1.8382,1.7201,1.6394,0.0,0.0,0.0,0.0,0.0,0.0,0.0,0.0,0.0,0.0,0.0,0.0,0.0,0.0,0.0,0.0,0.0,0.0,0.0,0.0,0.0,0.0,0.0,0.0,0.0,0.0,0.0,0.0,0.0,0.0,0.0,0.0,0.0,0.0,0.0,0.0,0.0,0.0,0.0,0.0,0.0,2.0667,2.0361,1.9853,1.9405,0.0,0.0,1.9096,1.8656,1.9035,0.0,0.0,0.0,0.0,0.0,0.0,0.0,0.0,0.0,0.0,0.0,0.0,0.0,0.0,0.0,0.0,0.0,0.0,0.0,0.0,0.0,0.0,0.0,0.0,0.0,0.0,0.0,0.0,0.0,0.0,0.0,0.0,0.0,0.0,0.0,0.0,0.0,0.0,0.0,0.0,0.0,0.0,0.0,0.0,0.0,0.0,0.0,0.0,0.0,0.0,0.0,0.0,0.0,0.0,0.0,1.6574,1.7049,1.6609,1.7036,1.8182,1.7785,1.7368,1.7014,1.6305,1.5815,0.0,0.0,0.0,0.0,0.0,0.0,0.0,0.0,0.0,0.0,0.0,0.0,0.0,0.0,0.0,0.0,0.0,0.0,0.0,0.0,0.0,0.0,0.0,0.0,0.0,0.0,0.0,0.0,0.0,0.0,0.0,0.0,0.0,0.0,0.0,0.0,0.0,0.0,0.0,0.0,0.0,0.0,1.9901,1.9651,0.0,0.0,0.0,1.9042,1.8747,0.0,0.0,0.0,0.0,0.0,0.0,0.0,0.0,0.0,0.0,0.0,0.0,0.0,0.0,0.0,0.0,0.0,0.0,0.0,0.0,0.0,0.0,0.0,0.0,0.0,0.0,0.0,0.0,0.0,0.0,0.0,0.0,0.0,0.0,0.0,0.0,0.0,0.0,0.0,0.0,0.0,0.0,0.0,0.0,0.0,0.0,0.0,0.0,0.0,0.0,0.0,0.0,0.0,0.0,0.0,0.0,0.0,1.6025,1.5447,1.5673,1.669,1.6355,1.5951,1.5455,1.5309,0.0,0.0,0.0,0.0,0.0,0.0,0.0,0.0,0.0,0.0,0.0,0.0,0.0,0.0,0.0,0.0,0.0,0.0,0.0,0.0,0.0,0.0,0.0,0.0,0.0,0.0,0.0,1.5277,0.0,0.0,0.0,0.0,0.0,0.0,0.0,0.0,0.0,0.0,0.0,0.0,0.0,0.0,1.9477,1.9668,1.9547,1.9223,0.0,0.0,1.9052,1.8856,1.9083,1.9181,0.0,0.0,0.0,0.0,0.0,0.0,0.0,0.0,0.0,0.0,0.0,0.0,0.0,0.0,0.0,0.0,0.0,0.0,0.0,0.0,0.0,0.0,0.0,0.0,0.0,0.0,0.0,0.0,0.0,0.0,0.0,0.0,0.0,0.0,0.0,0.0,0.0,0.0,0.0,0.0,0.0,0.0,0.0,0.0,0.0,0.0,0.0,0.0,0.0,0.0,0.0,0.0,0.0,0.0,0.0,1.5599,1.5239,1.5148,1.5469,1.5282,1.4725,1.3965,1.3907,1.3669,0.0,0.0,0.0,0.0,0.0,0.0,0.0,0.0,0.0,0.0,0.0,0.0,0.0,0.0,0.0,0.0,0.0,0.0,0.0,0.0,0.0,0.0,0.0,0.0,0.0,0.0,0.0,0.0,0.0,0.0,0.0,0.0,0.0,0.0,0.0,0.0,0.0,0.0,0.0,0.0,0.0,2.0409,2.0152,1.9623,1.9145,0.0,0.0,1.877,1.8637,1.8155,1.7978,1.8306,0.0,0.0,0.0,0.0,0.0,0.0,0.0,0.0,0.0,0.0,0.0,0.0,0.0,0.0,0.0,0.0,0.0,0.0,0.0,0.0,0.0,0.0,0.0,0.0,0.0,0.0,0.0,0.0,0.0,0.0,0.0,0.0,0.0,0.0,0.0,0.0,0.0,0.0,0.0,0.0,0.0,0.0,0.0,0.0,0.0,0.0,0.0,0.0,0.0,0.0,0.0,0.0,0.0,1.533,1.5341,1.5103,1.5048,1.5126,1.5077,1.4734,1.4248,1.4109,1.3736,0.0,0.0,0.0,0.0,0.0,0.0,0.0,0.0,0.0,0.0,0.0,0.0,0.0,0.0,0.0,0.0,0.0,0.0,0.0,0.0,0.0,0.0,0.0,0.0,0.0,0.0,0.0,0.0,1.4748,1.5142,1.5605,0.0,0.0,0.0,0.0,0.0,0.0,0.0,0.0,0.0,0.0,1.8732,1.8927,1.8478,0.0,0.0,1.7705,1.7637,1.7446,1.7146,1.7094,1.7498,1.7631,0.0,0.0,0.0,0.0,0.0,0.0,0.0,0.0,0.0,0.0,0.0,0.0,0.0,0.0,0.0,0.0,0.0,0.0,0.0,0.0,0.0,0.0,0.0,0.0,0.0,0.0,0.0,0.0,0.0,0.0,0.0,0.0,0.0,0.0,0.0,0.0,0.0,0.0,0.0,0.0,0.0,0.0,0.0,0.0,0.0,0.0,0.0,0.0,0.0,0.0,0.0,0.0,1.5268,1.5374,1.5011,1.4821,1.4862,1.4881,1.4683,1.4261,1.4005,1.3488,0.0,0.0,0.0,0.0,0.0,0.0,0.0,0.0,0.0,0.0,0.0,0.0,0.0,0.0,0.0,0.0,0.0,0.0,0.0,0.0,0.0,0.0,0.0,0.0,0.0,0.0,0.0,0.0,1.3986,1.4463,1.4819,0.0,0.0,0.0,0.0,0.0,0.0,0.0,0.0,0.0,0.0,1.7545,1.779,1.7512,1.7168,1.6888,1.6832,1.6775,1.6641,1.6167,1.6042,1.6417,0.0,0.0,0.0,0.0,0.0,0.0,0.0,0.0,0.0,0.0,0.0,0.0,0.0,0.0,0.0,0.0,0.0,0.0,0.0,0.0,0.0,0.0,0.0,0.0,0.0,0.0,0.0,0.0,0.0,0.0,2.0232,0.0,0.0,0.0,0.0,0.0,0.0,0.0,0.0,0.0,0.0,0.0,0.0,0.0,0.0,0.0,0.0,0.0,0.0,0.0,0.0,0.0,0.0,1.5434,1.5652,1.4782,1.4396,1.4515,1.4506,1.4304,1.3702,1.3234,1.2774,1.2317,0.0,0.0,0.0,0.0,0.0,0.0,0.0,0.0,0.0,0.0,0.0,0.0,0.0,0.0,0.0,0.0,0.0,0.0,0.0,0.0,0.0,0.0,0.0,0.0,0.0,0.0,1.3107,1.365,1.4049,0.0,0.0,0.0,0.0,0.0,0.0,0.0,0.0,0.0,0.0,1.7391,1.7278,1.6992,1.6973,1.6775,1.6492,1.6436,1.6425,1.6244,1.5235,1.4552,0.0,0.0,0.0,0.0,0.0,0.0,0.0,0.0,0.0,0.0,0.0,0.0,0.0,0.0,0.0,0.0,0.0,0.0,0.0,0.0,0.0,0.0,0.0,0.0,0.0,0.0,0.0,1.9118,1.8724,0.0,0.0,0.0,0.0,0.0,0.0,0.0,0.0,0.0,0.0,0.0,1.621,1.571,0.0,0.0,0.0,0.0,0.0,0.0,0.0,0.0,0.0,0.0,0.0,0.0,1.5024,1.4978,1.451,1.4327,1.4515,1.4515,1.4118,1.339,1.3305,1.2907,1.2068,0.0,0.0,0.0,0.0,0.0,0.0,0.0,0.0,0.0,0.0,0.0,0.0,0.0,0.0,0.0,0.0,0.0,0.0,0.0,0.0,0.0,0.0,0.0,0.0,0.0,1.3168,0.0,0.0,0.0,0.0,0.0,0.0,0.0,0.0,0.0,0.0,0.0,1.5699,1.4703,1.4898,1.4874,1.4409,1.4359,1.4246,0.0,0.0,0.0,0.0,0.0,0.0,0.0,0.0,0.0,0.0,0.0,0.0,0.0,0.0,1.4624,1.5961,1.6085,1.6127,1.6422,0.0,0.0,0.0,0.0,0.0,0.0,0.0,0.0,0.0,0.0,0.0,0.0,0.0,0.0,1.7629,0.0,1.8031,0.0,0.0,0.0,0.0,0.0,0.0,0.0,0.0,1.5442,1.5089,1.5034,1.4644,1.4778,0.0,1.5561,1.5827,0.0,0.0,0.0,0.0,0.0,0.0,0.0,0.0,1.4687,1.4383,1.3969,1.3761,1.3631,1.3692,1.3433,1.2923,1.2818,1.2356,1.148,1.0847,1.0384,0.0,0.0,0.0,0.0,0.0,0.0,0.0,0.0,0.0,0.0,0.0,0.0,0.0,0.0,0.0,0.0,0.0,0.0,0.0,0.0,0.0,0.0,0.0,1.2891,0.0,0.0,0.0,0.0,0.0,0.0,0.0,0.0,0.0,1.3751,1.4234,1.4303,1.354,1.363,1.3639,1.3271,0.0,0.0,0.0,0.0,0.0,0.0,0.0,1.2582,1.2806,1.2747,1.2908,1.3633,1.3678,1.3851,1.4332,0.0,0.0,1.5265,1.5462,1.5502,1.5873,1.6006,1.6081,1.6081,1.5896,1.5694,0.0,0.0,0.0,0.0,0.0,0.0,0.0,0.0,1.4701,1.4952,0.0,1.5887,0.0,0.0,0.0,0.0,0.0,1.6026,0.0,0.0,1.4279,1.3939,1.3939,1.393,1.4102,1.4497,1.4524,1.4821,1.5371,1.5941,0.0,0.0,0.0,0.0,0.0,0.0,1.4423,1.3912,1.3199,1.2552,1.2081,1.2274,1.2343,1.2266,1.1794,1.1178,1.0618,1.0548,1.0225,0.9512,1.0301,0.0,0.0,0.0,0.0,0.0,0.0,0.0,0.0,0.0,0.0,0.0,0.0,0.0,0.0,0.0,0.0,0.0,0.0,0.0,0.0,1.1589,0.0,0.0,0.0,0.0,0.0,0.0,0.0,0.0,0.0,0.0,1.3624,1.3916,1.3991,1.3805,0.0,0.0,0.0,0.0,1.3437,1.3298,1.3309,1.327,1.3247,1.2684,1.2294,1.2316,0.0,0.0,1.2652,1.2457,1.2563,1.3406,1.3464,1.3723,1.4216,1.4036,1.4037,1.486,1.4981,1.4889,1.4874,1.4823,1.4729,1.1132,0.0,0.0,0.0,0.0,1.4116,1.3495,1.2431,1.3523,1.3562,1.2941,1.4166,0.0,0.0,0.0,0.0,0.0,0.0,1.5736,1.5205,1.4733,1.4317,1.3882,1.3873,1.4045,1.4318,1.4599,1.4744,1.4805,1.5041,1.5465,1.613,0.0,0.0,0.0,0.0,1.3935,1.3597,1.3275,1.2836,1.2336,1.2625,1.246,1.1732,1.1178,1.0548,0.9837,0.9779,0.9518,0.8812,0.9034,0.0,0.0,0.0,0.0,0.0,0.0,0.0,0.0,0.0,0.0,0.0,0.0,0.0,0.0,0.0,0.0,0.0,0.0,0.0,1.1815,1.1976,1.2004,0.0,0.0,0.0,0.0,0.0,0.0,0.0,0.0,0.0,1.1939,1.2487,1.2748,0.0,0.0,1.2162,1.2005,1.203,1.2006,1.1948,1.1995,0.0,0.0,1.093,1.0653,1.0272,1.037,1.0687,1.0999,1.1232,1.1444,1.1922,1.1991,1.2047,1.2224,1.348,1.4268,1.4183,1.4337,1.4358,1.3935,1.3622,1.3444,0.8931,1.1032,1.2102,1.2449,1.229,1.2494,1.1896,1.088,1.1814,1.1932,1.1471,1.2608,1.3467,1.4035,1.4373,0.0,0.0,0.0,1.5225,1.4638,1.4677,1.4467,1.4063,1.3898,1.392,1.413,1.4362,1.4417,1.4373,1.4321,1.4466,1.4777,0.0,0.0,1.4282,1.348,1.2877,1.2508,1.2443,1.2123,1.1602,1.1851,1.1538,1.073,1.0358,0.9849,0.9134,0.9134,0.8807,0.8166,0.8392,0.8457,0.0,0.0,0.0,0.0,0.0,0.0,0.0,0.0,0.0,0.0,0.0,1.1108,1.1779,0.0,0.0,0.0,1.091,1.1149,1.1819,1.169,0.0,0.0,0.0,0.0,0.0,0.0,0.0,1.07,1.0978,1.1211,1.1087,1.1261,1.1559,1.1866,1.154,1.1269,1.1278,0.0,1.0775,1.0824,1.083,1.0622,1.0194,1.005,1.0025,0.9846,1.0036,1.0263,1.0661,1.0867,1.0974,1.1257,1.1322,1.1322,1.1322,1.2516,1.3457,1.3215,1.3464,1.3633,1.3392,1.3258,1.3137,0.6972,0.7252,0.9688,1.0488,1.021,1.0672,1.0325,0.9532,0.9975,1.0204,1.0363,1.1138,1.1633,1.1947,1.2842,0.0,1.2943,1.3924,1.4028,1.3493,1.4081,1.4357,1.415,1.3785,1.3667,1.3917,1.3943,1.3926,1.3882,1.3761,1.3361,1.2712,1.2707,1.2776,1.2883,1.221,1.1593,1.0982,1.1168,1.0903,1.0267,1.0322,1.0047,0.9518,0.9518,0.9134,0.8484,0.8425,0.8102,0.7456,0.8002,0.8067,0.7461,0.0,0.0,0.0,0.0,0.0,0.0,0.0,0.0,0.0,0.0,0.0,0.0,0.0,0.0,0.0,0.9622,0.0,1.1614,1.1069,0.0,0.0,0.0,1.0688,1.0237,1.004,1.0201,1.0812,0.0,0.0,1.0807,1.0351,1.0415,1.1922,1.1272,1.0718,1.094,1.0347,0.9909,0.9921,0.9884,0.99,0.9825,0.9727,0.9813,1.0077,1.0308,1.0403,1.0815,1.0804,1.0768,1.094,1.1068,1.1068,1.1063,1.123,1.1563,1.1923,1.2345,1.2681,1.2954,1.2948,1.2936,0.5723,0.6485,0.7106,0.758,0.7919,0.8459,0.8506,0.8408,0.932,0.9667,0.9568,1.0195,1.0635,1.1025,1.1711,1.2157,1.2355,1.2775,1.3034,1.3115,1.3308,1.3437,1.3363,1.3268,1.3219,1.3265,1.3451,1.3302,1.2782,1.3009,1.2725,1.2081,1.1754,1.1883,1.2375,1.1895,1.1538,1.1311,1.143,1.1306,1.0804,1.0644,1.0231,0.9518,0.9518,0.8935,0.7782,0.7782,0.7391,0.6745,0.6815,0.6815,0.6679,0.6811,0.0,0.0,0.0,0.0,0.0,0.0,0.0,0.0,0.0,0.9361,0.9634,0.0,1.0069,0.0,0.9732,1.0024,1.0369,1.0319,0.0,0.0,1.0181,1.0054,0.9965,0.997,0.9744,0.9301,0.9599,0.9744,0.9306,0.9599,1.0045,1.0421,1.0226,1.0099,1.0182,1.0062,0.9905,0.989,0.9868,0.9698,0.9306,0.8886,0.8721,0.8673,0.8826,0.9013,0.9042,0.9125,0.9122,0.9253,0.9257,0.9257,0.9257,0.9345,0.9515,0.9951,1.0722,1.1408,1.1327,1.1068,1.0895,0.4904,0.5222,0.5449,0.5723,0.6105,0.7128,0.7557,0.761,0.8455,0.8765,0.8651,0.9248,0.9693,1.0024,1.0489,1.0928,1.1234,1.2022,1.2428,1.2595,1.2975,1.3138,1.3204,1.2918,1.2737,1.2826,1.2863,1.2632,1.2195,1.2458,1.2222,1.1383,1.1316,1.1336,1.1323,1.1139,1.1002,1.1048,1.1165,1.0911,1.0347,1.0187,0.9652,0.8683,0.8613,0.8102,0.7068,0.7003,0.6806,0.6416,0.642,0.642,0.642,0.642,0.642,0.0,0.0,0.0,0.0,0.0,0.0,0.0,0.0,0.0,0.0,0.0,0.9532,0.963,0.9175,0.9155,0.9884,0.9669,0.9523,0.9372,0.9372,0.9261,0.8976,0.8899,0.8803,0.8822,0.8827,0.8799,0.8817,0.8827,0.8841,0.8927,0.8928,0.9058,0.9264,0.9103,0.8851,0.8966,0.9004,0.8834,0.8467,0.8379,0.8227,0.8085,0.8321,0.8528,0.843,0.8499,0.8572,0.8572,0.8572,0.8572,0.8572,0.8572,0.8744,0.9003,0.9519,0.9946,1.0294,1.0125,1.0125,0.4356,0.4021,0.4467,0.4581,0.4739,0.6159,0.6869,0.7025,0.7557,0.7818,0.7925,0.848,0.8837,0.9165,0.9418,0.9729,1.0114,1.1324,1.1928,1.2006,1.2577,1.2891,1.3012,1.2455,1.2198,1.2356,1.2174,1.1978,1.171,1.202,1.1668,1.0811,1.1106,1.0962,1.0347,1.0347,1.0416,1.0617,1.0616,1.0282,0.9524,0.9518,0.8877,0.7587,0.7526,0.7129,0.642,0.642,0.642,0.642,0.642,0.642,0.642,0.642,0.6428,0.0,0.714,0.0,0.0,0.0,0.0,0.0,0.0,0.0,0.0,0.867,0.9015,0.9653,0.8389,0.8089,0.9442,0.8917,0.8551,0.8551,0.8546,0.8317,0.7853,0.7602,0.7884,0.8751,0.8095,0.7922,0.869,0.8104,0.7631,0.788,0.7928,0.8158,0.8434,0.8095,0.7777,0.7811,0.7841,0.8065,0.7996,0.8205,0.8272,0.8134,0.8337,0.8548,0.8519,0.8544,0.8572,0.8572,0.8572,0.8572,0.8572,0.8572,0.8572,0.8656,0.8744,0.9003,0.9694,0.9781,0.9864,0.3799,0.4021,0.4079,0.4132,0.419,0.4849,0.5614,0.6426,0.7025,0.7503,0.7871,0.8037,0.834,0.8905,0.918,0.9484,0.9786,1.0561,1.0973,1.12,1.1357,1.1499,1.1478,1.137,1.1256,1.1102,1.1352,1.1175,1.0672,1.112,1.0895,1.0092,1.0754,1.0779,1.0233,0.0,0.0,0.0,1.0464,1.0098,0.9518,0.9518,0.8871,0.7591,0.7526,0.0,0.6486,0.642,0.642,0.642,0.642,0.0,0.0,0.0,0.0,0.0,0.0,0.0,0.0,0.0,0.0,0.0,0.7681,0.7693,0.7487,0.763,0.8125,0.8841,0.8089,0.7633,0.7936,0.7863,0.7714,0.771,0.771,0.765,0.7533,0.7638,0.7803,0.7991,0.7926,0.8004,0.811,0.8008,0.7874,0.7969,0.7971,0.7992,0.8131,0.8045,0.7888,0.7827,0.8048,0.8219,0.8195,0.8365,0.8434,0.8321,0.841,0.8499,0.8402,0.8483,0.8568,0.8572,0.8572,0.8572,0.8572,0.8572,0.8572,0.8572,0.8572,0.874,0.9349,0.9174,0.8999,0.3285,0.0,0.3642,0.3747,0.0,0.3968,0.4574,0.5504,0.6322,0.6972,0.7509,0.7503,0.7804,0.8317,0.8471,0.8959,0.9608,0.9999,1.0361,1.0788,1.0949,1.108,1.1217,1.1141,1.1158,1.1344,1.1013,1.0741,1.0492,1.0744,1.0383,0.9545,1.0118,1.0043,0.9332,0.9328,0.9592,1.011,0.9724,0.9323,0.8756,0.8655,0.8144,0.7154,0.0,0.0,0.0,0.0,0.0,0.0,0.0,0.0,0.0,0.0,0.0,0.6814,0.6903,0.7029,0.7212,0.7305,0.7391,0.7472,0.748,0.7447,0.7358,0.7431,0.7633,0.8016,0.7714,0.748,0.7484,0.7561,0.7622,0.7622,0.7695,0.7776,0.7866,0.7882,0.7927,0.8,0.8012,0.804,0.8138,0.8065,0.8036,0.8143,0.8113,0.8138,0.799,0.8003,0.7956,0.8069,0.8284,0.8385,0.8329,0.8446,0.8507,0.8365,0.8446,0.8515,0.8442,0.8503,0.8572,0.8572,0.8572,0.8572,0.8572,0.8572,0.8572,0.8572,0.8572,0.8652,0.8915,0.8744,0.8656,0.263,0.2459,0.2991,0.321,0.3246,0.3303,0.3812,0.471,0.0,0.0,0.0,0.7023,0.73,0.7747,0.7863,0.8387,0.9208,0.9357,0.979,1.0371,1.0607,1.0903,1.1256,1.0949,1.1158,1.1729,1.0823,1.0498,1.0673,1.0578,1.0099,0.9304,0.9501,0.922,0.8513,0.822,0.8472,0.9159,0.8874,0.8471,0.7952,0.7733,0.7333,0.6692,0.6546,0.6481,0.6513,0.638,0.6313,0.6313,0.6242,0.6237,0.6433,0.6456,0.6538,0.6701,0.6845,0.6864,0.6895,0.7095,0.7249,0.733,0.733,0.7407,0.748,0.748,0.748,0.748,0.748,0.7492,0.7533,0.7745,0.7852,0.7801,0.7931,0.8069,0.8203,0.8138,0.8105,0.8243,0.8187,0.8166,0.8312,0.8219,0.8166,0.83,0.8337,0.8292,0.8113,0.8129,0.8129,0.8307,0.8345,0.8325,0.8229,0.8107,0.8142,0.7868,0.8032,0.8201,0.8212,0.8212,0.8208,0.8124,0.8212,0.8124,0.8208,0.812,0.83,0.8388,0.8388,0.8476,0.8568,0.8572,0.8568,0.1348,0.1398,0.1894,0.2321,0.2556,0.298,0.364,0.4411,0.5285,0.6032,0.6611,0.6721,0.7067,0.7612,0.7864,0.8059,0.8251,0.8328,0.8873,0.0,0.9566,0.993,1.0695,1.0233,1.0384,1.1061,1.0441,1.0437,1.0918,1.0396,0.985,0.94,0.9157,0.8885,0.8721,0.7961,0.7692,0.7962,0.8311,0.8234,0.7607,0.7518,0.7251,0.6736,0.6656,0.6717,0.6941,0.6376,0.6029,0.6026,0.56,0.5318,0.5334,0.534,0.5403,0.5612,0.5644,0.5705,0.5816,0.5844,0.6089,0.6637,0.6718,0.6949,0.748,0.748,0.748,0.748,0.748,0.7553,0.7695,0.7744,0.7825,0.7959,0.8,0.8028,0.8081,0.815,0.8303,0.8292,0.8418,0.8479,0.8495,0.8483,0.8467,0.8515,0.8499,0.8503,0.8438,0.8398,0.8381,0.8408,0.8025,0.7654,0.7541,0.7119,0.6858,0.6672,0.6763,0.6874,0.6874,0.6874,0.6874,0.6786,0.6874,0.6874,0.6786,0.6697,0.7051,0.7492,0.7672,0.7848,0.8388,0.8568,0.8656,0.0571,0.0741,0.1254,0.1689,0.2033,0.277,0.3199,0.3439,0.4305,0.5111,0.5703,0.5775,0.6224,0.6871,0.7162,0.7469,0.7756,0.7927,0.8361,0.8952,0.9014,0.9344,0.9775,0.9673,0.9932,1.0331,0.9583,0.9458,0.9817,0.9336,0.879,0.8388,0.8046,0.7826,0.7804,0.7431,0.7229,0.7311,0.7573,0.7519,0.7254,0.729,0.7197,0.69,0.6896,0.6722,0.6448,0.6165,0.5878,0.5512,0.5225,0.5186,0.5258,0.5264,0.5321,0.5524,0.5536,0.5558,0.5619,0.5622,0.5702,0.6012,0.6089,0.6167,0.6465,0.7092,0.748,0.748,0.748,0.7557,0.7744,0.7841,0.7967,0.8142,0.8251,0.8312,0.8321,0.8357,0.8496,0.8442,0.8515,0.8568,0.8572,0.8572,0.8572,0.8572,0.8572,0.8476,0.8124,0.7967,0.7933,0.7929,0.7672,0.7312,0.6959,0.6605,0.6428,0.6428,0.6428,0.6428,0.6428,0.6428,0.6428,0.6428,0.6428,0.6428,0.6428,0.6428,0.6605,0.6782,0.7312,0.7669,0.7944,0.8468,0.8907,-0.0198,-0.0,0.058,0.1027,0.1508,0.2432,0.2684,0.2514,0.3253,0.394,0.4575,0.4882,0.5384,0.6054,0.6299,0.671,0.7145,0.7281,0.7668,0.8122,0.8383,0.8641,0.8997,0.9143,0.9369,0.9659,0.8826,0.8592,0.8863,0.8379,0.7831,0.7418,0.7091,0.7048,0.7085,0.7044,0.7019,0.7023,0.7064,0.6993,0.6956,0.709,0.7037,0.6801,0.6793,0.6523,0.5974,0.5762,0.5466,0.5023,0.4874,0.4919,0.5014,0.5022,0.5064,0.5148,0.5237,0.516,0.516,0.5234,0.5234,0.5392,0.5392,0.5464,0.5687,0.65,0.7211,0.7257,0.7443,0.7626,0.7809,0.7975,0.815,0.8333,0.8479,0.8544,0.8568,0.8572,0.8572,0.8572,0.8572,0.8572,0.8572,0.8572,0.848,0.8388,0.8388,0.8032,0.7415,0.7228,0.7231,0.7058,0.7054,0.6782,0.6254,0.5985,0.5897,0.5899,0.5897,0.5808,0.5808,0.5897,0.5897,0.5808,0.5808,0.5808,0.5897,0.5899,0.5988,0.6166,0.6694,0.7401,0.8028,0.8632,0.9244,-0.1234,-0.1069,-0.0534,0.0134,0.0929,0.1621,0.2017,0.2189,0.2215,0.2544,0.3177,0.4315,0.5045,0.5467,0.5636,0.5844,0.6086,0.6067,0.6453,0.699,0.7091,0.7603,0.8429,0.8289,0.8638,0.927,0.8554,0.8432,0.8936,0.8137,0.7436,0.712,0.7015,0.7041,0.7163,0.7045,0.7027,0.6956,0.7119,0.7045,0.6813,0.6968,0.668,0.5989,0.6219,0.6139,0.564,0.5129,0.4822,0.4668,0.4196,0.3971,0.3979,0.3984,0.3986,0.3995,0.3997,0.3997,0.3997,0.3995,0.4229,0.4698,0.4776,0.5007,0.5467,0.5811,0.6143,0.6613,0.7321,0.7725,0.7975,0.8066,0.8231,0.84,0.8456,0.8572,0.848,0.8572,0.8572,0.8572,0.8476,0.8572,0.848,0.8388,0.8208,0.7669,0.758,0.7316,0.67,0.652,0.6254,0.5813,0.5638,0.5636,0.5458,0.4921,0.4743,0.4654,0.4565,0.4654,0.4743,0.4654,0.4565,0.4921,0.4654,0.4743,0.4654,0.4565,0.4832,0.5458,0.6166,0.7048,0.8552,0.924,0.9318,-0.1835,-0.1816,-0.121,-0.0605,0.0067,0.0797,0.113,0.1074,0.1262,0.1596,0.2147,0.2952,0.3687,0.435,0.4478,0.4746,0.5216,0.5156,0.5554,0.6288,0.6455,0.6805,0.7403,0.7525,0.7859,0.8239,0.779,0.769,0.7907,0.761,0.7258,0.7123,0.7212,0.7305,0.737,0.7305,0.7116,0.6746,0.6814,0.6972,0.7155,0.6903,0.6503,0.5966,0.5878,0.564,0.5079,0.4776,0.4543,0.4231,0.3921,0.3841,0.3841,0.3841,0.3841,0.3841,0.3841,0.3841,0.3841,0.3841,0.3919,0.4155,0.4153,0.4337,0.4574,0.4927,0.5359,0.5674,0.627,0.6912,0.7392,0.7222,0.7318,0.7724,0.7584,0.7319,0.7316,0.7302,0.7295,0.7312,0.7665,0.7753,0.7404,0.7319,0.7143,0.6874,0.6871,0.6605,0.5991,0.5811,0.5547,0.4924,0.4746,0.4746,0.4746,0.4567,0.4297,0.4297,0.4297,0.4297,0.4297,0.4297,0.4297,0.4297,0.4297,0.4297,0.4387,0.4297,0.4476,0.5013,0.5813,0.6874,0.8376,0.9222,0.9653,-0.237,-0.2154,-0.1748,-0.121,-0.0672,-0.0269,-0.0,0.0067,0.0339,0.0745,0.1212,0.1503,0.2188,0.2982,0.3318,0.3871,0.4311,0.4316,0.4727,0.5491,0.5523,0.5792,0.6379,0.664,0.6938,0.7206,0.7234,0.72,0.7163,0.7212,0.7076,0.7025,0.7171,0.7173,0.7015,0.7015,0.6788,0.6402,0.6321,0.6493,0.6662,0.6338,0.5813,0.5354,0.5345,0.5082,0.4465,0.4467,0.4233,0.3841,0.3841,0.3841,0.3843,0.3787,0.3799,0.3801,0.3801,0.3801,0.3799,0.3801,0.3801,0.3801,0.382,0.3865,0.3926,0.4367,0.4694,0.4818,0.5152,0.584,0.6721,0.6519,0.6586,0.7119,0.6694,0.6428,0.6428,0.6407,0.6495,0.6425,0.6962,0.7048,0.6517,0.6428,0.6432,0.6163,0.6166,0.5899,0.5282,0.5102,0.4924,0.4389,0.4297,0.4297,0.4297,0.4297,0.4297,0.4297,0.4297,0.4297,0.4297,0.4297,0.4297,0.4297,0.4297,0.4297,0.4297,0.4297,0.4389,0.4835,0.5638,0.6884,0.8285,0.93,1.0168,-0.2819,-0.2293,-0.2153,-0.1816,-0.1277,-0.1748,-0.1412,-0.0471,-0.0483,-0.0207,0.034,0.0355,0.0644,0.1331,0.2448,0.3182,0.3391,0.3528,0.3958,0.4539,0.4116,0.4473,0.5706,0.5796,0.6101,0.6619,0.6874,0.702,0.6949,0.7078,0.6923,0.6414,0.6565,0.6325,0.5854,0.5774,0.5699,0.5702,0.5616,0.5464,0.5168,0.4927,0.4528,0.4133,0.446,0.4465,0.3997,0.3841,0.3841,0.3841,0.3841,0.3841,0.3847,0.3842,0.3887,0.3893,0.3893,0.3893,0.3893,0.3895,0.3893,0.3903,0.3961,0.3997,0.3973,0.4151,0.4257,0.4277,0.4444,0.4944,0.6007,0.6162,0.6228,0.6422,0.6432,0.634,0.634,0.616,0.6337,0.6343,0.6272,0.6361,0.6343,0.6428,0.5985,0.563,0.5455,0.5193,0.4656,0.4389,0.4389,0.4389,0.4297,0.4297,0.4297,0.4297,0.4297,0.4297,0.4297,0.4297,0.4297,0.4297,0.4297,0.4297,0.4297,0.4297,0.4297,0.4389,0.4656,0.5107,0.5927,0.7084,0.8193,0.9575,1.0443,-0.4087,-0.3639,-0.2632,-0.228,-0.2482,-0.2285,-0.1748,-0.1011,-0.1108,-0.0836,-0.0278,0.0072,0.0366,0.0663,0.1472,0.2124,0.2619,0.269,0.3052,0.3704,0.3627,0.4045,0.4891,0.5047,0.5339,0.5909,0.6113,0.6139,0.6095,0.6142,0.609,0.594,0.5909,0.5857,0.5622,0.5622,0.5389,0.5085,0.4999,0.4766,0.4311,0.4151,0.3992,0.3837,0.3995,0.3997,0.3841,0.3841,0.3841,0.3841,0.3841,0.3841,0.3851,0.385,0.3928,0.3979,0.3985,0.3987,0.3987,0.3987,0.3985,0.3989,0.4016,0.4057,0.4089,0.4142,0.4208,0.4275,0.4297,0.4632,0.4796,0.4989,0.5277,0.5636,0.5366,0.5097,0.5099,0.501,0.5097,0.501,0.5018,0.5198,0.5549,0.5366,0.501,0.4741,0.4746,0.4567,0.4387,0.4297,0.4297,0.4297,0.4297,0.4297,0.4297,0.4297,0.4297,0.4297,0.4297,0.4297,0.4297,0.4297,0.4297,0.4297,0.4297,0.4297,0.4297,0.4297,0.4567,0.4748,0.5657,0.6903,0.7918,0.9035,1.0086,-0.47,-0.4501,-0.3357,-0.3067,-0.3233,-0.2526,-0.1986,-0.1662,-0.1705,-0.143,-0.0858,-0.0515,-0.0225,-0.0,0.0458,0.0836,0.1344,0.1716,0.2312,0.2981,0.2903,0.3304,0.396,0.4197,0.4535,0.5068,0.5467,0.5622,0.5622,0.5622,0.5544,0.5315,0.5315,0.5157,0.5082,0.5002,0.4774,0.4465,0.4382,0.4226,0.3841,0.3841,0.3841,0.3841,0.3841,0.3841,0.3841,0.3841,0.3779,0.3801,0.3808,0.3834,0.3893,0.3906,0.3963,0.4059,0.4053,0.405,0.4075,0.4081,0.4079,0.4083,0.4108,0.4144,0.4175,0.4195,0.4242,0.4285,0.4297,0.4297,0.4297,0.4297,0.4478,0.4924,0.4567,0.4297,0.4297,0.4297,0.4297,0.4387,0.4389,0.4567,0.4835,0.4567,0.4389,0.4297,0.4297,0.4297,0.4297,0.4297,0.4297,0.4297,0.4297,0.4297,0.43,0.43,0.43,0.43,0.4297,0.4297,0.4297,0.4297,0.4297,0.4297,0.4297,0.4297,0.4297,0.4297,0.4297,0.4389,0.529,0.6545,0.7394,0.8154,0.93,-0.4745,-0.4822,-0.4437,-0.4099,-0.3737,-0.2887,-0.2413,-0.2324,-0.2383,-0.2077,-0.1542,-0.1454,-0.1156,-0.0764,-0.0466,-0.047,-0.0156,0.0701,0.1636,0.2259,0.1717,0.2106,0.3124,0.3278,0.3675,0.4238,0.5079,0.5476,0.5425,0.5419,0.5179,0.4787,0.4716,0.4479,0.3843,0.3997,0.3919,0.3919,0.3919,0.3841,0.3841,0.3841,0.3841,0.3841,0.3841,0.3845,0.3849,0.3851,0.3812,0.3881,0.3897,0.3985,0.4095,0.4028,0.4018,0.4132,0.4095,0.4093,0.4161,0.4173,0.4173,0.4179,0.4242,0.4244,0.4208,0.4249,0.4289,0.4295,0.4297,0.4297,0.4297,0.43,0.4389,0.4297,0.43,0.4297,0.4297,0.4297,0.4297,0.4297,0.4297,0.4297,0.4297,0.43,0.4297,0.4297,0.4297,0.4297,0.4297,0.4297,0.4297,0.43,0.4314,0.433,0.4316,0.4302,0.4302,0.4302,0.43,0.4297,0.4297,0.4297,0.4297,0.4297,0.4297,0.4297,0.4297,0.4297,0.4297,0.4478,0.5471,0.6186,0.6868,0.7636,0.8703,-0.6257,-0.6297,-0.619,-0.5762,-0.5147,-0.4456,-0.3824,-0.321,-0.3289,-0.2858,-0.2183,-0.1778,-0.1483,-0.1245,-0.0861,-0.0629,-0.055,-0.0157,0.0393,0.0942,0.1178,0.157,0.2194,0.2352,0.2765,0.3512,0.4101,0.4384,0.4482,0.4447,0.4334,0.4177,0.4174,0.406,0.3847,0.3841,0.3841,0.3841,0.3841,0.3841,0.3841,0.3843,0.3843,0.3841,0.3841,0.3791,0.385,0.3857,0.3871,0.3906,0.3959,0.4048,0.4134,0.4191,0.4212,0.4236,0.4236,0.4224,0.4251,0.4259,0.4257,0.4263,0.4285,0.4287,0.4265,0.4281,0.4297,0.4297,0.4297,0.4297,0.43,0.4478,0.4478,0.43,0.4297,0.43,0.43,0.4297,0.4297,0.4297,0.4297,0.4297,0.43,0.43,0.4306,0.43,0.4302,0.4304,0.4304,0.4314,0.4297,0.43,0.4332,0.4357,0.4322,0.4322,0.4342,0.4316,0.43,0.4297,0.4297,0.4297,0.4297,0.4297,0.4297,0.4297,0.4297,0.4297,0.4297,0.4389,0.4928,0.5547,0.6242,0.7037,0.8017,-0.7194,-0.7198,-0.7219,-0.6745,-0.6029,-0.5918,-0.5038,-0.3815,-0.3724,-0.3215,-0.2462,-0.2103,-0.1959,-0.1803,-0.1491,-0.1335,-0.1256,-0.1099,-0.0785,-0.0314,0.055,0.1099,0.1415,0.1743,0.2412,0.3187,0.3485,0.3757,0.4026,0.3981,0.395,0.3948,0.3918,0.3875,0.3812,0.3781,0.3841,0.3841,0.3841,0.3841,0.3849,0.3797,0.3816,0.3899,0.3848,0.3891,0.3948,0.3981,0.4001,0.4016,0.4087,0.4163,0.4214,0.4202,0.4222,0.4273,0.4271,0.4259,0.4291,0.4293,0.4297,0.4297,0.4297,0.4297,0.4297,0.4297,0.4297,0.4297,0.4297,0.4297,0.43,0.4569,0.4569,0.4478,0.4567,0.4567,0.4478,0.4478,0.4389,0.4395,0.4328,0.4328,0.431,0.4336,0.4328,0.4314,0.4328,0.4282,0.4379,0.4383,0.4367,0.4363,0.44,0.4383,0.4322,0.4338,0.4379,0.4342,0.4297,0.4297,0.4297,0.4297,0.4297,0.4297,0.4297,0.4297,0.4297,0.4297,0.4297,0.4478,0.4569,0.5099,0.5719,0.6083,0.6972,-0.7512,-0.752,-0.748,-0.7036,-0.6433,-0.7032,-0.6129,-0.4201,-0.3902,-0.3435,-0.274,-0.2518,-0.2442,-0.2518,-0.2297,-0.2302,-0.2366,-0.1901,-0.1666,-0.1268,-0.0476,0.0159,0.0398,0.1292,0.2224,0.2851,0.3183,0.3531,0.391,0.397,0.4042,0.4036,0.3963,0.3901,0.3873,0.3808,0.3841,0.3841,0.3841,0.3841,0.3845,0.3834,0.3885,0.3972,0.3959,0.401,0.405,0.412,0.4171,0.4187,0.4238,0.4275,0.4293,0.4208,0.4289,0.4297,0.4224,0.4238,0.4281,0.4297,0.4297,0.4297,0.4297,0.4297,0.4297,0.4297,0.4297,0.4297,0.4389,0.4389,0.4389,0.4656,0.4748,0.4839,0.4837,0.4835,0.4748,0.4659,0.4569,0.4403,0.4369,0.4406,0.433,0.4383,0.4371,0.4338,0.4371,0.4358,0.4442,0.4432,0.4473,0.456,0.4564,0.4422,0.4365,0.4418,0.4442,0.4336,0.4297,0.4297,0.4297,0.4297,0.4297,0.4297,0.4297,0.4297,0.43,0.4389,0.4389,0.4478,0.4659,0.4928,0.5287,0.5735,0.6355,-0.766,-0.7542,-0.7654,-0.748,-0.72,-0.7573,-0.6935,-0.5547,-0.4924,-0.4222,-0.3454,-0.2797,-0.2572,-0.2582,-0.2621,-0.2644,-0.2555,-0.2474,-0.2396,-0.2313,-0.1569,-0.0908,-0.033,0.083,0.1517,0.18,0.2635,0.3418,0.369,0.3992,0.4136,0.4132,0.404,0.3961,0.3897,0.381,0.3845,0.3841,0.3841,0.3841,0.3847,0.3791,0.3834,0.3899,0.3934,0.4014,0.4126,0.422,0.4265,0.4267,0.4283,0.4297,0.4297,0.4297,0.4297,0.4291,0.4279,0.4269,0.4291,0.4297,0.4297,0.4297,0.4297,0.4297,0.4297,0.4297,0.4297,0.43,0.4478,0.4572,0.4661,0.4931,0.5198,0.5374,0.5198,0.4928,0.4837,0.4661,0.4659,0.458,0.4474,0.4505,0.4503,0.4514,0.4408,0.4435,0.4398,0.4424,0.4444,0.4516,0.4626,0.4616,0.4606,0.4555,0.4442,0.4498,0.4477,0.4342,0.4297,0.4297,0.4297,0.4297,0.4297,0.4297,0.4297,0.4297,0.4389,0.4478,0.4478,0.4569,0.4928,0.5198,0.5285,0.5644,0.6174,-0.7957,-0.7773,-0.7754,-0.7721,-0.7675,-0.7762,-0.7175,-0.6261,-0.5699,-0.4844,-0.3851,-0.3372,-0.2924,-0.2608,-0.2664,-0.2692,-0.2694,-0.2694,-0.2691,-0.2696,-0.229,-0.1618,-0.0767,0.017,0.0517,0.0702,0.1737,0.2541,0.3118,0.3717,0.4053,0.42,0.4097,0.401,0.3957,0.3826,0.3843,0.3841,0.3841,0.3841,0.3843,0.3842,0.3903,0.3971,0.4018,0.4128,0.4224,0.4273,0.4297,0.4297,0.4297,0.4297,0.4297,0.4297,0.4297,0.4297,0.4297,0.4297,0.4297,0.4297,0.4297,0.4297,0.4297,0.4297,0.4297,0.4297,0.4297,0.4297,0.4569,0.4681,0.4806,0.5175,0.551,0.566,0.5502,0.5238,0.5027,0.5018,0.4926,0.4779,0.4771,0.4657,0.4728,0.4684,0.4635,0.4569,0.4469,0.4526,0.4563,0.4669,0.4699,0.4691,0.4695,0.4573,0.4512,0.4534,0.4514,0.4385,0.43,0.43,0.4297,0.4297,0.4297,0.4297,0.4297,0.4297,0.4478,0.4567,0.4569,0.475,0.5198,0.5377,0.5463,0.5552,0.6171,-0.8312,-0.8132,-0.7943,-0.7841,-0.7831,-0.7795,-0.73,-0.6521,-0.6281,-0.5416,-0.4349,-0.3957,-0.3453,-0.2788,-0.279,-0.2718,-0.2719,-0.273,-0.2725,-0.2741,-0.2594,-0.2181,-0.1307,-0.0958,-0.0615,-0.0178,0.0537,0.143,0.2058,0.2862,0.3582,0.3811,0.3785,0.3978,0.3932,0.3875,0.3787,0.3785,0.3849,0.3843,0.3868,0.3895,0.3981,0.4034,0.4179,0.4251,0.4283,0.4297,0.4297,0.4297,0.4297,0.4297,0.4297,0.4297,0.4297,0.4297,0.4297,0.4297,0.4297,0.4297,0.4297,0.4297,0.4297,0.4297,0.4297,0.4297,0.4297,0.4389,0.4569,0.4793,0.5052,0.545,0.5619,0.5751,0.588,0.5772,0.5525,0.5405,0.5313,0.4869,0.5125,0.4991,0.4806,0.4849,0.5003,0.4727,0.4689,0.4675,0.4688,0.4668,0.471,0.4675,0.4687,0.4704,0.4632,0.4567,0.4514,0.4432,0.4334,0.43,0.43,0.4297,0.4297,0.4389,0.4478,0.4478,0.4567,0.4656,0.4748,0.4928,0.5285,0.5374,0.5463,0.5644,0.5997,-0.8621,-0.853,-0.8439,-0.8354,-0.8248,-0.8028,-0.7781,-0.7383,-0.6741,-0.6261,-0.5672,-0.4694,-0.4089,-0.3848,-0.3224,-0.2835,-0.2911,-0.2912,-0.2835,-0.2838,-0.2845,-0.2765,-0.2316,-0.1869,-0.1517,-0.1165,-0.0269,0.0358,0.0715,0.1431,0.2058,0.2764,0.3057,0.3359,0.3933,0.3784,0.3869,0.3859,0.3801,0.3845,0.3868,0.3881,0.3981,0.4055,0.4212,0.4289,0.4297,0.4297,0.4297,0.4297,0.4297,0.4297,0.4297,0.4297,0.4297,0.4297,0.4297,0.4297,0.4297,0.4297,0.4297,0.4297,0.4297,0.4297,0.4297,0.4297,0.4389,0.4569,0.4839,0.5148,0.5522,0.5808,0.5919,0.6002,0.6018,0.6037,0.5917,0.572,0.558,0.548,0.54,0.5413,0.5412,0.5302,0.5259,0.5083,0.4914,0.4944,0.4785,0.4728,0.4781,0.4722,0.4716,0.4716,0.4667,0.46,0.4555,0.4485,0.4391,0.4328,0.4326,0.4297,0.43,0.4478,0.4659,0.4659,0.4656,0.5013,0.5193,0.5282,0.5371,0.5552,0.5644,0.5733,0.5733,-0.914,-0.8811,-0.8842,-0.8759,-0.8613,-0.8434,-0.8205,-0.7987,-0.7469,-0.6983,-0.6518,-0.5658,-0.5142,-0.4765,-0.3864,-0.3459,-0.3403,-0.3053,-0.2873,-0.2872,-0.2873,-0.2873,-0.2875,-0.2515,-0.2334,-0.2153,-0.1344,-0.0806,-0.0358,0.0358,0.1164,0.1787,0.1929,0.2239,0.2902,0.3144,0.3227,0.3351,0.3636,0.3859,0.3832,0.3916,0.4034,0.4136,0.4249,0.4297,0.4297,0.4297,0.4297,0.4297,0.4297,0.4297,0.4297,0.4297,0.4297,0.4297,0.4297,0.4297,0.4297,0.4297,0.4297,0.4297,0.4297,0.4297,0.4297,0.4297,0.4478,0.4659,0.4931,0.5233,0.5804,0.6078,0.6135,0.6108,0.6143,0.6168,0.6165,0.6026,0.5784,0.5743,0.5713,0.5686,0.5617,0.5664,0.552,0.525,0.5163,0.509,0.4798,0.4726,0.4783,0.4741,0.4728,0.471,0.4673,0.4634,0.4608,0.4534,0.4447,0.4402,0.4383,0.4342,0.43,0.4478,0.4659,0.4661,0.4748,0.5104,0.546,0.546,0.5463,0.5644,0.5733,0.5733,0.5733,-0.9524,-0.9007,-0.905,-0.9064,-0.9027,-0.8817,-0.8615,-0.8491,-0.8226,-0.7718,-0.7065,-0.6816,-0.6196,-0.5728,-0.4713,-0.4322,-0.4014,-0.332,-0.2875,-0.2875,-0.2875,-0.2875,-0.2875,-0.2785,-0.2785,-0.2785,-0.2243,-0.1703,-0.1254,-0.0448,0.009,0.0714,0.1058,0.1306,0.1531,0.191,0.2368,0.241,0.3102,0.3486,0.363,0.3798,0.4108,0.4246,0.4285,0.4297,0.4297,0.4297,0.4297,0.4297,0.4297,0.4297,0.4297,0.4297,0.4297,0.4297,0.4297,0.4297,0.4297,0.4297,0.4297,0.4297,0.4297,0.43,0.4389,0.4412,0.4606,0.489,0.5184,0.5527,0.5871,0.6159,0.6227,0.6198,0.6244,0.6285,0.6276,0.6198,0.6064,0.5934,0.5989,0.5955,0.5871,0.5899,0.5664,0.5411,0.5318,0.5209,0.5003,0.4812,0.4866,0.4816,0.4888,0.481,0.4683,0.4677,0.4651,0.4608,0.4518,0.4465,0.4436,0.4483,0.4527,0.4574,0.4656,0.4748,0.4928,0.5285,0.5463,0.5463,0.5552,0.5644,0.5733,0.5733,0.5733,-0.9323,-0.9289,-0.9262,-0.9351,-0.9465,-0.911,-0.895,-0.8835,-0.8577,-0.8404,-0.8171,-0.7429,-0.6957,-0.6558,-0.586,-0.5082,-0.4383,-0.3506,-0.3061,-0.297,-0.297,-0.2882,-0.2884,-0.2876,-0.2875,-0.2875,-0.2694,-0.2513,-0.2423,-0.1974,-0.1075,-0.0447,-0.0,0.0443,0.1052,0.1474,0.1519,0.1565,0.2275,0.2737,0.2899,0.3478,0.4032,0.4271,0.4291,0.4297,0.4297,0.4297,0.4297,0.4297,0.4297,0.4297,0.4297,0.4297,0.4297,0.4297,0.4297,0.4297,0.4297,0.4297,0.4297,0.4297,0.4308,0.4486,0.4593,0.4736,0.4959,0.5373,0.5756,0.6075,0.6206,0.6309,0.6382,0.638,0.6372,0.6396,0.6391,0.6363,0.6309,0.6155,0.6203,0.6339,0.6134,0.6033,0.5971,0.5785,0.5669,0.5498,0.5333,0.5194,0.5138,0.5081,0.4927,0.4867,0.4795,0.4706,0.4698,0.4681,0.461,0.452,0.4576,0.4629,0.4673,0.4779,0.4835,0.5104,0.5282,0.5463,0.5555,0.5644,0.5644,0.5733,0.5733,0.5733,0.5733,-0.9639,-0.9346,-0.9391,-0.9596,-0.974,-0.9502,-0.9284,-0.9289,-0.8944,-0.8772,-0.8595,-0.808,-0.7774,-0.7541,-0.6783,-0.5829,-0.5008,-0.408,-0.373,-0.3641,-0.3188,-0.2917,-0.2907,-0.2888,-0.2876,-0.2875,-0.2875,-0.2875,-0.2875,-0.2424,-0.1973,-0.1524,-0.0986,-0.0446,-0.0,0.0348,0.0515,0.0757,0.1328,0.1891,0.1956,0.2946,0.3635,0.4126,0.4279,0.4297,0.4297,0.4297,0.4297,0.4297,0.4297,0.4297,0.4297,0.4297,0.4297,0.4297,0.4297,0.4297,0.4297,0.4297,0.4297,0.4306,0.4426,0.4641,0.4758,0.5002,0.5251,0.5667,0.604,0.6265,0.626,0.6372,0.6426,0.6437,0.6437,0.6437,0.6437,0.6437,0.6399,0.6347,0.6325,0.6336,0.6372,0.6273,0.6184,0.6064,0.5925,0.5802,0.5566,0.5443,0.5444,0.5266,0.5129,0.5001,0.4939,0.4849,0.4849,0.4833,0.4783,0.4691,0.4706,0.4752,0.4854,0.4945,0.5107,0.5282,0.5371,0.5552,0.5644,0.5733,0.5733,0.5733,0.5733,0.5733,0.5733,-1.0146,-0.9645,-0.9652,-0.9762,-0.9932,-0.9777,-0.9657,-0.9552,-0.9187,-0.8892,-0.8784,-0.8524,-0.8377,-0.819,-0.7469,-0.6511,-0.5908,-0.5091,-0.4563,-0.411,-0.3656,-0.3209,-0.3016,-0.2903,-0.2875,-0.2875,-0.2875,-0.2875,-0.2785,-0.2424,-0.2244,-0.1974,-0.1615,-0.1425,-0.1143,-0.0615,-0.0431,-0.0085,0.0507,0.1015,0.153,0.232,0.3134,0.3934,0.4174,0.4297,0.4297,0.4297,0.4297,0.4297,0.4297,0.4297,0.4297,0.4297,0.4297,0.4297,0.4297,0.4297,0.4297,0.4297,0.4297,0.4302,0.4639,0.4771,0.5021,0.527,0.5656,0.5875,0.6139,0.6312,0.6328,0.6382,0.6429,0.6437,0.6437,0.6437,0.6437,0.6437,0.6437,0.6388,0.6339,0.6344,0.6391,0.635,0.6246,0.6214,0.6071,0.5965,0.5755,0.5619,0.5516,0.5506,0.5359,0.5246,0.509,0.5107,0.5105,0.5094,0.5025,0.503,0.4944,0.496,0.5048,0.5129,0.5287,0.5463,0.5552,0.5552,0.5644,0.5733,0.5733,0.5733,0.5733,0.5733,0.5733,-1.0642,-1.0746,-0.9966,-0.9762,-1.0024,-0.9951,-0.9847,-0.963,-0.9383,-0.9074,-0.8778,-0.8666,-0.8491,-0.8193,-0.7523,-0.7115,-0.6704,-0.6025,-0.5243,-0.4707,-0.4252,-0.3624,-0.307,-0.2882,-0.2875,-0.2875,-0.2875,-0.2875,-0.2789,-0.2428,-0.2244,-0.2064,-0.1705,-0.1432,-0.1336,-0.116,-0.1237,-0.1043,-0.0346,0.0432,0.1211,0.2081,0.2626,0.319,0.3662,0.403,0.3942,0.4037,0.4131,0.421,0.4302,0.4302,0.4297,0.4297,0.4297,0.4297,0.4297,0.4297,0.43,0.43,0.4389,0.4391,0.46,0.4818,0.5308,0.5739,0.6166,0.6291,0.6407,0.6399,0.6396,0.6423,0.6437,0.6437,0.6437,0.6437,0.6437,0.6437,0.6437,0.6434,0.6385,0.6396,0.6426,0.6358,0.6295,0.6257,0.6184,0.5988,0.5993,0.58,0.5764,0.5681,0.5594,0.5485,0.5309,0.5331,0.5336,0.5436,0.537,0.5273,0.5165,0.516,0.524,0.5428,0.5578,0.5644,0.5644,0.5644,0.5733,0.5733,0.5733,0.5733,0.5733,0.5733,0.5733,-1.1207,-1.0696,-1.0636,-1.0378,-1.0033,-1.0038,-0.9904,-0.9833,-0.9561,-0.9343,-0.9033,-0.8828,-0.862,-0.8372,-0.8101,-0.7944,-0.7694,-0.6946,-0.6355,-0.5623,-0.4901,-0.4184,-0.3728,-0.316,-0.2875,-0.2875,-0.2879,-0.2899,-0.2809,-0.2436,-0.2155,-0.1976,-0.1616,-0.1435,-0.1438,-0.1453,-0.1452,-0.135,-0.098,-0.0354,0.0353,0.0963,0.1482,0.2025,0.2492,0.2684,0.2873,0.3358,0.3527,0.3607,0.3976,0.4349,0.4314,0.4297,0.43,0.4304,0.4353,0.4351,0.431,0.4484,0.4484,0.4678,0.4897,0.5373,0.5795,0.6107,0.632,0.642,0.6434,0.6437,0.6437,0.6437,0.6437,0.6437,0.6437,0.6437,0.6437,0.6437,0.6437,0.6437,0.6437,0.6437,0.642,0.6344,0.6354,0.6272,0.6138,0.6026,0.6103,0.6111,0.5966,0.5906,0.5821,0.5727,0.5629,0.5536,0.5536,0.5534,0.5529,0.5419,0.5379,0.5359,0.555,0.5543,0.5573,0.5646,0.5738,0.5733,0.5733,0.5733,0.5733,0.5733,0.5733,0.5733,0.5733,-1.205,-1.1107,-1.13,-1.1123,-1.0636,-1.0467,-1.0341,-1.0206,-0.977,-0.9493,-0.9221,-0.8974,-0.8765,-0.8652,-0.8564,-0.848,-0.8484,-0.7882,-0.7379,-0.6663,-0.5844,-0.4926,-0.4268,-0.3515,-0.3142,-0.2875,-0.2875,-0.2813,-0.2654,-0.2375,-0.2086,-0.1898,-0.1619,-0.1436,-0.1441,-0.1453,-0.1461,-0.1472,-0.1365,-0.0995,-0.054,-0.0089,0.0439,0.088,0.1242,0.1435,0.1536,0.2468,0.3016,0.2664,0.3758,0.4211,0.3901,0.4166,0.4344,0.4363,0.442,0.4447,0.458,0.4641,0.4701,0.4996,0.524,0.5738,0.6061,0.6255,0.6333,0.6434,0.6437,0.6437,0.6437,0.6437,0.6437,0.6437,0.6437,0.6437,0.6437,0.6437,0.6437,0.6437,0.6437,0.6437,0.6401,0.6325,0.6324,0.6303,0.615,0.6029,0.6086,0.6176,0.6222,0.6045,0.6038,0.6034,0.5937,0.5837,0.5837,0.5729,0.5724,0.5765,0.5719,0.5713,0.5727,0.5718,0.5703,0.5697,0.5814,0.5773,0.5733,0.5733,0.5733,0.5733,0.5733,0.5733,0.5733,-1.3348,-1.2389,-1.2068,-1.2064,-1.231,-1.1574,-1.1113,-1.0831,-1.0015,-0.9442,-0.9034,-0.8755,-0.8702,-0.8619,-0.8572,-0.8572,-0.8572,-0.8488,-0.7978,-0.7439,-0.6799,-0.5836,-0.5029,-0.431,-0.3769,-0.3148,-0.3147,-0.2817,-0.2393,-0.2299,-0.2208,-0.2121,-0.1635,-0.144,-0.1444,-0.1461,-0.1474,-0.1487,-0.1483,-0.1481,-0.1104,-0.0635,-0.009,0.0179,0.0807,0.1353,0.1379,0.2127,0.2329,0.1597,0.2984,0.3791,0.34,0.3853,0.4126,0.442,0.4601,0.472,0.488,0.4813,0.4975,0.5184,0.5511,0.5865,0.6159,0.6325,0.641,0.6431,0.6437,0.6437,0.6437,0.6437,0.6437,0.6437,0.6437,0.6437,0.6437,0.6437,0.6437,0.6437,0.6437,0.6437,0.6401,0.6328,0.6349,0.6239,0.6211,0.6089,0.6089,0.6255,0.623,0.6279,0.6265,0.6323,0.6337,0.6237,0.6137,0.6119,0.6103,0.6153,0.616,0.617,0.6005,0.5914,0.582,0.5901,0.5866,0.5795,0.5744,0.5738,0.5733,0.5733,0.5733,0.5733,0.5733,-1.3643,-1.3438,-1.3258,-1.2739,-1.2058,-1.2126,-1.1853,-1.1413,-1.0889,-1.0047,-0.9199,-0.8944,-0.8757,-0.8648,-0.8572,-0.8572,-0.8572,-0.8572,-0.8304,-0.7944,-0.7319,-0.6697,-0.5897,-0.5297,-0.4681,-0.3995,-0.3801,-0.3292,-0.2629,-0.2317,-0.2116,-0.1927,-0.1652,-0.1558,-0.147,-0.1488,-0.1508,-0.151,-0.1522,-0.1529,-0.1413,-0.1218,-0.0926,-0.0823,-0.0731,-0.0366,-0.0277,0.0655,0.0755,0.0949,0.1984,0.2437,0.2881,0.3432,0.3987,0.4469,0.4864,0.5097,0.5135,0.5148,0.5175,0.554,0.5765,0.5941,0.6165,0.6298,0.6374,0.6404,0.6437,0.6437,0.6437,0.6437,0.6437,0.6437,0.6437,0.6437,0.6437,0.6437,0.6437,0.6437,0.6437,0.6437,0.6391,0.6336,0.6357,0.628,0.6168,0.6056,0.6146,0.6283,0.6274,0.632,0.6396,0.6423,0.6437,0.6437,0.6437,0.6415,0.6391,0.635,0.6306,0.6263,0.6189,0.6102,0.601,0.595,0.5882,0.5795,0.5752,0.5738,0.5733,0.5733,0.5733,0.5733,0.5733,-1.3631,-1.3843,-1.3945,-1.3515,-1.2698,-1.2908,-1.2748,-1.2404,-1.1928,-1.0982,-0.9694,-0.931,-0.8907,-0.8734,-0.8645,-0.8653,-0.8662,-0.8658,-0.8649,-0.8407,-0.808,-0.7534,-0.7091,-0.6569,-0.589,-0.5087,-0.443,-0.3817,-0.3158,-0.252,-0.2051,-0.1777,-0.1586,-0.1487,-0.1478,-0.1523,-0.1547,-0.1538,-0.1551,-0.1564,-0.154,-0.1528,-0.1414,-0.1391,-0.1293,-0.1301,-0.0935,-0.0284,-0.0096,0.0097,0.0772,0.1718,0.2364,0.3008,0.3759,0.4466,0.5015,0.5377,0.5475,0.5472,0.5575,0.5823,0.6013,0.6119,0.6222,0.6298,0.6385,0.6423,0.6437,0.6437,0.6437,0.6437,0.6437,0.6437,0.6437,0.6437,0.6437,0.6437,0.6437,0.6437,0.6437,0.6437,0.642,0.6369,0.6276,0.6236,0.6271,0.6233,0.6272,0.6341,0.6374,0.6404,0.6423,0.6434,0.6437,0.6437,0.6437,0.6434,0.6412,0.6396,0.6358,0.632,0.6304,0.6252,0.6149,0.6007,0.5912,0.5844,0.5787,0.5735,0.5733,0.5733,0.5733,0.5733,0.5733,-1.3499,-1.3543,-1.3843,-1.4241,-1.4401,-1.3858,-1.3734,-1.3635,-1.2934,-1.1809,-1.0487,-0.9771,-0.9238,-0.8874,-0.8771,-0.8792,-0.882,-0.8816,-0.882,-0.8758,-0.8742,-0.8374,-0.8005,-0.7526,-0.7047,-0.615,-0.5472,-0.4748,-0.3801,-0.2968,-0.2293,-0.1706,-0.1501,-0.1488,-0.1448,-0.1498,-0.1525,-0.1531,-0.1558,-0.157,-0.1562,-0.1546,-0.1525,-0.1495,-0.1489,-0.15,-0.123,-0.0759,-0.058,-0.0892,0.0196,0.107,0.1455,0.252,0.3491,0.4673,0.5059,0.5466,0.5764,0.5947,0.5935,0.5961,0.6064,0.6203,0.6279,0.6355,0.6415,0.6437,0.6437,0.6437,0.6437,0.6437,0.6437,0.6437,0.6437,0.6437,0.6437,0.6437,0.6437,0.6437,0.6437,0.6437,0.6437,0.6404,0.6301,0.6282,0.6248,0.6325,0.6346,0.6388,0.642,0.6437,0.6437,0.6437,0.6437,0.6437,0.6437,0.6437,0.6431,0.6415,0.6412,0.6396,0.6382,0.6374,0.6265,0.6102,0.5996,0.5904,0.5828,0.5754,0.5738,0.5733,0.5733,0.5733,0.5733,-1.3492,-1.3499,-1.3616,-1.3909,-1.4263,-1.4445,-1.4299,-1.3929,-1.3235,-1.2097,-1.0799,-1.0124,-0.9522,-0.9054,-0.8844,-0.8893,-0.8995,-0.9003,-0.9007,-0.9015,-0.91,-0.8987,-0.8636,-0.8483,-0.8128,-0.7397,-0.662,-0.5477,-0.3907,-0.3373,-0.2458,-0.1867,-0.1484,-0.1468,-0.1481,-0.1519,-0.1549,-0.154,-0.1568,-0.1594,-0.1575,-0.1574,-0.1558,-0.1511,-0.1508,-0.1512,-0.1523,-0.0951,-0.1166,-0.1502,-0.0396,-0.0098,0.0589,0.1765,0.2939,0.4128,0.4779,0.575,0.6016,0.6092,0.6072,0.607,0.6105,0.6238,0.6352,0.6404,0.6434,0.6437,0.6437,0.6437,0.6437,0.6437,0.6437,0.6437,0.6437,0.6437,0.6437,0.6437,0.6437,0.6437,0.6437,0.6437,0.6437,0.6437,0.6355,0.6331,0.6294,0.631,0.6352,0.6361,0.6437,0.6437,0.6437,0.6437,0.6437,0.6437,0.6437,0.6437,0.6437,0.6431,0.6434,0.6437,0.6418,0.6385,0.6295,0.6198,0.6072,0.595,0.5841,0.5776,0.5749,0.5733,0.5733,0.5733,0.5733,-1.3492,-1.3492,-1.3492,-1.3616,-1.3901,-1.4501,-1.4618,-1.4388,-1.3682,-1.2614,-1.1655,-1.0799,-1.0089,-0.9418,-0.9109,-0.9011,-0.9177,-0.9185,-0.919,-0.9198,-0.9267,-0.9208,-0.9208,-0.9275,-0.8887,-0.8423,-0.7714,-0.664,-0.5228,-0.4214,-0.2913,-0.1852,-0.1451,-0.1459,-0.1482,-0.1513,-0.1525,-0.1521,-0.1547,-0.1576,-0.1571,-0.157,-0.1561,-0.1531,-0.1515,-0.1509,-0.1513,-0.1527,-0.1549,-0.1583,-0.1493,-0.1089,-0.0,0.1186,0.247,0.3773,0.5003,0.5974,0.6088,0.6037,0.6053,0.6149,0.6146,0.6241,0.6391,0.6429,0.6434,0.6437,0.6437,0.6437,0.6437,0.6437,0.6437,0.6437,0.6437,0.6437,0.6437,0.6437,0.6437,0.6437,0.6437,0.6437,0.6437,0.6437,0.6412,0.642,0.6437,0.6437,0.6437,0.6437,0.6437,0.6437,0.6437,0.6437,0.6437,0.6437,0.6437,0.6437,0.6437,0.6437,0.6437,0.6437,0.6415,0.6388,0.6304,0.6214,0.6108,0.5996,0.5885,0.5798,0.5744,0.5733,0.5733,0.5733,0.5733,-1.3492,-1.3492,-1.3492,-1.3492,-1.3616,-1.4231,-1.4816,-1.5123,-1.4028,-1.3353,-1.3033,-1.1087,-1.0277,-1.0122,-0.944,-0.9173,-0.9319,-0.9344,-0.9364,-0.9401,-0.9478,-0.9539,-0.9567,-0.9563,-0.9355,-0.8989,-0.8386,-0.754,-0.6895,-0.457,-0.2847,-0.185,-0.1538,-0.1453,-0.147,-0.1485,-0.1494,-0.1509,-0.1533,-0.1556,-0.156,-0.1545,-0.1534,-0.1516,-0.1506,-0.15,-0.1505,-0.1521,-0.1549,-0.1578,-0.1599,-0.1005,-0.0,0.1107,0.2515,0.3988,0.5451,0.5922,0.6206,0.6064,0.6081,0.62,0.6244,0.6328,0.6393,0.6437,0.6437,0.6437,0.6437,0.6437,0.6437,0.6437,0.6437,0.6437,0.6437,0.6437,0.6437,0.6437,0.6437,0.6437,0.6437,0.6437,0.6437,0.6437,0.6437,0.6437,0.6437,0.6437,0.6437,0.6437,0.6437,0.6437,0.6437,0.6437,0.6437,0.6437,0.6437,0.6437,0.6437,0.6437,0.6437,0.6434,0.6418,0.6382,0.6317,0.6236,0.6154,0.6045,0.592,0.5847,0.5795,0.5752,0.5757,0.5738,0.5735,-1.3492,-1.3492,-1.3492,-1.3492,-1.3594,-1.4362,-1.4524,-1.4092,-1.2942,-1.2083,-1.1133,-1.043,-0.991,-0.9262,-0.9128,-0.9288,-0.9352,-0.9474,-0.9531,-0.9575,-0.9592,-0.9616,-0.9624,-0.9624,-0.9525,-0.9232,-0.8733,-0.8018,-0.6665,-0.4491,-0.3291,-0.254,-0.1891,-0.1625,-0.1454,-0.147,-0.1489,-0.1506,-0.153,-0.1538,-0.1539,-0.1527,-0.1515,-0.1503,-0.1506,-0.1504,-0.1515,-0.1536,-0.1566,-0.1598,-0.1609,-0.1313,-0.1212,-0.0605,0.0604,0.473,0.5831,0.6241,0.6147,0.6124,0.61,0.6227,0.6274,0.6333,0.6399,0.6437,0.6437,0.6437,0.6437,0.6437,0.6437,0.6437,0.6437,0.6437,0.6437,0.6437,0.6437,0.6437,0.6437,0.6437,0.6437,0.6437,0.6437,0.6437,0.6437,0.6437,0.6437,0.6437,0.6437,0.6437,0.6437,0.6437,0.6437,0.6437,0.6437,0.6437,0.6437,0.6437,0.6437,0.6437,0.6437,0.6431,0.6418,0.6388,0.6342,0.6287,0.6225,0.6121,0.6034,0.5939,0.588,0.5822,0.5779,0.5776,0.5779,-1.3492,-1.3492,-1.3492,-1.3565,-1.3748,-1.3975,-1.3712,-1.3105,-1.2675,-1.2083,-1.13,-1.0376,-0.9753,-0.957,-0.9338,-0.9226,-0.9474,-0.9555,-0.9608,-0.9608,-0.9616,-0.9624,-0.9624,-0.962,-0.943,-0.9232,-0.892,-0.8393,-0.7006,-0.536,-0.4055,-0.279,-0.2151,-0.1792,-0.1538,-0.1476,-0.1489,-0.15,-0.1509,-0.1519,-0.1517,-0.151,-0.15,-0.1502,-0.1513,-0.1514,-0.1528,-0.1551,-0.157,-0.1598,-0.1605,-0.1617,-0.1515,-0.1211,0.02,0.3884,0.4986,0.5516,0.5888,0.6135,0.6165,0.6244,0.6306,0.6369,0.6404,0.6437,0.6437,0.6437,0.6437,0.6437,0.6437,0.6437,0.6437,0.6437,0.6437,0.6437,0.6437,0.6437,0.6437,0.6437,0.6437,0.6437,0.6437,0.6437,0.6437,0.6437,0.6437,0.6437,0.6437,0.6437,0.6437,0.6437,0.6437,0.6437,0.6437,0.6437,0.6437,0.6437,0.6437,0.6437,0.6437,0.6434,0.6426,0.6407,0.638,0.6323,0.6263,0.6252,0.6181,0.6075,0.5953,0.596,0.5841,0.5772,0.5871,-1.3514,-1.3543,-1.3558,-1.3637,-1.3848,-1.3258,-1.2797,-1.2539,-1.2946,-1.2959,-1.219,-1.0702,-0.9976,-0.977,-0.9309,-0.9238,-0.9433,-0.9551,-0.9555,-0.96,-0.9567,-0.9551,-0.9522,-0.9592,-0.9359,-0.919,-0.8898,-0.8445,-0.7753,-0.6312,-0.458,-0.3138,-0.2777,-0.2419,-0.1893,-0.1585,-0.1501,-0.1475,-0.1489,-0.15,-0.149,-0.1486,-0.1493,-0.1515,-0.151,-0.1501,-0.1523,-0.1537,-0.1543,-0.1575,-0.1598,-0.1616,-0.1212,-0.0908,0.0898,0.2164,0.3581,0.4814,0.5669,0.6024,0.6168,0.6257,0.6366,0.6407,0.6431,0.6437,0.6437,0.6437,0.6437,0.6437,0.6437,0.6437,0.6437,0.6437,0.6437,0.6437,0.6437,0.6437,0.6437,0.6437,0.6437,0.6437,0.6437,0.6437,0.6437,0.6437,0.6437,0.6437,0.6437,0.6437,0.6437,0.6437,0.6437,0.6437,0.6437,0.6437,0.6437,0.6437,0.6437,0.6437,0.6437,0.6437,0.6437,0.642,0.6399,0.635,0.6301,0.6304,0.6274,0.6159,0.6131,0.6007,0.599,0.5947,0.5958,-1.3645,-1.3879,-1.3598,-1.3575,-1.3541,-1.314,-1.299,-1.3027,-1.2651,-1.1787,-1.0468,-1.0048,-0.9632,-0.9306,-0.9109,-0.912,-0.9356,-0.9482,-0.9433,-0.9429,-0.9433,-0.9384,-0.9291,-0.9384,-0.9227,-0.9081,-0.88,-0.8366,-0.7672,-0.6531,-0.5652,-0.4839,-0.4032,-0.2964,-0.2344,-0.1965,-0.1692,-0.1474,-0.1497,-0.1504,-0.1491,-0.1487,-0.1493,-0.1516,-0.1519,-0.1532,-0.155,-0.156,-0.1578,-0.1604,-0.1611,-0.1212,-0.0404,-0.0,-0.0,0.0897,0.2328,0.3854,0.5391,0.6053,0.6173,0.6263,0.6358,0.641,0.6437,0.6437,0.6437,0.6437,0.6437,0.6437,0.6437,0.6437,0.6437,0.6437,0.6437,0.6437,0.6437,0.6437,0.6437,0.6437,0.6437,0.6437,0.6437,0.6437,0.6437,0.6437,0.6437,0.6437,0.6437,0.6437,0.6437,0.6437,0.6437,0.6437,0.6437,0.6437,0.6437,0.6437,0.6437,0.6437,0.6437,0.6437,0.6437,0.6434,0.6415,0.6377,0.6369,0.6393,0.6342,0.6241,0.6203,0.6211,0.6142,0.607,0.6059,-1.3689,-1.3906,-1.3641,-1.3443,-1.33,-1.3064,-1.2955,-1.2921,-1.2621,-1.1641,-1.0376,-0.9916,-0.9492,-0.9182,-0.9038,-0.8991,-0.9259,-0.9425,-0.9356,-0.9299,-0.9283,-0.9246,-0.9214,-0.9194,-0.9108,-0.8975,-0.8568,-0.8104,-0.7483,-0.7069,-0.6385,-0.5746,-0.4493,-0.3714,-0.3188,-0.2339,-0.1896,-0.1504,-0.1528,-0.153,-0.1419,-0.1512,-0.1518,-0.1537,-0.1551,-0.1564,-0.1575,-0.1583,-0.159,-0.1607,-0.1616,-0.101,-0.0,-0.0,-0.0,-0.0,0.127,0.2895,0.4837,0.5911,0.6093,0.6279,0.6374,0.6431,0.6437,0.6437,0.6437,0.6437,0.6437,0.6437,0.6437,0.6437,0.6437,0.6437,0.6437,0.6437,0.6437,0.6437,0.6437,0.6437,0.6437,0.6437,0.6437,0.6437,0.6437,0.6437,0.6437,0.6437,0.6437,0.6437,0.6437,0.6437,0.6437,0.6437,0.6437,0.6437,0.6437,0.6437,0.6437,0.6437,0.6437,0.6437,0.6437,0.6437,0.6434,0.6429,0.6431,0.6437,0.6431,0.6352,0.635,0.6246,0.6271,0.6285,0.6192,-1.366,-1.3901,-1.3722,-1.3447,-1.3155,-1.2875,-1.2728,-1.2661,-1.2654,-1.2298,-1.1373,-1.0274,-0.9926,-0.9578,-0.9354,-0.925,-0.912,-0.925,-0.9218,-0.9161,-0.9198,-0.9112,-0.9064,-0.9068,-0.8973,-0.8827,-0.8437,-0.8001,-0.7629,-0.7204,-0.6715,-0.6022,-0.5525,-0.4952,-0.3702,-0.2905,-0.2548,-0.1988,-0.1725,-0.156,-0.1555,-0.1452,-0.1555,-0.1566,-0.1576,-0.1589,-0.1598,-0.1596,-0.1592,-0.1604,-0.1516,-0.0909,-0.0,-0.0,-0.0,-0.0,-0.0,-0.0,0.4544,0.5744,0.605,0.6298,0.6385,0.6431,0.6437,0.6437,0.6437,0.6437,0.6437,0.6437,0.6437,0.6437,0.6437,0.6437,0.6437,0.6437,0.6437,0.6437,0.6437,0.6437,0.6437,0.6437,0.6437,0.6437,0.6437,0.6437,0.6437,0.6437,0.6437,0.6437,0.6437,0.6437,0.6437,0.6437,0.6437,0.6437,0.6437,0.6437,0.6437,0.6437,0.6437,0.6437,0.6437,0.6437,0.6437,0.6437,0.6437,0.6437,0.6429,0.6423,0.6415,0.6305,0.6372,0.6309,0.6331,-1.3528,-1.3653,-1.4087,-1.3874,-1.3226,-1.2662,-1.2485,-1.2553,-1.2452,-1.2236,-1.2005,-1.1385,-1.0686,-0.984,-0.9556,-0.9398,-0.9192,-0.9202,-0.9011,-0.8901,-0.9003,-0.8942,-0.8938,-0.9027,-0.883,-0.8613,-0.8378,-0.8098,-0.7709,-0.7336,-0.7101,-0.6811,-0.5922,-0.5512,-0.507,-0.4135,-0.2899,-0.2359,-0.1817,-0.1553,-0.1572,-0.1572,-0.1583,-0.1587,-0.1585,-0.1596,-0.16,-0.1586,-0.1594,-0.1607,-0.1415,-0.0909,-0.0,-0.0,-0.0,-0.0,-0.0,-0.0,0.3525,0.5403,0.6012,0.6304,0.6382,0.6434,0.6437,0.6437,0.6437,0.6437,0.6437,0.6437,0.6437,0.6437,0.6437,0.6437,0.6437,0.6437,0.6437,0.6437,0.6437,0.6437,0.6437,0.6437,0.6437,0.6437,0.6437,0.6437,0.6437,0.6437,0.6437,0.6437,0.6437,0.6437,0.6437,0.6437,0.6437,0.6437,0.6437,0.6437,0.6437,0.6437,0.6437,0.6437,0.6437,0.6437,0.6437,0.6437,0.6437,0.6437,0.6437,0.6431,0.6434,0.6426,0.641,0.6399,0.6399]},{"header":{"parameterUnit":"m.s-1","parameterCategory":1,"la1":31.0,"la2":29.5877,"lo1":-88.7671,"lo2":-86.6584,"dy":0.0162,"dx":0.0185,"nx":115,"ny":88,"refTime":"2023-06-07T06:00:00:Z","depth":0,"parameterNumber":3,"parameterNumberName":"V-component_of_WINDS"},"data":[0.0,0.0,0.0,0.0,0.0,0.0,0.0,0.0,0.0,0.0,0.0,0.0,0.0,0.0,0.0,0.0,0.0,0.0,0.0,0.0,0.0,0.0,0.0,0.0,0.0,0.0,0.0,0.0,0.0,0.0,0.0,0.0,0.0,0.0,0.0,0.0,0.0,0.0,0.0,0.0,0.0,0.0,0.0,0.0,0.0,0.0,0.0,0.0,0.0,0.0,0.0,0.0,0.0,0.0,0.0,0.0,0.0,0.0,0.0,0.0,0.0,0.0,0.0,0.0,0.0,0.0,0.0,0.0,0.0,0.0,0.0,0.0,0.0,0.0,0.0,0.0,0.0,0.0,0.0,0.0,0.0,0.0,0.0,0.0,0.0,0.0,0.0,0.0,0.0,0.0,0.0,0.0,0.0,0.0,0.0,0.0,0.0,0.0,0.0,0.0,0.0,0.0,0.0,0.0,0.0,0.0,0.0,0.0,0.0,0.0,0.0,0.0,0.0,0.0,0.0,0.0,0.0,0.0,0.0,0.0,0.0,0.0,0.0,0.0,0.0,0.0,0.0,0.0,0.0,0.0,0.0,0.0,0.0,0.0,0.0,0.0,0.0,0.0,0.0,0.0,0.0,0.0,0.0,0.0,0.0,0.0,0.0,0.0,0.0,0.0,0.0,0.0,0.0,0.0,0.0,0.0,0.0,0.0,0.0,0.0,0.0,0.0,0.0,0.0,0.0,0.0,0.0,0.0,0.0,0.0,0.0,0.0,0.0,0.0,0.0,0.0,0.0,0.0,0.0,0.0,0.0,0.0,0.0,0.0,0.0,0.0,0.0,0.0,0.0,0.0,0.0,0.0,0.0,0.0,0.0,0.0,0.0,0.0,0.0,0.0,0.0,0.0,0.0,0.0,0.0,0.0,0.0,0.0,0.0,0.0,0.0,0.0,0.0,0.0,0.0,0.0,0.0,0.0,0.0,0.0,0.0,0.0,0.0,0.0,0.0,0.0,0.0,0.0,0.0,0.0,0.0,0.0,0.0,0.0,0.0,0.0,0.0,0.0,0.0,0.0,0.0,0.0,0.0,0.0,0.0,0.0,0.0,0.0,0.0,0.0,0.0,0.0,0.0,0.0,0.0,0.0,0.0,0.0,0.0,0.0,0.0,0.0,0.0,0.0,0.0,0.0,0.0,0.0,0.0,0.0,0.0,0.0,0.0,0.0,0.0,0.0,0.0,0.0,0.0,0.0,0.0,0.0,0.0,0.0,0.0,0.0,0.0,0.0,0.0,0.0,0.0,0.0,0.0,0.0,0.0,0.0,0.0,0.0,0.0,0.0,0.0,0.0,0.0,0.0,0.0,0.0,0.0,0.0,0.0,0.0,0.0,0.0,0.0,0.0,0.0,0.0,0.0,0.0,0.0,0.0,0.0,0.0,0.0,0.0,0.0,0.0,0.0,0.0,0.0,0.0,0.0,0.0,0.0,0.0,0.0,0.0,0.0,0.0,0.0,0.0,0.0,0.0,0.0,0.0,0.0,0.0,0.0,0.0,0.0,0.0,0.0,0.0,0.0,0.0,0.0,0.0,0.0,0.0,0.0,0.0,0.0,0.0,0.0,0.0,0.0,0.0,0.0,0.0,0.0,0.0,0.0,0.0,0.0,0.0,0.0,0.0,0.0,0.0,0.0,0.0,0.0,0.0,0.0,0.0,0.0,0.0,0.0,0.0,0.0,0.0,0.0,0.0,0.0,0.0,0.0,0.0,0.0,0.0,0.0,0.0,0.0,0.0,0.0,0.0,0.0,0.0,0.0,0.0,0.0,0.0,0.0,0.0,0.0,0.0,0.0,0.0,0.0,0.0,0.0,0.0,0.0,0.0,0.0,0.0,0.0,0.0,0.0,0.0,0.0,0.0,0.0,0.0,0.0,0.0,0.0,0.0,0.0,0.0,0.0,0.0,0.0,0.0,0.0,0.0,0.0,0.0,0.0,0.0,0.0,0.0,0.0,0.0,0.0,0.0,0.0,0.0,0.0,0.0,0.0,0.0,0.0,0.0,0.0,0.0,0.0,0.0,0.0,0.0,0.0,0.0,0.0,0.0,0.0,0.0,0.0,0.0,0.0,0.0,0.0,0.0,0.0,0.0,0.0,0.0,0.0,0.0,0.0,0.0,0.0,0.0,0.0,0.0,0.0,0.0,0.0,0.0,0.0,0.0,0.0,0.0,0.0,0.0,0.0,0.0,0.0,0.0,0.0,0.0,0.0,0.0,0.0,0.0,0.0,0.0,0.0,0.0,0.0,0.0,0.0,0.0,0.0,0.0,0.0,0.0,0.0,0.0,0.0,0.0,0.0,0.0,0.0,0.0,0.0,0.0,0.0,0.0,0.0,0.0,0.0,0.0,0.0,0.0,0.0,0.0,0.0,0.0,0.0,0.0,0.0,0.0,0.0,0.0,0.0,0.0,0.0,0.0,0.0,0.0,0.0,0.0,0.0,0.0,0.0,0.0,0.0,0.0,0.0,0.0,0.0,0.0,0.0,0.0,0.0,0.0,0.0,0.0,0.0,0.0,0.0,0.0,0.0,0.0,0.0,0.0,0.0,0.0,0.0,0.0,0.0,0.0,0.0,0.0,0.0,0.0,0.0,0.0,0.0,0.0,0.0,0.0,0.0,0.0,0.0,0.0,0.0,0.0,0.0,0.0,0.0,0.0,0.0,0.0,0.0,0.0,0.0,0.0,0.0,0.0,0.0,0.0,0.0,0.0,0.0,0.0,0.0,0.0,0.0,0.0,0.0,0.0,0.0,0.0,0.0,0.0,0.0,0.0,0.0,0.0,0.0,0.0,0.0,0.0,0.0,0.0,0.0,0.0,0.0,0.0,0.0,0.0,0.0,0.0,0.0,0.0,0.0,0.0,0.0,0.0,0.0,0.0,0.0,0.0,0.0,0.0,0.0,0.0,0.0,0.0,0.0,0.0,0.0,0.0,0.0,0.0,0.0,0.0,0.0,0.0,0.0,0.0,0.0,0.0,0.0,0.0,0.0,0.0,0.0,0.0,0.0,0.0,0.0,0.0,0.0,0.0,0.0,0.0,0.0,0.0,0.0,0.0,0.0,0.0,0.0,0.0,0.0,0.0,0.0,0.0,0.0,0.0,0.0,0.0,0.0,0.0,0.0,0.0,0.0,0.0,0.0,0.0,0.0,0.0,0.0,0.0,0.0,0.0,0.0,0.0,0.0,0.0,0.0,0.0,0.0,0.0,0.0,0.0,0.0,0.0,0.0,0.0,0.0,0.0,0.0,0.0,0.0,0.0,0.0,0.0,0.0,0.0,0.0,0.0,0.0,0.0,0.0,0.0,0.0,0.0,0.0,0.0,0.0,0.0,0.0,0.0,0.0,0.0,0.0,0.0,0.0,0.0,0.0,0.0,0.0,0.0,0.0,0.0,0.0,0.0,0.0,0.0,0.0,0.0,0.0,0.0,0.0,0.0,0.0,0.0,0.0,0.0,0.0,0.0,0.0,0.0,0.0,0.0,0.0,0.0,0.0,0.0,0.0,0.0,0.0,0.0,0.0,0.0,0.0,0.0,0.0,0.0,0.0,0.0,0.0,0.0,0.0,0.0,0.0,0.0,0.0,0.0,0.0,0.0,0.0,0.0,0.0,0.0,0.0,0.0,0.0,0.0,0.0,0.0,0.0,0.0,0.0,0.0,0.0,0.0,0.0,0.0,0.0,0.0,0.0,0.0,0.0,0.0,0.0,0.0,0.0,0.0,0.0,0.0,0.0,0.0,0.0,0.0,0.0,0.0,0.0,0.0,0.0,0.0,0.0,0.0,0.0,0.0,0.0,0.0,0.0,0.0,0.0,0.0,0.0,0.0,0.0,0.0,0.0,0.0,0.0,0.0,0.0,0.0,0.0,0.0,0.0,0.0,0.0,0.0,0.0,0.0,0.0,0.0,0.0,0.0,0.0,0.0,0.0,0.0,0.0,0.0,0.0,0.0,0.0,0.0,0.0,0.0,0.0,0.0,0.0,0.0,0.0,0.0,0.0,0.0,0.0,0.0,0.0,0.0,0.0,0.0,0.0,0.0,0.0,0.0,0.0,0.0,0.0,0.0,0.0,0.0,0.0,0.0,0.0,0.0,0.0,0.0,0.0,0.0,0.0,0.0,0.0,0.0,0.0,0.0,0.0,0.0,0.0,0.0,0.0,0.0,0.0,0.0,0.0,0.0,0.0,0.0,0.0,0.0,0.0,0.0,0.0,0.0,0.0,0.0,0.0,0.0,-0.9285,0.0,0.0,0.0,0.0,0.0,0.0,0.0,0.0,0.0,0.0,0.0,0.0,0.0,0.0,0.0,0.0,0.0,0.0,0.0,0.0,0.0,0.0,0.0,0.0,0.0,0.0,0.0,0.0,0.0,0.0,0.0,0.0,0.0,0.0,0.0,0.0,0.0,0.0,0.0,0.0,0.0,0.0,0.0,0.0,0.0,0.0,0.0,0.0,0.0,0.0,0.0,0.0,0.0,0.0,0.0,0.0,0.0,0.0,0.0,0.0,0.0,0.0,0.0,0.0,0.0,0.0,0.0,0.0,0.0,0.0,0.0,0.0,0.0,0.0,0.0,0.0,0.0,0.0,0.0,0.0,0.0,0.0,0.0,0.0,0.0,0.0,0.0,0.0,0.0,0.0,0.0,0.0,0.0,0.0,0.0,0.0,0.0,0.0,0.0,0.0,0.0,0.0,0.0,0.0,0.0,0.0,0.0,0.0,0.0,0.0,-0.942,-0.9245,-0.8571,-0.8436,-0.8899,0.0,0.0,0.0,0.0,0.0,0.0,0.0,0.0,0.0,0.0,0.0,0.0,0.0,0.0,0.0,0.0,0.0,0.0,0.0,0.0,0.0,0.0,0.0,0.0,0.0,0.0,0.0,0.0,0.0,0.0,0.0,0.0,0.0,0.0,0.0,0.0,0.0,0.0,0.0,0.0,0.0,0.0,0.0,0.0,0.0,0.0,0.0,0.0,0.0,0.0,0.0,0.0,0.0,0.0,0.0,0.0,0.0,0.0,0.0,0.0,0.0,0.0,0.0,0.0,0.0,0.0,0.0,0.0,0.0,0.0,0.0,0.0,0.0,0.0,0.0,0.0,0.0,0.0,0.0,0.0,0.0,0.0,0.0,0.0,0.0,0.0,0.0,0.0,0.0,0.0,0.0,0.0,0.0,0.0,0.0,0.0,0.0,0.0,0.0,0.0,0.0,0.0,0.0,0.0,0.0,0.0,0.0,0.0,0.0,0.0,0.0,0.0,-0.8522,-0.8376,-0.8576,0.0,0.0,0.0,0.0,0.0,0.0,0.0,0.0,0.0,0.0,0.0,0.0,0.0,0.0,0.0,0.0,0.0,0.0,0.0,0.0,0.0,0.0,0.0,0.0,0.0,0.0,0.0,0.0,0.0,0.0,0.0,0.0,0.0,0.0,0.0,0.0,0.0,0.0,0.0,0.0,0.0,0.0,0.0,0.0,0.0,0.0,0.0,0.0,0.0,0.0,0.0,0.0,0.0,0.0,0.0,0.0,0.0,0.0,0.0,0.0,0.0,0.0,0.0,0.0,0.0,0.0,0.0,0.0,0.0,0.0,0.0,0.0,0.0,0.0,0.0,0.0,0.0,0.0,0.0,0.0,0.0,0.0,0.0,0.0,0.0,0.0,0.0,0.0,0.0,0.0,0.0,0.0,0.0,0.0,0.0,0.0,0.0,0.0,0.0,0.0,0.0,0.0,0.0,0.0,0.0,0.0,0.0,0.0,0.0,0.0,-0.884,-0.9426,-0.9087,0.0,-0.8888,0.0,0.0,0.0,0.0,0.0,0.0,0.0,0.0,0.0,0.0,0.0,0.0,0.0,0.0,0.0,0.0,0.0,0.0,0.0,0.0,0.0,0.0,0.0,0.0,0.0,0.0,0.0,0.0,0.0,0.0,0.0,0.0,0.0,0.0,0.0,0.0,0.0,0.0,0.0,0.0,0.0,0.0,0.0,0.0,0.0,0.0,0.0,0.0,0.0,0.0,0.0,0.0,0.0,0.0,0.0,0.0,0.0,0.0,0.0,0.0,0.0,0.0,0.0,0.0,0.0,0.0,0.0,0.0,0.0,0.0,0.0,0.0,0.0,0.0,0.0,0.0,0.0,0.0,0.0,0.0,0.0,0.0,0.0,0.0,0.0,0.0,0.0,0.0,0.0,0.0,0.0,0.0,0.0,0.0,0.0,0.0,0.0,0.0,0.0,0.0,0.0,0.0,0.0,0.0,0.0,0.0,0.0,0.0,0.0,0.0,-0.8899,-0.9168,-0.8705,-0.8565,0.0,0.0,0.0,0.0,0.0,0.0,0.0,0.0,0.0,0.0,0.0,0.0,0.0,0.0,0.0,0.0,0.0,0.0,0.0,0.0,0.0,0.0,0.0,0.0,0.0,0.0,0.0,0.0,0.0,0.0,0.0,0.0,0.0,0.0,0.0,0.0,0.0,0.0,0.0,0.0,0.0,0.0,0.0,0.0,0.0,0.0,0.0,0.0,0.0,0.0,0.0,0.0,0.0,0.0,0.0,0.0,0.0,0.0,0.0,0.0,0.0,0.0,0.0,0.0,0.0,0.0,0.0,0.0,0.0,0.0,0.0,0.0,0.0,0.0,0.0,0.0,0.0,0.0,0.0,0.0,0.0,0.0,0.0,0.0,0.0,0.0,0.0,0.0,0.0,0.0,0.0,0.0,0.0,0.0,0.0,0.0,0.0,0.0,0.0,0.0,0.0,0.0,0.0,0.0,0.0,0.0,0.0,0.0,0.0,0.0,-0.8916,-0.8603,-0.8623,-0.8281,-0.8212,-0.8601,0.0,0.0,0.0,0.0,0.0,0.0,0.0,0.0,0.0,0.0,0.0,0.0,0.0,0.0,0.0,0.0,0.0,0.0,0.0,0.0,0.0,0.0,0.0,0.0,0.0,0.0,0.0,0.0,0.0,0.0,0.0,0.0,0.0,0.0,0.0,0.0,0.0,0.0,0.0,0.0,0.0,0.0,0.0,0.0,0.0,0.0,0.0,0.0,0.0,0.0,0.0,0.0,0.0,0.0,0.0,0.0,0.0,0.0,0.0,0.0,0.0,0.0,0.0,0.0,0.0,0.0,0.0,0.0,0.0,0.0,0.0,0.0,0.0,0.0,0.0,0.0,0.0,0.0,0.0,0.0,0.0,0.0,0.0,0.0,0.0,0.0,0.0,0.0,0.0,0.0,0.0,0.0,0.0,0.0,0.0,0.0,0.0,0.0,0.0,0.0,0.0,0.0,0.0,0.0,0.0,0.0,0.0,0.0,-0.946,-0.8226,-0.7619,-0.7819,-0.798,-0.7975,0.0,0.0,0.0,0.0,0.0,0.0,0.0,0.0,0.0,0.0,0.0,0.0,0.0,0.0,0.0,0.0,0.0,0.0,0.0,0.0,0.0,0.0,0.0,0.0,0.0,0.0,0.0,0.0,0.0,0.0,0.0,0.0,0.0,0.0,0.0,0.0,0.0,0.0,0.0,0.0,0.0,0.0,0.0,0.0,0.0,0.0,0.0,0.0,0.0,0.0,0.0,0.0,0.0,0.0,0.0,0.0,0.0,0.0,0.0,0.0,0.0,0.0,0.0,0.0,0.0,0.0,0.0,0.0,0.0,0.0,0.0,0.0,0.0,0.0,0.0,0.0,0.0,0.0,0.0,0.0,0.0,0.0,0.0,0.0,0.0,0.0,0.0,0.0,0.0,0.0,0.0,0.0,0.0,0.0,0.0,0.0,0.0,0.0,0.0,0.0,0.0,0.0,0.0,0.0,0.0,0.0,0.0,0.0,0.0,-0.9562,-0.8391,-0.8226,-0.9034,-0.8153,-0.7893,0.0,0.0,0.0,0.0,0.0,0.0,0.0,0.0,0.0,0.0,0.0,0.0,0.0,0.0,0.0,0.0,0.0,0.0,0.0,0.0,0.0,0.0,0.0,0.0,0.0,0.0,0.0,0.0,0.0,0.0,0.0,0.0,0.0,0.0,0.0,0.0,0.0,0.0,0.0,0.0,0.0,0.0,0.0,0.0,0.0,0.0,0.0,0.0,0.0,0.0,0.0,0.0,0.0,0.0,0.0,0.0,0.0,0.0,0.0,0.0,0.0,0.0,0.0,0.0,0.0,0.0,0.0,0.0,0.0,0.0,0.0,0.0,0.0,0.0,0.0,0.0,0.0,0.0,0.0,0.0,0.0,0.0,0.0,0.0,0.0,0.0,0.0,0.0,0.0,0.0,0.0,0.0,0.0,0.0,0.0,0.0,0.0,0.0,0.0,0.0,0.0,0.0,0.0,0.0,0.0,0.0,0.0,0.0,0.0,-0.9602,0.0,-0.9014,-0.9383,-0.8358,-0.7899,0.0,0.0,0.0,0.0,0.0,0.0,0.0,0.0,0.0,0.0,0.0,0.0,0.0,0.0,0.0,0.0,0.0,0.0,0.0,0.0,0.0,0.0,0.0,0.0,0.0,0.0,0.0,0.0,0.0,0.0,0.0,0.0,0.0,0.0,0.0,0.0,0.0,0.0,0.0,0.0,0.0,0.0,0.0,0.0,0.0,0.0,0.0,0.0,0.0,0.0,0.0,0.0,0.0,0.0,0.0,0.0,0.0,0.0,0.0,0.0,0.0,0.0,0.0,0.0,0.0,0.0,0.0,0.0,0.0,0.0,0.0,0.0,0.0,0.0,0.0,0.0,0.0,0.0,0.0,0.0,0.0,0.0,0.0,0.0,0.0,0.0,0.0,0.0,0.0,0.0,0.0,0.0,0.0,0.0,0.0,0.0,0.0,0.0,0.0,0.0,0.0,0.0,0.0,0.0,0.0,0.0,0.0,0.0,-0.9905,-0.94,-1.0114,-0.9893,-0.8616,-0.851,-0.7999,0.0,0.0,0.0,0.0,0.0,0.0,0.0,0.0,0.0,0.0,0.0,0.0,0.0,0.0,0.0,0.0,0.0,0.0,0.0,0.0,0.0,0.0,0.0,0.0,0.0,0.0,0.0,0.0,0.0,0.0,0.0,0.0,0.0,0.0,0.0,0.0,0.0,0.0,0.0,0.0,0.0,0.0,0.0,0.0,0.0,0.0,0.0,0.0,0.0,0.0,0.0,0.0,0.0,0.0,0.0,0.0,0.0,0.0,0.0,0.0,0.0,0.0,0.0,0.0,0.0,0.0,0.0,0.0,0.0,0.0,0.0,0.0,0.0,0.0,0.0,0.0,0.0,0.0,0.0,0.0,0.0,0.0,0.0,0.0,0.0,0.0,0.0,0.0,0.0,0.0,0.0,0.0,0.0,0.0,0.0,0.0,0.0,0.0,0.0,0.0,0.0,0.0,0.0,0.0,0.0,0.0,0.0,0.0,0.0,-0.9576,-0.9883,-1.0103,-1.0079,-0.8725,-0.8172,0.0,0.0,0.0,0.0,0.0,0.0,0.0,0.0,0.0,0.0,0.0,0.0,0.0,0.0,0.0,0.0,0.0,0.0,0.0,0.0,0.0,0.0,0.0,0.0,0.0,0.0,0.0,0.0,0.0,0.0,0.0,0.0,0.0,0.0,0.0,0.0,0.0,0.0,0.0,0.0,0.0,0.0,0.0,0.0,0.0,0.0,0.0,0.0,0.0,0.0,0.0,0.0,0.0,0.0,0.0,0.0,0.0,0.0,0.0,0.0,0.0,0.0,0.0,0.0,0.0,0.0,0.0,0.0,0.0,0.0,0.0,0.0,0.0,0.0,0.0,0.0,0.0,0.0,0.0,0.0,0.0,0.0,0.0,0.0,0.0,0.0,0.0,0.0,0.0,0.0,0.0,0.0,0.0,0.0,0.0,0.0,0.0,0.0,0.0,0.0,0.0,0.0,0.0,0.0,0.0,0.0,0.0,0.0,0.0,-1.135,-1.1231,-1.117,-1.1254,-0.9439,-0.86,-0.8839,0.0,0.0,0.0,0.0,0.0,0.0,0.0,0.0,0.0,0.0,0.0,0.0,0.0,0.0,0.0,0.0,0.0,0.0,0.0,0.0,0.0,0.0,0.0,0.0,0.0,0.0,0.0,0.0,0.0,0.0,0.0,0.0,0.0,0.0,0.0,0.0,0.0,0.0,0.0,0.0,0.0,0.0,0.0,0.0,0.0,0.0,0.0,0.0,0.0,0.0,0.0,0.0,0.0,0.0,0.0,0.0,0.0,0.0,0.0,0.0,0.0,0.0,0.0,0.0,0.0,0.0,0.0,0.0,0.0,0.0,0.0,0.0,0.0,0.0,0.0,0.0,0.0,0.0,0.0,0.0,0.0,0.0,0.0,0.0,0.0,0.0,0.0,0.0,0.0,0.0,0.0,0.0,0.0,0.0,0.0,0.0,0.0,0.0,0.0,0.0,0.0,0.0,0.0,0.0,0.0,0.0,0.0,0.0,-1.4223,-1.3892,-1.3135,-1.2002,-1.0637,-0.9379,0.0,0.0,0.0,0.0,0.0,0.0,0.0,0.0,0.0,0.0,0.0,0.0,0.0,0.0,0.0,0.0,0.0,0.0,0.0,0.0,0.0,0.0,0.0,0.0,0.0,0.0,0.0,0.0,0.0,0.0,0.0,0.0,0.0,0.0,0.0,0.0,0.0,0.0,0.0,0.0,0.0,0.0,0.0,0.0,0.0,0.0,0.0,0.0,0.0,0.0,0.0,0.0,0.0,0.0,0.0,0.0,0.0,0.0,0.0,0.0,0.0,0.0,0.0,0.0,0.0,0.0,0.0,0.0,0.0,0.0,0.0,0.0,0.0,0.0,0.0,0.0,0.0,0.0,0.0,0.0,0.0,0.0,0.0,0.0,0.0,0.0,0.0,0.0,0.0,0.0,0.0,0.0,0.0,0.0,0.0,0.0,0.0,0.0,0.0,0.0,0.0,0.0,0.0,0.0,0.0,0.0,0.0,0.0,0.0,-1.5682,-1.5947,-1.5383,-1.3916,-1.2004,-1.0576,0.0,0.0,0.0,0.0,0.0,0.0,0.0,0.0,0.0,0.0,0.0,0.0,0.0,0.0,0.0,0.0,0.0,0.0,0.0,0.0,0.0,0.0,0.0,0.0,0.0,0.0,0.0,0.0,0.0,0.0,0.0,0.0,0.0,0.0,0.0,0.0,0.0,0.0,0.0,0.0,0.0,0.0,0.0,0.0,0.0,0.0,0.0,0.0,0.0,0.0,0.0,0.0,0.0,0.0,0.0,0.0,0.0,0.0,0.0,0.0,0.0,0.0,0.0,0.0,0.0,0.0,0.0,0.0,0.0,0.0,0.0,0.0,0.0,0.0,0.0,0.0,0.0,0.0,0.0,0.0,0.0,0.0,0.0,0.0,0.0,0.0,0.0,0.0,0.0,0.0,0.0,0.0,0.0,0.0,0.0,0.0,0.0,0.0,0.0,0.0,0.0,0.0,0.0,0.0,0.0,0.0,0.0,0.0,-1.6312,-1.7734,-1.8237,-1.7802,-1.6307,-1.4178,-1.2206,0.0,0.0,0.0,0.0,0.0,0.0,0.0,0.0,0.0,0.0,0.0,0.0,0.0,0.0,0.0,0.0,0.0,0.0,0.0,0.0,0.0,0.0,0.0,0.0,0.0,0.0,0.0,0.0,0.0,0.0,0.0,0.0,0.0,0.0,0.0,0.0,0.0,0.0,0.0,0.0,0.0,0.0,0.0,0.0,0.0,0.0,0.0,0.0,0.0,0.0,0.0,0.0,0.0,0.0,0.0,0.0,0.0,0.0,0.0,0.0,0.0,0.0,0.0,0.0,0.0,0.0,0.0,0.0,0.0,0.0,0.0,0.0,0.0,0.0,0.0,0.0,0.0,0.0,0.0,0.0,0.0,0.0,0.0,0.0,0.0,0.0,0.0,0.0,0.0,0.0,0.0,0.0,0.0,0.0,0.0,0.0,0.0,0.0,0.0,0.0,0.0,0.0,0.0,0.0,0.0,0.0,0.0,0.0,-1.7961,-1.9923,-2.0437,-2.0109,-1.8753,-1.6507,-1.4011,0.0,0.0,0.0,0.0,0.0,0.0,0.0,0.0,0.0,0.0,0.0,0.0,0.0,0.0,0.0,0.0,0.0,0.0,0.0,0.0,0.0,0.0,0.0,0.0,0.0,0.0,0.0,0.0,0.0,0.0,0.0,0.0,0.0,0.0,0.0,0.0,0.0,0.0,0.0,0.0,0.0,0.0,0.0,0.0,0.0,0.0,0.0,0.0,0.0,0.0,0.0,0.0,0.0,0.0,0.0,0.0,0.0,0.0,0.0,0.0,0.0,0.0,0.0,0.0,0.0,0.0,0.0,0.0,0.0,0.0,0.0,0.0,0.0,0.0,0.0,0.0,0.0,0.0,0.0,0.0,0.0,0.0,0.0,0.0,0.0,0.0,0.0,0.0,0.0,0.0,0.0,0.0,0.0,0.0,0.0,0.0,0.0,0.0,0.0,0.0,0.0,0.0,0.0,0.0,0.0,0.0,0.0,0.0,-1.925,-2.0888,-2.1244,-2.0838,-1.9821,-1.713,-1.4619,0.0,0.0,0.0,0.0,0.0,0.0,0.0,0.0,0.0,0.0,0.0,0.0,0.0,0.0,0.0,0.0,0.0,0.0,0.0,0.0,0.0,0.0,0.0,0.0,0.0,0.0,0.0,0.0,0.0,0.0,0.0,0.0,0.0,0.0,0.0,0.0,0.0,0.0,0.0,0.0,0.0,0.0,0.0,0.0,0.0,0.0,0.0,0.0,-1.6156,0.0,0.0,0.0,0.0,0.0,0.0,0.0,0.0,0.0,0.0,0.0,0.0,0.0,0.0,0.0,0.0,0.0,0.0,0.0,0.0,0.0,0.0,0.0,0.0,0.0,0.0,0.0,0.0,0.0,0.0,0.0,0.0,0.0,0.0,0.0,0.0,0.0,0.0,0.0,0.0,0.0,0.0,0.0,0.0,0.0,0.0,0.0,0.0,0.0,0.0,0.0,0.0,0.0,0.0,0.0,0.0,0.0,0.0,0.0,-2.0454,-2.197,-2.2598,-2.2176,-2.0643,-1.8923,-1.6643,0.0,0.0,0.0,0.0,0.0,0.0,0.0,0.0,0.0,0.0,0.0,0.0,0.0,0.0,0.0,0.0,0.0,0.0,0.0,0.0,0.0,0.0,0.0,0.0,0.0,0.0,0.0,0.0,0.0,0.0,0.0,0.0,0.0,0.0,0.0,0.0,0.0,0.0,0.0,0.0,0.0,0.0,0.0,0.0,0.0,0.0,0.0,0.0,0.0,0.0,0.0,0.0,0.0,0.0,0.0,0.0,0.0,0.0,0.0,0.0,0.0,0.0,0.0,0.0,0.0,0.0,0.0,0.0,0.0,0.0,0.0,0.0,0.0,0.0,0.0,0.0,0.0,0.0,0.0,0.0,0.0,0.0,0.0,0.0,0.0,0.0,0.0,0.0,0.0,0.0,0.0,0.0,0.0,0.0,0.0,0.0,0.0,0.0,0.0,0.0,0.0,0.0,0.0,0.0,0.0,0.0,0.0,-1.9934,-2.1612,-2.3157,-2.4003,-2.3457,-2.1508,-2.0938,-1.8986,-1.5355,0.0,0.0,0.0,0.0,0.0,0.0,0.0,0.0,0.0,0.0,0.0,0.0,0.0,0.0,0.0,0.0,0.0,0.0,0.0,0.0,0.0,0.0,0.0,0.0,0.0,0.0,0.0,0.0,0.0,0.0,0.0,0.0,0.0,0.0,0.0,0.0,0.0,0.0,-1.484,-1.5018,0.0,0.0,0.0,0.0,0.0,0.0,0.0,0.0,-1.762,0.0,0.0,0.0,0.0,0.0,0.0,0.0,0.0,0.0,0.0,0.0,0.0,0.0,0.0,0.0,0.0,0.0,0.0,0.0,0.0,0.0,0.0,0.0,0.0,0.0,0.0,0.0,0.0,0.0,0.0,0.0,0.0,0.0,0.0,0.0,0.0,0.0,0.0,0.0,0.0,0.0,0.0,0.0,0.0,0.0,0.0,0.0,0.0,0.0,0.0,0.0,0.0,0.0,0.0,0.0,0.0,-1.9139,-2.0986,-2.2623,-2.3956,-2.4267,-2.3806,-2.2662,-2.1633,-1.9789,-1.717,0.0,0.0,0.0,0.0,0.0,0.0,0.0,0.0,0.0,0.0,0.0,0.0,0.0,0.0,0.0,0.0,0.0,0.0,0.0,0.0,0.0,0.0,0.0,0.0,0.0,0.0,0.0,0.0,0.0,0.0,0.0,0.0,0.0,0.0,0.0,0.0,0.0,0.0,0.0,-1.4871,-1.5255,0.0,0.0,0.0,0.0,0.0,0.0,0.0,0.0,-1.8532,0.0,0.0,0.0,0.0,0.0,0.0,0.0,0.0,0.0,0.0,0.0,0.0,0.0,0.0,0.0,0.0,0.0,0.0,0.0,0.0,0.0,0.0,0.0,0.0,0.0,0.0,0.0,0.0,0.0,0.0,0.0,0.0,0.0,0.0,0.0,0.0,0.0,0.0,0.0,0.0,0.0,0.0,0.0,0.0,0.0,0.0,0.0,0.0,0.0,0.0,0.0,0.0,0.0,0.0,0.0,-1.9975,-2.1427,-2.2848,-2.432,-2.5019,-2.4451,-2.2702,-2.2235,-2.0893,0.0,0.0,0.0,0.0,0.0,0.0,0.0,0.0,0.0,0.0,0.0,0.0,0.0,0.0,0.0,0.0,0.0,0.0,0.0,0.0,0.0,0.0,0.0,0.0,0.0,0.0,0.0,0.0,0.0,0.0,0.0,0.0,0.0,0.0,0.0,0.0,0.0,0.0,0.0,0.0,-1.5875,-1.6702,-1.7061,0.0,0.0,0.0,0.0,0.0,0.0,-1.8891,-1.9502,0.0,0.0,0.0,0.0,0.0,0.0,0.0,0.0,0.0,0.0,0.0,0.0,0.0,0.0,0.0,0.0,0.0,0.0,0.0,0.0,0.0,0.0,0.0,0.0,0.0,0.0,0.0,0.0,0.0,0.0,0.0,0.0,0.0,0.0,0.0,0.0,0.0,0.0,0.0,0.0,0.0,0.0,0.0,0.0,0.0,0.0,0.0,0.0,0.0,0.0,0.0,0.0,0.0,0.0,0.0,-2.0703,-2.1929,-2.3254,-2.476,-2.5664,-2.5024,-2.2828,-2.2834,-2.1756,0.0,0.0,0.0,0.0,0.0,0.0,0.0,0.0,0.0,0.0,0.0,0.0,0.0,0.0,0.0,0.0,0.0,0.0,0.0,0.0,0.0,0.0,0.0,0.0,0.0,0.0,0.0,0.0,0.0,0.0,0.0,0.0,0.0,0.0,0.0,0.0,0.0,0.0,0.0,0.0,0.0,-1.8377,-1.9094,-1.8749,0.0,0.0,0.0,0.0,-1.8809,-1.9789,0.0,0.0,0.0,0.0,0.0,0.0,0.0,0.0,0.0,0.0,0.0,0.0,0.0,0.0,0.0,0.0,0.0,0.0,0.0,0.0,0.0,0.0,0.0,0.0,0.0,0.0,0.0,0.0,0.0,0.0,0.0,0.0,0.0,0.0,0.0,0.0,0.0,0.0,0.0,0.0,0.0,0.0,0.0,0.0,0.0,0.0,0.0,0.0,0.0,0.0,0.0,0.0,0.0,0.0,0.0,0.0,-2.1272,-2.3007,-2.4558,-2.5765,-2.579,-2.5149,-2.3955,-2.3353,-2.2055,0.0,0.0,0.0,0.0,0.0,0.0,0.0,0.0,0.0,0.0,0.0,0.0,0.0,0.0,0.0,0.0,0.0,0.0,0.0,0.0,0.0,0.0,0.0,0.0,0.0,0.0,0.0,0.0,0.0,0.0,0.0,0.0,0.0,0.0,0.0,0.0,0.0,0.0,0.0,0.0,0.0,-1.9958,-2.2614,-2.0469,-1.8986,0.0,0.0,-1.9517,-2.0811,-2.0864,0.0,0.0,0.0,0.0,0.0,0.0,0.0,0.0,0.0,0.0,0.0,0.0,0.0,0.0,0.0,0.0,0.0,0.0,0.0,0.0,0.0,0.0,0.0,0.0,0.0,0.0,0.0,0.0,0.0,0.0,0.0,0.0,0.0,0.0,0.0,0.0,0.0,0.0,0.0,0.0,0.0,0.0,0.0,0.0,0.0,0.0,0.0,0.0,0.0,0.0,0.0,0.0,0.0,0.0,0.0,-2.16,-2.2319,-2.361,-2.4788,-2.5847,-2.6121,-2.5389,-2.3634,-2.3394,-2.2378,0.0,0.0,0.0,0.0,0.0,0.0,0.0,0.0,0.0,0.0,0.0,0.0,0.0,0.0,0.0,0.0,0.0,0.0,0.0,0.0,0.0,0.0,0.0,0.0,0.0,0.0,0.0,0.0,0.0,0.0,0.0,0.0,0.0,0.0,0.0,0.0,0.0,0.0,0.0,0.0,0.0,0.0,-2.3508,-2.2017,0.0,0.0,0.0,-2.0963,-2.1097,0.0,0.0,0.0,0.0,0.0,0.0,0.0,0.0,0.0,0.0,0.0,0.0,0.0,0.0,0.0,0.0,0.0,0.0,0.0,0.0,0.0,0.0,0.0,0.0,0.0,0.0,0.0,0.0,0.0,0.0,0.0,0.0,0.0,0.0,0.0,0.0,0.0,0.0,0.0,0.0,0.0,0.0,0.0,0.0,0.0,0.0,0.0,0.0,0.0,0.0,0.0,0.0,0.0,0.0,0.0,0.0,0.0,-2.3208,-2.4364,-2.5328,-2.6072,-2.6559,-2.5776,-2.3685,-2.3687,0.0,0.0,0.0,0.0,0.0,0.0,0.0,0.0,0.0,0.0,0.0,0.0,0.0,0.0,0.0,0.0,0.0,0.0,0.0,0.0,0.0,0.0,0.0,0.0,0.0,0.0,0.0,-2.0646,0.0,0.0,0.0,0.0,0.0,0.0,0.0,0.0,0.0,0.0,0.0,0.0,0.0,0.0,-2.2015,-2.3754,-2.2988,-2.2212,0.0,0.0,-2.2307,-2.1884,-2.3047,-2.3899,0.0,0.0,0.0,0.0,0.0,0.0,0.0,0.0,0.0,0.0,0.0,0.0,0.0,0.0,0.0,0.0,0.0,0.0,0.0,0.0,0.0,0.0,0.0,0.0,0.0,0.0,0.0,0.0,0.0,0.0,0.0,0.0,0.0,0.0,0.0,0.0,0.0,0.0,0.0,0.0,0.0,0.0,0.0,0.0,0.0,0.0,0.0,0.0,0.0,0.0,0.0,0.0,0.0,0.0,0.0,-2.3567,-2.5614,-2.6774,-2.6928,-2.7012,-2.6294,-2.4683,-2.4581,-2.3795,0.0,0.0,0.0,0.0,0.0,0.0,0.0,0.0,0.0,0.0,0.0,0.0,0.0,0.0,0.0,0.0,0.0,0.0,0.0,0.0,0.0,0.0,0.0,0.0,0.0,0.0,0.0,0.0,0.0,0.0,0.0,0.0,0.0,0.0,0.0,0.0,0.0,0.0,0.0,0.0,0.0,-2.3068,-2.391,-2.3078,-2.2817,0.0,0.0,-2.3076,-2.4178,-2.476,-2.5321,-2.6023,0.0,0.0,0.0,0.0,0.0,0.0,0.0,0.0,0.0,0.0,0.0,0.0,0.0,0.0,0.0,0.0,0.0,0.0,0.0,0.0,0.0,0.0,0.0,0.0,0.0,0.0,0.0,0.0,0.0,0.0,0.0,0.0,0.0,0.0,0.0,0.0,0.0,0.0,0.0,0.0,0.0,0.0,0.0,0.0,0.0,0.0,0.0,0.0,0.0,0.0,0.0,0.0,0.0,-2.3719,-2.3736,-2.5898,-2.7009,-2.701,-2.706,-2.658,-2.5442,-2.5453,-2.4654,0.0,0.0,0.0,0.0,0.0,0.0,0.0,0.0,0.0,0.0,0.0,0.0,0.0,0.0,0.0,0.0,0.0,0.0,0.0,0.0,0.0,0.0,0.0,0.0,0.0,0.0,0.0,0.0,-2.3488,-2.3654,-2.4378,0.0,0.0,0.0,0.0,0.0,0.0,0.0,0.0,0.0,0.0,-2.4523,-2.4891,-2.4521,0.0,0.0,-2.4821,-2.4726,-2.5265,-2.554,-2.595,-2.6689,-2.7279,0.0,0.0,0.0,0.0,0.0,0.0,0.0,0.0,0.0,0.0,0.0,0.0,0.0,0.0,0.0,0.0,0.0,0.0,0.0,0.0,0.0,0.0,0.0,0.0,0.0,0.0,0.0,0.0,0.0,0.0,0.0,0.0,0.0,0.0,0.0,0.0,0.0,0.0,0.0,0.0,0.0,0.0,0.0,0.0,0.0,0.0,0.0,0.0,0.0,0.0,0.0,0.0,-2.4199,-2.4132,-2.6132,-2.7156,-2.7089,-2.7124,-2.6764,-2.5994,-2.6065,-2.55,0.0,0.0,0.0,0.0,0.0,0.0,0.0,0.0,0.0,0.0,0.0,0.0,0.0,0.0,0.0,0.0,0.0,0.0,0.0,0.0,0.0,0.0,0.0,0.0,0.0,0.0,0.0,0.0,-2.5231,-2.5433,-2.5927,0.0,0.0,0.0,0.0,0.0,0.0,0.0,0.0,0.0,0.0,-2.541,-2.5644,-2.5599,-2.5572,-2.5758,-2.5795,-2.5832,-2.5872,-2.6125,-2.6567,-2.7322,0.0,0.0,0.0,0.0,0.0,0.0,0.0,0.0,0.0,0.0,0.0,0.0,0.0,0.0,0.0,0.0,0.0,0.0,0.0,0.0,0.0,0.0,0.0,0.0,0.0,0.0,0.0,0.0,0.0,0.0,-2.3172,0.0,0.0,0.0,0.0,0.0,0.0,0.0,0.0,0.0,0.0,0.0,0.0,0.0,0.0,0.0,0.0,0.0,0.0,0.0,0.0,0.0,0.0,-2.5063,-2.4927,-2.6531,-2.7362,-2.7299,-2.7282,-2.6902,-2.6182,-2.64,-2.6191,-2.5393,0.0,0.0,0.0,0.0,0.0,0.0,0.0,0.0,0.0,0.0,0.0,0.0,0.0,0.0,0.0,0.0,0.0,0.0,0.0,0.0,0.0,0.0,0.0,0.0,0.0,0.0,-2.6289,-2.6934,-2.7278,0.0,0.0,0.0,0.0,0.0,0.0,0.0,0.0,0.0,0.0,-2.6151,-2.5616,-2.604,-2.5889,-2.5832,-2.6013,-2.6049,-2.6033,-2.6123,-2.6656,-2.7368,0.0,0.0,0.0,0.0,0.0,0.0,0.0,0.0,0.0,0.0,0.0,0.0,0.0,0.0,0.0,0.0,0.0,0.0,0.0,0.0,0.0,0.0,0.0,0.0,0.0,0.0,0.0,-2.3296,-2.3539,0.0,0.0,0.0,0.0,0.0,0.0,0.0,0.0,0.0,0.0,0.0,-2.5081,-2.5512,0.0,0.0,0.0,0.0,0.0,0.0,0.0,0.0,0.0,0.0,0.0,0.0,-2.5379,-2.5428,-2.6725,-2.7376,-2.7299,-2.7299,-2.7265,-2.7151,-2.728,-2.706,-2.6481,0.0,0.0,0.0,0.0,0.0,0.0,0.0,0.0,0.0,0.0,0.0,0.0,0.0,0.0,0.0,0.0,0.0,0.0,0.0,0.0,0.0,0.0,0.0,0.0,0.0,-2.6999,0.0,0.0,0.0,0.0,0.0,0.0,0.0,0.0,0.0,0.0,0.0,-2.8323,-2.7508,-2.7581,-2.7683,-2.7532,-2.7293,-2.722,0.0,0.0,0.0,0.0,0.0,0.0,0.0,0.0,0.0,0.0,0.0,0.0,0.0,0.0,-3.2464,-3.3653,-3.3723,-3.3812,-3.4623,0.0,0.0,0.0,0.0,0.0,0.0,0.0,0.0,0.0,0.0,0.0,0.0,0.0,0.0,-2.4153,0.0,-2.4367,0.0,0.0,0.0,0.0,0.0,0.0,0.0,0.0,-2.5447,-2.5363,-2.5395,-2.5622,-2.5725,0.0,-2.6286,-2.6081,0.0,0.0,0.0,0.0,0.0,0.0,0.0,0.0,-2.6092,-2.6216,-2.7122,-2.76,-2.7642,-2.7612,-2.7695,-2.7872,-2.7964,-2.7915,-2.7716,-2.7362,-2.7228,0.0,0.0,0.0,0.0,0.0,0.0,0.0,0.0,0.0,0.0,0.0,0.0,0.0,0.0,0.0,0.0,0.0,0.0,0.0,0.0,0.0,0.0,0.0,-2.8124,0.0,0.0,0.0,0.0,0.0,0.0,0.0,0.0,0.0,-2.8669,-2.9347,-2.9488,-2.8229,-2.8576,-2.8918,-2.8787,0.0,0.0,0.0,0.0,0.0,0.0,0.0,-2.9286,-2.9807,-3.0214,-3.0972,-3.2511,-3.3021,-3.3647,-3.5033,0.0,0.0,-3.5106,-3.4934,-3.5023,-3.5863,-3.574,-3.5492,-3.5492,-3.5082,-3.4638,0.0,0.0,0.0,0.0,0.0,0.0,0.0,0.0,-2.4957,-2.4762,0.0,-2.5425,0.0,0.0,0.0,0.0,0.0,-2.628,0.0,0.0,-2.5894,-2.6079,-2.6079,-2.6061,-2.6523,-2.7264,-2.7316,-2.7156,-2.6759,-2.64,0.0,0.0,0.0,0.0,0.0,0.0,-2.7126,-2.7304,-2.7829,-2.8191,-2.829,-2.8228,-2.8219,-2.821,-2.8474,-2.8743,-2.8975,-2.898,-2.9075,-2.9275,-2.9089,0.0,0.0,0.0,0.0,0.0,0.0,0.0,0.0,0.0,0.0,0.0,0.0,0.0,0.0,0.0,0.0,0.0,0.0,0.0,0.0,-2.8685,0.0,0.0,0.0,0.0,0.0,0.0,0.0,0.0,0.0,0.0,-3.06,-3.0361,-3.0004,-2.9271,0.0,0.0,0.0,0.0,-2.9656,-3.0402,-3.0248,-3.0159,-3.0467,-3.0812,-3.1011,-3.1066,0.0,0.0,-3.4761,-3.4458,-3.4752,-3.7085,-3.75,-3.7198,-3.609,-3.5405,-3.5636,-3.7725,-3.7551,-3.7084,-3.7047,-3.692,-3.6685,-2.401,0.0,0.0,0.0,0.0,-2.4574,-2.4854,-2.5207,-2.4905,-2.524,-2.5957,-2.5956,0.0,0.0,0.0,0.0,0.0,0.0,-2.6319,-2.6336,-2.5909,-2.5829,-2.6109,-2.6092,-2.6554,-2.7359,-2.7895,-2.8172,-2.814,-2.7992,-2.7335,-2.6193,0.0,0.0,0.0,0.0,-2.8102,-2.7724,-2.9129,-2.9347,-2.8201,-2.8693,-2.8829,-2.85,-2.8743,-2.898,-2.9188,-2.9228,-2.9293,-2.9513,-2.9548,0.0,0.0,0.0,0.0,0.0,0.0,0.0,0.0,0.0,0.0,0.0,0.0,0.0,0.0,0.0,0.0,0.0,0.0,0.0,-3.0381,-3.0402,-3.0475,0.0,0.0,0.0,0.0,0.0,0.0,0.0,0.0,0.0,-3.3025,-3.232,-3.1355,0.0,0.0,-3.0875,-3.148,-3.1136,-3.0873,-3.1125,-3.1045,0.0,0.0,-3.1518,-3.1839,-3.2579,-3.3919,-3.5231,-3.6259,-3.6739,-3.743,-3.8693,-3.8917,-3.8798,-3.8476,-3.7805,-3.7661,-3.8444,-3.8345,-3.8149,-3.8285,-3.7941,-3.7445,-2.4538,-2.4635,-2.4541,-2.4301,-2.412,-2.4388,-2.4664,-2.4873,-2.4768,-2.5015,-2.5465,-2.5707,-2.5732,-2.5583,-2.5797,0.0,0.0,0.0,-2.6774,-2.71,-2.6478,-2.637,-2.6588,-2.6277,-2.6597,-2.7434,-2.7886,-2.8143,-2.8209,-2.8258,-2.7788,-2.6935,0.0,0.0,-2.7289,-2.8582,-2.9094,-2.8766,-2.9855,-3.0007,-2.908,-2.9148,-2.9105,-2.8892,-2.9048,-2.9225,-2.9415,-2.9415,-2.9494,-2.9698,-2.9757,-2.9739,0.0,0.0,0.0,0.0,0.0,0.0,0.0,0.0,0.0,0.0,0.0,-2.8749,-2.8438,0.0,0.0,0.0,-3.0178,-3.084,-3.1195,-3.1265,0.0,0.0,0.0,0.0,0.0,0.0,0.0,-3.2688,-3.3049,-3.3506,-3.4123,-3.3654,-3.287,-3.195,-3.1923,-3.2269,-3.2988,0.0,-3.2437,-3.2585,-3.2604,-3.2692,-3.2829,-3.2873,-3.3309,-3.4623,-3.5584,-3.6697,-3.7803,-3.8211,-3.8587,-3.9258,-3.9483,-3.9483,-3.9483,-3.91,-3.8807,-3.8931,-3.8826,-3.8766,-3.8892,-3.8504,-3.8153,-2.4719,-2.4679,-2.4439,-2.3978,-2.3482,-2.4111,-2.4177,-2.3891,-2.4534,-2.4334,-2.3692,-2.5015,-2.509,-2.4226,-2.467,0.0,-2.6391,-2.7035,-2.7531,-2.7818,-2.7635,-2.758,-2.7622,-2.6909,-2.6969,-2.7762,-2.7814,-2.7779,-2.7692,-2.7905,-2.8012,-2.8055,-2.8208,-2.8198,-2.8106,-2.9296,-3.0006,-3.0173,-3.0271,-3.0368,-3.0465,-2.9558,-2.9178,-2.9293,-2.9293,-2.9415,-2.9589,-2.9626,-2.9716,-2.9905,-2.9864,-2.9847,-2.9924,0.0,0.0,0.0,0.0,0.0,0.0,0.0,0.0,0.0,0.0,0.0,0.0,0.0,0.0,0.0,-3.1472,0.0,-3.1481,-3.1697,0.0,0.0,0.0,-3.339,-3.4285,-3.4445,-3.4439,-3.4293,0.0,0.0,-3.4274,-3.4394,-3.4334,-3.3902,-3.3445,-3.3483,-3.4437,-3.411,-3.3995,-3.4317,-3.447,-3.4526,-3.4548,-3.4779,-3.5383,-3.6647,-3.7171,-3.7834,-3.8997,-3.8959,-3.8827,-3.9449,-3.9575,-3.9575,-3.9556,-3.9489,-3.9352,-3.9305,-3.9154,-3.9027,-3.8998,-3.898,-3.8943,-2.5038,-2.4851,-2.4782,-2.4601,-2.4371,-2.4395,-2.4358,-2.4248,-2.4121,-2.4384,-2.4926,-2.5077,-2.536,-2.5661,-2.5549,-2.5924,-2.6801,-2.7553,-2.8273,-2.8945,-2.9543,-2.9828,-2.984,-2.9626,-2.969,-2.9969,-3.057,-3.023,-2.9221,-3.0463,-3.016,-2.846,-2.9839,-3.0166,-2.9332,-3.0392,-3.0655,-3.0051,-3.1403,-3.1489,-3.0299,-2.9444,-2.9093,-2.9293,-2.9293,-2.9456,-2.9822,-2.9822,-2.9921,-3.0113,-3.0117,-3.0117,-3.0128,-3.0098,0.0,0.0,0.0,0.0,0.0,0.0,0.0,0.0,0.0,-3.1102,-3.0323,0.0,-3.1455,0.0,-3.2337,-3.3044,-3.3654,-3.3751,0.0,0.0,-3.4098,-3.4217,-3.4467,-3.4486,-3.4551,-3.4713,-3.4612,-3.4551,-3.4732,-3.4612,-3.4464,-3.4353,-3.4248,-3.4367,-3.4933,-3.452,-3.4261,-3.4489,-3.4698,-3.4969,-3.5661,-3.7015,-3.7776,-3.7566,-3.8613,-3.9432,-3.9165,-3.9527,-3.9908,-4.0078,-4.0098,-4.0098,-4.0098,-4.0077,-4.0017,-3.9911,-3.967,-3.9458,-3.9502,-3.9575,-3.9623,-2.5231,-2.5107,-2.5099,-2.5038,-2.4947,-2.4654,-2.4526,-2.451,-2.4211,-2.4412,-2.4949,-2.4734,-2.5087,-2.5776,-2.5167,-2.5745,-2.729,-2.7486,-2.8246,-2.9493,-2.984,-3.0216,-3.055,-2.9886,-3.0006,-3.0774,-3.0864,-3.0495,-2.9809,-3.103,-3.083,-2.9271,-3.0674,-3.1146,-3.0693,-3.1238,-3.1286,-3.0772,-3.1311,-3.1028,-2.9839,-2.9377,-2.927,-2.9551,-2.9551,-2.9716,-3.0019,-3.0034,-3.0079,-3.0185,-3.0204,-3.0204,-3.0204,-3.0204,-3.0204,0.0,0.0,0.0,0.0,0.0,0.0,0.0,0.0,0.0,0.0,0.0,-3.2702,-3.3039,-3.3654,-3.4166,-3.447,-3.4572,-3.4632,-3.4674,-3.4674,-3.4865,-3.5343,-3.504,-3.4983,-3.5382,-3.5078,-3.4965,-3.5363,-3.5078,-3.4813,-3.4831,-3.5153,-3.5342,-3.5188,-3.4886,-3.4851,-3.5305,-3.5779,-3.6103,-3.6311,-3.7793,-3.8706,-3.8037,-3.9145,-4.0119,-3.9661,-3.9986,-4.0329,-4.0329,-4.0329,-4.0329,-4.0329,-4.0329,-4.0273,-4.0195,-4.0036,-3.9892,-3.9804,-3.9867,-3.9867,-2.5351,-2.5387,-2.5332,-2.5331,-2.5262,-2.4934,-2.4768,-2.4704,-2.4526,-2.4424,-2.4389,-2.4284,-2.4614,-2.5181,-2.4377,-2.5345,-2.76,-2.7337,-2.8101,-2.9717,-2.9629,-3.0004,-3.0653,-2.9341,-2.9449,-3.0776,-3.0323,-3.0023,-2.9919,-3.0909,-3.1002,-3.0318,-3.1146,-3.161,-3.1611,-3.1611,-3.1589,-3.1501,-3.0614,-2.9861,-2.9312,-2.9293,-2.9494,-2.9872,-2.9907,-2.9984,-3.0204,-3.0204,-3.0204,-3.0204,-3.0204,-3.0204,-3.0204,-3.0204,-3.0242,0.0,-3.0925,0.0,0.0,0.0,0.0,0.0,0.0,0.0,0.0,-3.3223,-3.394,-3.4515,-3.4944,-3.5035,-3.4634,-3.4793,-3.4945,-3.4945,-3.4926,-3.5323,-3.6169,-3.5763,-3.5562,-3.6103,-3.5775,-3.5734,-3.6198,-3.5813,-3.5518,-3.5543,-3.6133,-3.6422,-3.5817,-3.5415,-3.5446,-3.6358,-3.729,-3.7542,-3.7217,-3.8191,-3.8916,-3.8266,-3.9221,-4.0215,-4.0081,-4.0196,-4.0329,-4.0329,-4.0329,-4.0329,-4.0329,-4.0329,-4.0329,-4.0291,-4.0273,-4.0195,-3.9994,-3.9973,-3.9933,-2.5421,-2.5387,-2.5397,-2.5369,-2.5379,-2.5241,-2.5063,-2.4847,-2.4704,-2.4543,-2.4407,-2.4373,-2.4395,-2.4465,-2.4884,-2.5709,-2.6888,-2.8059,-2.9156,-3.0155,-3.0784,-3.1169,-3.1323,-3.1029,-3.0717,-3.0503,-3.1618,-3.1556,-3.0346,-3.2526,-3.2562,-3.0605,-3.1908,-3.1982,-3.0806,0.0,0.0,0.0,-2.9757,-2.9326,-2.9293,-2.9293,-2.9475,-2.9891,-2.9907,0.0,-3.019,-3.0204,-3.0204,-3.0204,-3.0204,0.0,0.0,0.0,0.0,0.0,0.0,0.0,0.0,0.0,0.0,0.0,-3.4647,-3.4344,-3.377,-3.4418,-3.4846,-3.4813,-3.5035,-3.5157,-3.507,-3.5107,-3.516,-3.5141,-3.5141,-3.5234,-3.5439,-3.5935,-3.632,-3.6419,-3.6892,-3.7255,-3.7352,-3.7274,-3.7043,-3.6703,-3.7103,-3.7597,-3.7847,-3.6287,-3.5581,-3.6434,-3.7865,-3.8667,-3.8553,-3.9355,-3.968,-3.9145,-3.9565,-3.9986,-3.9527,-3.9909,-4.031,-4.0329,-4.0329,-4.0329,-4.0329,-4.0329,-4.0329,-4.0329,-4.0329,-4.0253,-4.0096,-4.0137,-4.0176,-2.628,0.0,-2.5917,-2.5843,0.0,-2.5415,-2.5293,-2.5087,-2.4893,-2.4719,-2.4561,-2.4543,-2.494,-2.5597,-2.5134,-2.602,-2.7904,-2.7849,-2.8466,-2.9641,-3.0496,-3.1072,-3.1458,-3.1029,-3.1293,-3.2035,-3.1758,-3.1418,-3.1131,-3.2344,-3.2195,-3.074,-3.1849,-3.1853,-3.0764,-3.0275,-3.0193,-3.0435,-3.015,-3.0256,-3.0791,-3.0434,-3.0393,-3.0681,0.0,0.0,0.0,0.0,0.0,0.0,0.0,0.0,0.0,0.0,0.0,-3.2057,-3.2477,-3.307,-3.3929,-3.4369,-3.477,-3.5152,-3.519,-3.5037,-3.4617,-3.4961,-3.5157,-3.5072,-3.516,-3.519,-3.5209,-3.5572,-3.5859,-3.5859,-3.6203,-3.6585,-3.7005,-3.7082,-3.7292,-3.7636,-3.7693,-3.7827,-3.8285,-3.7941,-3.7808,-3.7905,-3.8171,-3.8285,-3.7997,-3.6476,-3.5886,-3.796,-3.8973,-3.9451,-3.9183,-3.9737,-4.0024,-3.9355,-3.9737,-4.0062,-3.9718,-4.0005,-4.0329,-4.0329,-4.0329,-4.0329,-4.0329,-4.0329,-4.0329,-4.0329,-4.0329,-4.0272,-4.0215,-4.0273,-4.0291,-2.7315,-2.6135,-2.6767,-2.6624,-2.597,-2.5963,-2.5893,-2.5725,0.0,0.0,0.0,-2.5111,-2.5885,-2.7017,-2.5719,-2.66,-2.8983,-2.7763,-2.784,-2.9085,-2.9747,-3.0368,-3.0925,-3.0496,-3.1293,-3.3121,-3.1658,-3.115,-3.1668,-3.1844,-3.1548,-3.0915,-3.157,-3.1633,-3.096,-3.015,-3.0039,-3.0673,-3.0696,-3.1073,-3.1895,-3.1305,-3.114,-3.1484,-3.0796,-3.0491,-3.0643,-3.0672,-3.0685,-3.0685,-3.068,-3.1,-3.1618,-3.1733,-3.2135,-3.2938,-3.3647,-3.4121,-3.4274,-3.4871,-3.5239,-3.5242,-3.5242,-3.5226,-3.519,-3.519,-3.519,-3.519,-3.519,-3.5248,-3.5439,-3.6052,-3.6549,-3.67,-3.7311,-3.796,-3.8591,-3.8285,-3.8132,-3.8782,-3.8514,-3.8419,-3.9107,-3.8667,-3.8419,-3.9049,-3.9221,-3.9011,-3.8171,-3.7048,-3.7048,-3.9507,-4.0118,-4.0022,-3.9563,-3.9848,-4.002,-3.9557,-3.9923,-4.0307,-4.0364,-4.0364,-4.0345,-4.0382,-4.0364,-4.0382,-4.0345,-4.0363,-4.0346,-4.0328,-4.0328,-4.031,-4.031,-4.0329,-4.031,-2.8054,-2.7836,-2.7963,-2.7931,-2.7812,-2.777,-2.7652,-2.746,-2.6569,-2.6129,-2.6029,-2.6706,-2.7081,-2.7217,-2.7653,-2.8106,-2.8538,-2.9044,-2.925,0.0,-2.9442,-2.9465,-2.9384,-3.0146,-3.059,-3.0809,-3.2135,-3.2362,-3.1708,-3.2478,-3.2219,-3.0988,-3.1672,-3.1769,-3.0923,-3.0239,-3.0288,-3.1066,-3.0226,-2.9943,-3.0229,-3.0151,-3.0497,-3.1355,-3.1312,-3.1599,-3.231,-3.2426,-3.2532,-3.2513,-3.2589,-3.2656,-3.2752,-3.2791,-3.3176,-3.3993,-3.4186,-3.4552,-3.5226,-3.54,-3.5438,-3.5379,-3.5383,-3.5339,-3.519,-3.519,-3.519,-3.519,-3.519,-3.5534,-3.6203,-3.6432,-3.6814,-3.7445,-3.7636,-3.7769,-3.8018,-3.8343,-3.8649,-3.9011,-3.9603,-3.989,-3.9966,-3.9909,-3.9833,-4.0062,-3.9986,-4.0005,-3.9699,-3.9088,-3.9012,-3.9985,-4.0342,-4.0315,-4.0197,-4.0373,-4.0438,-4.041,-4.0414,-4.0534,-4.0534,-4.0534,-4.0534,-4.0549,-4.0534,-4.0534,-4.0549,-4.0564,-4.0504,-4.0425,-4.0411,-4.0377,-4.0328,-4.031,-4.0291,-2.9057,-2.8311,-2.8723,-2.8642,-2.8188,-2.8126,-2.808,-2.8012,-2.7971,-2.7577,-2.7122,-2.7466,-2.7788,-2.8078,-2.7944,-2.8369,-2.9202,-2.9075,-2.9157,-2.9512,-3.0431,-3.0801,-3.077,-3.164,-3.2235,-3.2519,-3.2096,-3.1929,-3.1862,-3.1517,-3.1167,-3.1035,-3.1972,-3.2288,-3.1891,-3.1559,-3.1626,-3.1987,-3.1545,-3.1317,-3.142,-3.1892,-3.2133,-3.2119,-3.21,-3.2316,-3.279,-3.2864,-3.2917,-3.294,-3.2987,-3.3211,-3.3674,-3.3712,-3.4079,-3.4878,-3.4955,-3.509,-3.5476,-3.5495,-3.5502,-3.5451,-3.5438,-3.5424,-3.5311,-3.5251,-3.519,-3.519,-3.519,-3.5553,-3.6432,-3.6891,-3.7483,-3.8304,-3.882,-3.9107,-3.9145,-3.9317,-3.9547,-3.9718,-4.0062,-4.031,-4.0329,-4.0329,-4.0329,-4.0329,-4.0329,-4.031,-4.0382,-4.0055,-3.9883,-4.0321,-4.0411,-4.0438,-4.05,-4.0559,-4.0588,-4.0588,-4.0588,-4.0588,-4.0588,-4.0588,-4.0588,-4.0588,-4.0588,-4.0588,-4.0588,-4.0588,-4.0559,-4.053,-4.0438,-4.0392,-4.0398,-4.0272,-4.0177,-3.0214,-2.8867,-2.9525,-2.9396,-2.8769,-2.851,-2.8526,-2.8738,-2.9116,-2.8952,-2.8483,-2.8412,-2.8699,-2.9104,-2.8412,-2.8779,-2.976,-2.9204,-2.9125,-2.9792,-3.1016,-3.1695,-3.19,-3.2691,-3.35,-3.3966,-3.2373,-3.1789,-3.1958,-3.0734,-3.0555,-3.1502,-3.2317,-3.2806,-3.2978,-3.2787,-3.2672,-3.2691,-3.2882,-3.2898,-3.2726,-3.3356,-3.3467,-3.3058,-3.3019,-3.3173,-3.3455,-3.3532,-3.3562,-3.3611,-3.3613,-3.3923,-3.458,-3.4638,-3.4928,-3.5508,-3.5574,-3.5585,-3.5585,-3.5554,-3.5554,-3.555,-3.555,-3.55,-3.5405,-3.5504,-3.5446,-3.5277,-3.5398,-3.5878,-3.6738,-3.7521,-3.8343,-3.9202,-3.989,-4.0196,-4.031,-4.0329,-4.0329,-4.0329,-4.0329,-4.0329,-4.0329,-4.0329,-4.0329,-4.0328,-4.0328,-4.0381,-4.0499,-4.0473,-4.0492,-4.0543,-4.0523,-4.053,-4.0635,-4.0655,-4.0668,-4.0688,-4.0668,-4.0681,-4.0681,-4.0668,-4.0668,-4.0681,-4.0681,-4.0681,-4.0668,-4.0688,-4.0675,-4.0648,-4.0545,-4.0422,-4.0362,-4.0177,-4.004,-3.1401,-3.0626,-3.0601,-3.0625,-3.0415,-2.9682,-2.9775,-3.0351,-2.9801,-2.9833,-3.0224,-3.0221,-3.0147,-3.0232,-3.0042,-3.0062,-3.0253,-3.0157,-3.0037,-2.9977,-3.0114,-3.0492,-3.1186,-3.2051,-3.2808,-3.3426,-3.3374,-3.2901,-3.2221,-3.1465,-3.1578,-3.2451,-3.2653,-3.3127,-3.37,-3.3146,-3.2711,-3.2726,-3.349,-3.3505,-3.2756,-3.2783,-3.3202,-3.3968,-3.3967,-3.4378,-3.5116,-3.5372,-3.5435,-3.5456,-3.5456,-3.5541,-3.5618,-3.5657,-3.5676,-3.5754,-3.5773,-3.5773,-3.5773,-3.5754,-3.5727,-3.5688,-3.5678,-3.5626,-3.5519,-3.6177,-3.6221,-3.5681,-3.5982,-3.6736,-3.7521,-3.836,-3.9144,-3.9947,-4.0214,-4.0329,-4.0329,-4.0329,-4.0329,-4.0329,-4.031,-4.0329,-4.0329,-4.0328,-4.0345,-4.0392,-4.0408,-4.0457,-4.0583,-4.0593,-4.0635,-4.072,-4.0764,-4.0745,-4.0769,-4.0818,-4.0839,-4.0849,-4.0859,-4.0849,-4.0839,-4.0849,-4.0859,-4.0818,-4.0849,-4.0839,-4.0849,-4.0859,-4.0828,-4.0769,-4.0648,-4.0485,-4.0234,-4.0021,-3.9963,-3.1118,-3.0786,-3.0796,-3.0795,-3.0742,-3.0419,-3.0467,-3.0743,-3.0423,-3.0446,-3.0706,-3.0659,-3.0579,-3.0472,-3.0414,-3.0393,-3.0356,-3.0406,-3.0336,-3.0232,-3.0696,-3.134,-3.2067,-3.292,-3.3705,-3.4318,-3.4082,-3.3644,-3.3253,-3.2961,-3.308,-3.3509,-3.3929,-3.4369,-3.4674,-3.4369,-3.4209,-3.4304,-3.4649,-3.4657,-3.44,-3.4312,-3.4251,-3.427,-3.4661,-3.5116,-3.5577,-3.5678,-3.5708,-3.5747,-3.5801,-3.5791,-3.5791,-3.5791,-3.5791,-3.5791,-3.5791,-3.5791,-3.5791,-3.5791,-3.5782,-3.5775,-3.5756,-3.597,-3.659,-3.6801,-3.6957,-3.7404,-3.7467,-3.7751,-3.8476,-3.8965,-3.9484,-4.0202,-4.0427,-4.0476,-4.0457,-4.038,-4.0342,-4.0438,-4.0372,-4.0356,-4.0441,-4.0476,-4.0508,-4.0534,-4.0515,-4.0559,-4.0694,-4.07,-4.0757,-4.0837,-4.0858,-4.0858,-4.0858,-4.0878,-4.0888,-4.0888,-4.0888,-4.0888,-4.0888,-4.0888,-4.0888,-4.0888,-4.0888,-4.0888,-4.0878,-4.0888,-4.0869,-4.0826,-4.072,-4.0534,-4.0271,-3.9945,-3.9823,-3.0984,-3.0804,-3.079,-3.0796,-3.0793,-3.08,-3.0801,-3.084,-3.1033,-3.1026,-3.0855,-3.1292,-3.1291,-3.097,-3.0916,-3.097,-3.1168,-3.1207,-3.1167,-3.1141,-3.173,-3.2436,-3.3201,-3.3767,-3.4485,-3.5028,-3.4404,-3.3872,-3.37,-3.3929,-3.4018,-3.4148,-3.4856,-3.5254,-3.5266,-3.5266,-3.533,-3.5402,-3.5397,-3.5465,-3.5513,-3.5493,-3.5207,-3.4786,-3.5241,-3.5596,-3.5718,-3.5737,-3.5766,-3.5791,-3.5791,-3.5791,-3.581,-3.6032,-3.6148,-3.6168,-3.6168,-3.6168,-3.6148,-3.6168,-3.6168,-3.6168,-3.6343,-3.677,-3.7353,-3.7599,-3.8228,-3.9237,-3.9135,-3.9078,-3.9114,-3.9485,-3.989,-4.0373,-4.0545,-4.0588,-4.0588,-4.0453,-4.0439,-4.0568,-4.0519,-4.0485,-4.0574,-4.0588,-4.0607,-4.0629,-4.0648,-4.0688,-4.0812,-4.0815,-4.0837,-4.0898,-4.0888,-4.0888,-4.0888,-4.0888,-4.0888,-4.0888,-4.0888,-4.0888,-4.0888,-4.0888,-4.0888,-4.0888,-4.0888,-4.0888,-4.0888,-4.0888,-4.0898,-4.0848,-4.0764,-4.0592,-4.027,-3.9887,-3.9675,-3.1436,-3.0852,-3.0784,-3.0786,-3.0794,-3.079,-3.0788,-3.0856,-3.1637,-3.1562,-3.1131,-3.2498,-3.2787,-3.2082,-3.1996,-3.2305,-3.2951,-3.2878,-3.2829,-3.2813,-3.2927,-3.3413,-3.4096,-3.418,-3.4603,-3.5283,-3.4557,-3.375,-3.3047,-3.3658,-3.4029,-3.4189,-3.4995,-3.5416,-3.5457,-3.5451,-3.5483,-3.5502,-3.5456,-3.55,-3.5643,-3.5618,-3.5592,-3.5581,-3.5679,-3.5718,-3.5773,-3.5791,-3.5791,-3.5791,-3.5791,-3.5791,-3.5849,-3.6556,-3.6984,-3.7042,-3.7042,-3.7042,-3.7042,-3.7061,-3.7042,-3.7139,-3.7683,-3.8033,-3.78,-3.8684,-3.9674,-4.0694,-4.0578,-4.0264,-3.9605,-4.0036,-4.0461,-4.0549,-4.0607,-4.0602,-4.0602,-4.061,-4.0582,-4.0621,-4.0751,-4.0737,-4.0621,-4.0588,-4.0655,-4.0706,-4.075,-4.0823,-4.0868,-4.0898,-4.0898,-4.0898,-4.0888,-4.0888,-4.0888,-4.0888,-4.0888,-4.0888,-4.0888,-4.0888,-4.0888,-4.0888,-4.0888,-4.0888,-4.0888,-4.0888,-4.0888,-4.0898,-4.0868,-4.0854,-4.0881,-4.0696,-4.0269,-3.9882,-3.9664,-3.2124,-3.1332,-3.0864,-3.0677,-3.0681,-3.0755,-3.079,-3.0882,-3.1719,-3.1923,-3.1874,-3.289,-3.3533,-3.3763,-3.3718,-3.3526,-3.3276,-3.3251,-3.3219,-3.3153,-3.3122,-3.3546,-3.4262,-3.4279,-3.4689,-3.531,-3.5116,-3.4814,-3.4564,-3.4834,-3.4982,-3.5027,-3.531,-3.5477,-3.5495,-3.5495,-3.5531,-3.5615,-3.5568,-3.56,-3.5757,-3.5736,-3.5735,-3.5752,-3.5754,-3.5773,-3.5791,-3.5791,-3.5791,-3.5791,-3.5791,-3.5791,-3.5888,-3.6634,-3.7372,-3.7858,-3.7916,-3.7935,-3.7935,-3.7935,-3.7916,-3.7955,-3.8207,-3.8596,-3.8907,-3.9412,-4.0033,-4.0674,-4.0888,-4.0655,-4.0518,-4.0632,-4.0773,-4.0745,-4.0761,-4.0776,-4.0796,-4.0807,-4.0776,-4.0807,-4.0865,-4.0862,-4.0776,-4.0761,-4.0807,-4.0819,-4.0858,-4.0878,-4.0878,-4.0888,-4.0888,-4.0888,-4.0888,-4.0888,-4.0888,-4.0888,-4.0888,-4.0888,-4.0888,-4.0888,-4.0888,-4.0888,-4.0888,-4.0888,-4.0888,-4.0888,-4.0888,-4.0888,-4.0878,-4.0877,-4.09,-4.0708,-4.0264,-3.9928,-3.9716,-3.2415,-3.2029,-3.1285,-3.1138,-3.1416,-3.1226,-3.1343,-3.1714,-3.2533,-3.2762,-3.2762,-3.3707,-3.4413,-3.4726,-3.4997,-3.4814,-3.4212,-3.4176,-3.414,-3.4069,-3.4037,-3.4314,-3.4756,-3.4806,-3.504,-3.5499,-3.5519,-3.5495,-3.5495,-3.5495,-3.5507,-3.5562,-3.5562,-3.5566,-3.5596,-3.5588,-3.5658,-3.5718,-3.5689,-3.5708,-3.5791,-3.5791,-3.5791,-3.5791,-3.5791,-3.5791,-3.5791,-3.5791,-3.5954,-3.6168,-3.6226,-3.6479,-3.7042,-3.7159,-3.7702,-3.8615,-3.8557,-3.8538,-3.8771,-3.8829,-3.881,-3.8848,-3.9082,-3.9431,-3.9723,-3.9917,-4.0364,-4.0771,-4.0888,-4.0888,-4.0888,-4.0888,-4.0888,-4.0837,-4.0878,-4.0888,-4.0888,-4.0888,-4.0888,-4.0878,-4.0898,-4.0878,-4.0848,-4.0878,-4.0898,-4.0888,-4.0888,-4.0888,-4.0888,-4.0888,-4.0888,-4.0888,-4.0888,-4.0888,-4.0907,-4.0907,-4.0907,-4.0907,-4.0888,-4.0888,-4.0888,-4.0888,-4.0888,-4.0888,-4.0888,-4.0888,-4.0888,-4.0888,-4.0888,-4.0898,-4.087,-4.0747,-4.0383,-4.0077,-3.9887,-3.2231,-3.2752,-3.2077,-3.2221,-3.2796,-3.2195,-3.2469,-3.3239,-3.4077,-3.396,-3.3636,-3.5048,-3.5313,-3.5031,-3.5563,-3.5895,-3.5761,-3.5716,-3.5685,-3.5651,-3.574,-3.5719,-3.5703,-3.567,-3.571,-3.5805,-3.5577,-3.5577,-3.5763,-3.5724,-3.572,-3.5755,-3.5824,-3.5834,-3.581,-3.5773,-3.5782,-3.5782,-3.5782,-3.5791,-3.5791,-3.5791,-3.5791,-3.5791,-3.5791,-3.5829,-3.5868,-3.5888,-3.6265,-3.6925,-3.7081,-3.7916,-3.8965,-3.8324,-3.8227,-3.9315,-3.8965,-3.8946,-3.9587,-3.9703,-3.9703,-3.9761,-4.0364,-4.0383,-4.0033,-4.0422,-4.081,-4.0869,-4.0888,-4.0888,-4.0888,-4.0907,-4.0898,-4.0888,-4.0907,-4.0888,-4.0888,-4.0888,-4.0888,-4.0888,-4.0888,-4.0888,-4.0888,-4.0907,-4.0888,-4.0888,-4.0888,-4.0888,-4.0888,-4.0888,-4.0888,-4.0907,-4.1043,-4.1199,-4.1063,-4.0927,-4.0927,-4.0927,-4.0907,-4.0888,-4.0888,-4.0888,-4.0888,-4.0888,-4.0888,-4.0888,-4.0888,-4.0888,-4.0888,-4.0888,-4.0866,-4.0783,-4.0496,-4.0219,-4.0082,-3.2568,-3.2779,-3.2601,-3.2679,-3.296,-3.2745,-3.2923,-3.3342,-3.4158,-3.4393,-3.4462,-3.5405,-3.575,-3.5642,-3.5888,-3.601,-3.6011,-3.6015,-3.5994,-3.5984,-3.5977,-3.5962,-3.587,-3.588,-3.6144,-3.6472,-3.5997,-3.6358,-3.7172,-3.6881,-3.6619,-3.6657,-3.6638,-3.6336,-3.5849,-3.5791,-3.5791,-3.5791,-3.5791,-3.5791,-3.5791,-3.581,-3.581,-3.5791,-3.5791,-3.6071,-3.6634,-3.6692,-3.6828,-3.7159,-3.7664,-3.8518,-3.9334,-3.9053,-3.9247,-4.0305,-4.0305,-4.0189,-4.0441,-4.0519,-4.0499,-4.0558,-4.0771,-4.0791,-4.0577,-4.0733,-4.0888,-4.0888,-4.0888,-4.0888,-4.0907,-4.0888,-4.0888,-4.0907,-4.0888,-4.0907,-4.0907,-4.0888,-4.0888,-4.0888,-4.0888,-4.0888,-4.0907,-4.0907,-4.0966,-4.0907,-4.0927,-4.0946,-4.0946,-4.1043,-4.0888,-4.0907,-4.1218,-4.1451,-4.1121,-4.1121,-4.1315,-4.1063,-4.0907,-4.0888,-4.0888,-4.0888,-4.0888,-4.0888,-4.0888,-4.0888,-4.0888,-4.0888,-4.0888,-4.0898,-4.0876,-4.0757,-4.0557,-4.0427,-4.0304,-3.3134,-3.3153,-3.3249,-3.3527,-3.3763,-3.3564,-3.3708,-3.4143,-3.4703,-3.4989,-3.5207,-3.5661,-3.5884,-3.5912,-3.5946,-3.5971,-3.5955,-3.5979,-3.5968,-3.5956,-3.5992,-3.5979,-3.6007,-3.6286,-3.6796,-3.7364,-3.7043,-3.7311,-3.8305,-3.7877,-3.7586,-3.7566,-3.7275,-3.6867,-3.6265,-3.5974,-3.5791,-3.5791,-3.5791,-3.5791,-3.5868,-3.6129,-3.6304,-3.6334,-3.6615,-3.7023,-3.7566,-3.7877,-3.8071,-3.8207,-3.8887,-3.9606,-4.0092,-3.9975,-4.0169,-4.0655,-4.0635,-4.0519,-4.083,-4.0849,-4.0888,-4.0888,-4.0888,-4.0888,-4.0888,-4.0888,-4.0888,-4.0888,-4.0888,-4.0888,-4.0907,-4.0898,-4.0898,-4.0888,-4.0878,-4.0878,-4.0888,-4.0888,-4.0898,-4.0956,-4.1179,-4.1179,-4.1005,-4.1257,-4.1179,-4.1043,-4.1179,-4.1616,-4.1665,-4.1704,-4.1548,-4.151,-4.1859,-4.1704,-4.1121,-4.1276,-4.1665,-4.1315,-4.0888,-4.0888,-4.0888,-4.0888,-4.0888,-4.0888,-4.0888,-4.0888,-4.0888,-4.0888,-4.0888,-4.0888,-4.0898,-4.0796,-4.0694,-4.07,-4.0577,-3.3884,-3.3922,-3.4091,-3.4584,-3.5139,-3.4565,-3.4757,-3.5494,-3.5627,-3.5675,-3.5813,-3.6006,-3.605,-3.6006,-3.6255,-3.6333,-3.6094,-3.6278,-3.6329,-3.6306,-3.6325,-3.6386,-3.6502,-3.7009,-3.7708,-3.8371,-3.8305,-3.8432,-3.8827,-3.8585,-3.846,-3.8402,-3.7702,-3.712,-3.6848,-3.6226,-3.5791,-3.5791,-3.5791,-3.5791,-3.5829,-3.6479,-3.6964,-3.7014,-3.7664,-3.8149,-3.8538,-3.9198,-3.9684,-3.9839,-4.0325,-4.0674,-4.0849,-4.0897,-4.081,-4.0888,-4.0189,-4.0325,-4.0733,-4.0888,-4.0888,-4.0888,-4.0888,-4.0888,-4.0888,-4.0888,-4.0888,-4.0888,-4.0898,-4.0898,-4.0898,-4.0868,-4.0877,-4.0886,-4.0867,-4.0848,-4.0877,-4.0888,-4.0898,-4.1034,-4.1568,-4.1917,-4.1199,-4.1704,-4.1587,-4.1276,-4.1587,-4.2354,-4.317,-4.3073,-4.2558,-4.249,-4.2529,-4.2073,-4.1529,-4.2034,-4.2267,-4.1257,-4.0888,-4.0888,-4.0888,-4.0888,-4.0888,-4.0888,-4.0888,-4.0888,-4.0907,-4.0898,-4.0898,-4.0888,-4.0888,-4.0876,-4.0851,-4.081,-4.0698,-3.3851,-3.4018,-3.5253,-3.557,-3.5388,-3.563,-3.568,-3.5526,-3.5599,-3.5669,-3.5869,-3.6553,-3.6785,-3.6921,-3.7487,-3.7818,-3.7726,-3.7751,-3.7815,-3.782,-3.7838,-3.7841,-3.785,-3.8057,-3.8603,-3.9256,-3.8895,-3.9069,-4.0163,-3.9643,-3.9353,-3.9315,-3.8441,-3.7683,-3.7081,-3.6246,-3.5829,-3.5791,-3.5791,-3.5791,-3.5849,-3.6071,-3.6479,-3.71,-3.743,-3.8188,-3.9256,-4.015,-4.0577,-4.0597,-4.0752,-4.0888,-4.0888,-4.0888,-4.0888,-4.083,-4.0713,-4.0616,-4.083,-4.0888,-4.0888,-4.0888,-4.0888,-4.0888,-4.0888,-4.0888,-4.0888,-4.0907,-4.0888,-4.0917,-4.0907,-4.0895,-4.0862,-4.082,-4.0862,-4.0876,-4.0867,-4.0907,-4.0888,-4.0995,-4.1694,-4.1985,-4.1966,-4.2063,-4.1937,-4.1325,-4.184,-4.2996,-4.4132,-4.3889,-4.3112,-4.3015,-4.2918,-4.2451,-4.2267,-4.2792,-4.2597,-4.1315,-4.0888,-4.0888,-4.0888,-4.0888,-4.0888,-4.0888,-4.0888,-4.0888,-4.0898,-4.0888,-4.0888,-4.0898,-4.0876,-4.0862,-4.0831,-4.0803,-4.0706,-3.4124,-3.4006,-3.5711,-3.5938,-3.5348,-3.6129,-3.6071,-3.5507,-3.5483,-3.559,-3.5888,-3.6701,-3.7151,-3.7292,-3.809,-3.85,-3.8519,-3.8519,-3.848,-3.8558,-3.8839,-3.9009,-3.9035,-3.9062,-3.9508,-4.0189,-3.9786,-4.0115,-4.076,-4.0454,-4.0246,-3.9956,-3.8984,-3.8149,-3.7644,-3.6401,-3.581,-3.5791,-3.5791,-3.5791,-3.581,-3.6556,-3.7139,-3.778,-3.8227,-3.9276,-4.0189,-4.0655,-4.0888,-4.0888,-4.0888,-4.0888,-4.0888,-4.0888,-4.0888,-4.0888,-4.0888,-4.0888,-4.0888,-4.0888,-4.0888,-4.0888,-4.0888,-4.0888,-4.0888,-4.0888,-4.0888,-4.0888,-4.0898,-4.1082,-4.1382,-4.1396,-4.1156,-4.0919,-4.1098,-4.1172,-4.0942,-4.0865,-4.0856,-4.1149,-4.1877,-4.2519,-4.2315,-4.2772,-4.2325,-4.1723,-4.252,-4.3986,-4.5318,-4.4423,-4.3791,-4.3714,-4.3753,-4.351,-4.2928,-4.3141,-4.2947,-4.1723,-4.0907,-4.0907,-4.0888,-4.0888,-4.0888,-4.0888,-4.0888,-4.0888,-4.0888,-4.0878,-4.0898,-4.0897,-4.0862,-4.0839,-4.0808,-4.0796,-4.0687,-3.4622,-3.4203,-3.5829,-3.6112,-3.5694,-3.6281,-3.6285,-3.5619,-3.5622,-3.5705,-3.6067,-3.6878,-3.7576,-3.7514,-3.8688,-3.887,-3.8889,-3.9045,-3.8967,-3.9201,-3.9583,-3.994,-3.9939,-3.993,-4.0288,-4.082,-4.1051,-4.0952,-4.0983,-4.0935,-4.0937,-4.0505,-3.931,-3.8663,-3.8216,-3.6867,-3.6032,-3.6012,-3.5868,-3.581,-3.6043,-3.7061,-3.7877,-3.8382,-3.9761,-4.0441,-4.0752,-4.0888,-4.0888,-4.0888,-4.0888,-4.0888,-4.0888,-4.0888,-4.0888,-4.0888,-4.0888,-4.0888,-4.0888,-4.0888,-4.0888,-4.0888,-4.0888,-4.0888,-4.0888,-4.0888,-4.0888,-4.0898,-4.0898,-4.1265,-4.1903,-4.211,-4.1969,-4.1577,-4.1835,-4.1732,-4.1272,-4.1052,-4.1044,-4.1139,-4.2505,-4.2973,-4.3014,-4.3402,-4.3915,-4.316,-4.3694,-4.4481,-4.556,-4.5366,-4.4812,-4.4481,-4.4598,-4.4753,-4.4074,-4.3452,-4.2947,-4.217,-4.1238,-4.0907,-4.0907,-4.0888,-4.0888,-4.0898,-4.0888,-4.0888,-4.0878,-4.0868,-4.0877,-4.0876,-4.0831,-4.082,-4.0808,-4.0803,-4.0733,-3.523,-3.5875,-3.6919,-3.7298,-3.7202,-3.737,-3.7003,-3.6288,-3.6373,-3.6439,-3.6851,-3.8228,-3.8907,-3.9069,-3.985,-4.0545,-4.0364,-4.0383,-4.0545,-4.0584,-4.0682,-4.0824,-4.0794,-4.0758,-4.089,-4.1058,-4.1034,-4.1014,-4.099,-4.0991,-4.0983,-4.0805,-3.9961,-3.9388,-3.906,-3.7583,-3.6809,-3.6712,-3.6168,-3.5829,-3.6043,-3.6925,-3.7877,-3.8576,-4.0072,-4.081,-4.0888,-4.0888,-4.0888,-4.0888,-4.0888,-4.0888,-4.0888,-4.0888,-4.0888,-4.0888,-4.0888,-4.0888,-4.0888,-4.0888,-4.0888,-4.0888,-4.0888,-4.0888,-4.0888,-4.0888,-4.0898,-4.0898,-4.0886,-4.1183,-4.1943,-4.2673,-4.2796,-4.2705,-4.2821,-4.2957,-4.2776,-4.2724,-4.2388,-4.2342,-4.3199,-4.4083,-4.3296,-4.3978,-4.4436,-4.4614,-4.4868,-4.514,-4.553,-4.5949,-4.5491,-4.4928,-4.487,-4.487,-4.4404,-4.3763,-4.3335,-4.2675,-4.1781,-4.1179,-4.116,-4.0888,-4.0907,-4.0888,-4.0888,-4.0888,-4.0868,-4.0826,-4.0823,-4.0812,-4.08,-4.0796,-4.0803,-4.079,-4.079,-3.5341,-3.635,-3.7186,-3.7566,-3.768,-3.8041,-3.7791,-3.7179,-3.7127,-3.7222,-3.7445,-3.8433,-3.9057,-3.9518,-4.0127,-4.0556,-4.0953,-4.1078,-4.1091,-4.1071,-4.1091,-4.1091,-4.111,-4.1114,-4.1106,-4.1076,-4.1052,-4.1027,-4.1014,-4.1033,-4.1038,-4.0918,-4.0168,-3.9429,-3.9052,-3.7838,-3.689,-3.6467,-3.6106,-3.5965,-3.6459,-3.7256,-3.8382,-3.9353,-4.0422,-4.0888,-4.0888,-4.0888,-4.0888,-4.0888,-4.0888,-4.0888,-4.0888,-4.0888,-4.0888,-4.0888,-4.0888,-4.0888,-4.0888,-4.0888,-4.0888,-4.0888,-4.0888,-4.0888,-4.0888,-4.0888,-4.0888,-4.0888,-4.0895,-4.1133,-4.1964,-4.3247,-4.3653,-4.346,-4.3711,-4.3885,-4.3866,-4.3569,-4.3208,-4.2898,-4.3395,-4.393,-4.4156,-4.4524,-4.4955,-4.5204,-4.5312,-4.5556,-4.5647,-4.5929,-4.5511,-4.5103,-4.4986,-4.4812,-4.4462,-4.4093,-4.384,-4.3141,-4.2306,-4.1879,-4.1704,-4.1315,-4.0907,-4.0888,-4.0888,-4.0907,-4.0877,-4.0834,-4.0788,-4.0788,-4.0808,-4.0803,-4.079,-4.079,-4.079,-3.5543,-3.6463,-3.7337,-3.7755,-3.7965,-3.8575,-3.8461,-3.7908,-3.7887,-3.7934,-3.812,-3.8166,-3.9122,-3.9509,-3.982,-4.0276,-4.076,-4.1038,-4.111,-4.111,-4.111,-4.111,-4.111,-4.1117,-4.1117,-4.1117,-4.1091,-4.1058,-4.1055,-4.1072,-4.1054,-4.0892,-4.0416,-3.9881,-3.8954,-3.8038,-3.7386,-3.6776,-3.6372,-3.62,-3.6853,-3.7719,-3.9082,-4.0402,-4.0771,-4.0888,-4.0888,-4.0888,-4.0888,-4.0888,-4.0888,-4.0888,-4.0888,-4.0888,-4.0888,-4.0888,-4.0888,-4.0888,-4.0888,-4.0888,-4.0888,-4.0888,-4.0888,-4.0907,-4.0898,-4.1112,-4.1228,-4.1313,-4.1474,-4.1981,-4.2447,-4.3827,-4.4311,-4.4098,-4.4427,-4.4717,-4.4659,-4.4098,-4.384,-4.3602,-4.4008,-4.4486,-4.4596,-4.4809,-4.5311,-4.5716,-4.5786,-4.572,-4.5684,-4.5783,-4.5345,-4.4879,-4.4635,-4.4821,-4.4559,-4.4501,-4.4248,-4.384,-4.2986,-4.2481,-4.2209,-4.1772,-4.1335,-4.0937,-4.0868,-4.0877,-4.0876,-4.0831,-4.0808,-4.0808,-4.0796,-4.0803,-4.079,-4.079,-4.079,-3.7048,-3.7258,-3.821,-3.8952,-3.9426,-3.9069,-3.8765,-3.8652,-3.8689,-3.8707,-3.8857,-3.9602,-3.9965,-4.027,-4.0417,-4.066,-4.084,-4.1101,-4.1195,-4.1182,-4.1182,-4.1208,-4.1247,-4.113,-4.111,-4.111,-4.1103,-4.1095,-4.1081,-4.1105,-4.106,-4.0974,-4.0879,-4.0603,-4.0181,-3.9719,-3.8661,-3.7741,-3.7196,-3.6832,-3.6839,-3.7848,-3.9188,-4.0635,-4.083,-4.0888,-4.0888,-4.0888,-4.0888,-4.0888,-4.0888,-4.0888,-4.0888,-4.0888,-4.0888,-4.0888,-4.0888,-4.0888,-4.0888,-4.0888,-4.0888,-4.0888,-4.0985,-4.0966,-4.1111,-4.1567,-4.1895,-4.2238,-4.2995,-4.3918,-4.4156,-4.4891,-4.5413,-4.5394,-4.5336,-4.551,-4.5471,-4.5278,-4.4891,-4.4498,-4.4846,-4.5104,-4.5073,-4.5067,-4.5351,-4.5473,-4.535,-4.4781,-4.423,-4.4719,-4.5099,-4.4594,-4.4101,-4.4441,-4.4685,-4.4773,-4.4695,-4.454,-4.386,-4.3005,-4.2646,-4.2267,-4.1829,-4.1149,-4.0848,-4.0834,-4.0812,-4.0808,-4.0815,-4.0803,-4.0803,-4.079,-4.079,-4.079,-4.079,-3.727,-3.7485,-3.8379,-3.9214,-3.9802,-3.9578,-3.9429,-3.9448,-3.9528,-3.9567,-3.9585,-3.9714,-3.9994,-4.0197,-3.9995,-4.0204,-4.0787,-4.1421,-4.1591,-4.1618,-4.1675,-4.1714,-4.1578,-4.1305,-4.113,-4.111,-4.111,-4.111,-4.111,-4.11,-4.1085,-4.1065,-4.1082,-4.0876,-4.041,-3.9901,-3.9332,-3.8567,-3.8043,-3.7648,-3.7331,-3.8501,-3.956,-4.0101,-4.0713,-4.0888,-4.0888,-4.0888,-4.0888,-4.0888,-4.0888,-4.0888,-4.0888,-4.0888,-4.0888,-4.0888,-4.0888,-4.0888,-4.0888,-4.0888,-4.0888,-4.0966,-4.1247,-4.1538,-4.1761,-4.2264,-4.2765,-4.3046,-4.3666,-4.4581,-4.4543,-4.5336,-4.5722,-4.58,-4.58,-4.58,-4.58,-4.58,-4.5529,-4.5162,-4.5007,-4.5084,-4.5336,-4.5349,-4.544,-4.5299,-4.5002,-4.4073,-4.3001,-4.3548,-4.4335,-4.4494,-4.4156,-4.476,-4.5101,-4.519,-4.519,-4.5034,-4.4568,-4.3714,-4.2966,-4.2528,-4.1789,-4.1011,-4.0854,-4.0812,-4.08,-4.0796,-4.0803,-4.079,-4.079,-4.079,-4.079,-4.079,-4.079,-3.7216,-3.7631,-3.8355,-3.9153,-3.9835,-3.9954,-3.9842,-3.9787,-3.9793,-3.97,-3.9624,-3.9261,-3.9412,-3.9811,-3.9813,-3.9981,-4.0746,-4.1466,-4.1665,-4.1732,-4.1793,-4.1948,-4.1825,-4.152,-4.111,-4.111,-4.111,-4.111,-4.1117,-4.11,-4.1111,-4.1105,-4.1101,-4.0815,-4.0277,-4.0249,-3.9509,-3.9023,-3.8766,-3.8756,-3.8935,-3.9346,-3.9818,-3.9943,-4.0567,-4.0888,-4.0888,-4.0888,-4.0888,-4.0888,-4.0888,-4.0888,-4.0888,-4.0888,-4.0888,-4.0888,-4.0888,-4.0888,-4.0888,-4.0888,-4.0888,-4.0927,-4.1519,-4.1877,-4.2419,-4.292,-4.3698,-4.3886,-4.4382,-4.491,-4.5026,-4.5413,-4.5742,-4.58,-4.58,-4.58,-4.58,-4.58,-4.58,-4.5452,-4.5104,-4.5142,-4.5471,-4.5181,-4.5156,-4.4924,-4.4608,-4.3124,-4.2286,-4.2679,-4.3361,-4.4052,-4.4444,-4.5165,-4.5556,-4.5712,-4.5692,-4.5595,-4.4974,-4.4148,-4.3391,-4.2701,-4.1865,-4.1028,-4.0851,-4.0808,-4.0796,-4.0796,-4.0803,-4.079,-4.079,-4.079,-4.079,-4.079,-4.079,-3.7422,-3.8103,-3.8537,-3.9153,-3.9832,-3.9911,-3.9494,-3.8984,-3.9085,-3.8536,-3.8404,-3.869,-3.9108,-3.9391,-4.0101,-4.0354,-4.0603,-4.0926,-4.1211,-4.1315,-4.1325,-4.1424,-4.1312,-4.1208,-4.111,-4.111,-4.111,-4.111,-4.1175,-4.1178,-4.1111,-4.11,-4.1097,-4.101,-4.0818,-4.0901,-4.0489,-3.983,-3.9666,-3.9646,-3.9649,-3.9711,-4.007,-4.0539,-4.0832,-4.0915,-4.0943,-4.0993,-4.1023,-4.0917,-4.0927,-4.0927,-4.0888,-4.0888,-4.0888,-4.0888,-4.0888,-4.0888,-4.0907,-4.0907,-4.0898,-4.0917,-4.117,-4.1479,-4.2462,-4.3589,-4.4576,-4.5485,-4.5587,-4.5529,-4.551,-4.5703,-4.58,-4.58,-4.58,-4.58,-4.58,-4.58,-4.58,-4.578,-4.5432,-4.551,-4.5722,-4.5239,-4.4794,-4.4523,-4.4001,-4.2609,-4.1977,-4.2615,-4.3053,-4.3892,-4.4749,-4.5491,-4.5708,-4.5902,-4.5941,-4.5929,-4.5367,-4.4552,-4.3641,-4.2795,-4.192,-4.1226,-4.0989,-4.0803,-4.0803,-4.0803,-4.079,-4.079,-4.079,-4.079,-4.079,-4.079,-4.079,-3.6093,-3.761,-3.8681,-3.9418,-3.987,-3.9889,-3.9721,-3.9437,-3.9444,-3.9295,-3.9127,-3.9414,-3.97,-3.9813,-4.0267,-4.0398,-4.0526,-4.0958,-4.1291,-4.1318,-4.141,-4.1548,-4.1571,-4.1305,-4.111,-4.111,-4.1169,-4.1461,-4.1467,-4.1315,-4.1115,-4.1144,-4.1121,-4.1088,-4.1166,-4.1596,-4.1576,-4.1228,-4.0848,-4.0545,-4.0409,-4.0106,-3.9953,-4.032,-4.0744,-4.0947,-4.1091,-4.1505,-4.1354,-4.1229,-4.1293,-4.1374,-4.1043,-4.0888,-4.0907,-4.0946,-4.1412,-4.1393,-4.1005,-4.0946,-4.0946,-4.1062,-4.1371,-4.2238,-4.3286,-4.415,-4.4968,-4.5684,-4.578,-4.58,-4.58,-4.58,-4.58,-4.58,-4.58,-4.58,-4.58,-4.58,-4.58,-4.58,-4.58,-4.58,-4.5684,-4.5142,-4.451,-4.3929,-4.3672,-4.2879,-4.275,-4.3479,-4.3834,-4.4118,-4.4976,-4.5815,-4.5847,-4.5917,-4.5917,-4.5898,-4.5859,-4.4948,-4.3812,-4.2869,-4.2156,-4.1408,-4.0951,-4.0822,-4.0829,-4.079,-4.079,-4.079,-4.079,-4.079,-4.079,-4.079,-4.079,-3.4995,-3.6614,-3.8147,-3.9113,-3.9693,-3.9758,-3.963,-3.9463,-3.9553,-3.954,-3.9545,-3.9661,-3.9948,-4.0272,-4.0291,-4.0329,-4.0348,-4.1027,-4.1319,-4.148,-4.1583,-4.1623,-4.148,-4.1217,-4.1071,-4.111,-4.111,-4.1526,-4.1889,-4.1827,-4.153,-4.1402,-4.1199,-4.1127,-4.1264,-4.1596,-4.1849,-4.2142,-4.1696,-4.1453,-4.1285,-4.0566,-4.0271,-4.0342,-4.0645,-4.1088,-4.1397,-4.1841,-4.1825,-4.2045,-4.1902,-4.182,-4.1457,-4.1373,-4.1335,-4.151,-4.2053,-4.2306,-4.182,-4.1538,-4.1256,-4.1438,-4.192,-4.286,-4.3821,-4.4504,-4.5065,-4.578,-4.58,-4.58,-4.58,-4.58,-4.58,-4.58,-4.58,-4.58,-4.58,-4.58,-4.58,-4.58,-4.58,-4.58,-4.5548,-4.5007,-4.4297,-4.3471,-4.3079,-4.2899,-4.3305,-4.3943,-4.4272,-4.4415,-4.5105,-4.5835,-4.5867,-4.588,-4.588,-4.5835,-4.5796,-4.5318,-4.4182,-4.3395,-4.2782,-4.2015,-4.1228,-4.119,-4.1371,-4.1081,-4.079,-4.079,-4.079,-4.079,-4.079,-4.079,-4.079,-3.4772,-3.5229,-3.6329,-3.7687,-3.9043,-3.9389,-3.9076,-3.8404,-3.8726,-3.8588,-3.8365,-3.869,-3.9662,-4.012,-4.0329,-4.0329,-4.0329,-4.0367,-4.0571,-4.0633,-4.0626,-4.0875,-4.0962,-4.1005,-4.1019,-4.1149,-4.113,-4.1584,-4.2139,-4.2105,-4.213,-4.2232,-4.1608,-4.1244,-4.1361,-4.183,-4.222,-4.2572,-4.2474,-4.2415,-4.2153,-4.1597,-4.1113,-4.1015,-4.1086,-4.1345,-4.2126,-4.2349,-4.2651,-4.3037,-4.2669,-4.2272,-4.2031,-4.1933,-4.1887,-4.2053,-4.2879,-4.3102,-4.2828,-4.2246,-4.2031,-4.2222,-4.2574,-4.3099,-4.3827,-4.5007,-4.5606,-4.5761,-4.58,-4.58,-4.58,-4.58,-4.58,-4.58,-4.58,-4.58,-4.58,-4.58,-4.58,-4.58,-4.58,-4.58,-4.5548,-4.5026,-4.4471,-4.3697,-4.3504,-4.3324,-4.3324,-4.3813,-4.433,-4.4678,-4.5291,-4.5717,-4.5814,-4.5827,-4.5841,-4.5705,-4.5589,-4.5208,-4.4537,-4.3904,-4.3415,-4.2757,-4.208,-4.199,-4.1738,-4.1235,-4.0868,-4.0829,-4.079,-4.079,-4.079,-4.079,-4.079,-3.4195,-3.4779,-3.5224,-3.6224,-3.7668,-3.8753,-3.8469,-3.7623,-3.8611,-3.9202,-3.9068,-3.9528,-3.991,-4.0253,-4.0329,-4.0329,-4.0329,-4.0329,-4.0366,-4.0398,-4.0476,-4.0564,-4.0668,-4.0928,-4.1082,-4.1488,-4.1369,-4.1824,-4.2986,-4.2437,-4.2134,-4.2026,-4.2038,-4.1983,-4.2084,-4.2611,-4.3196,-4.3235,-4.3587,-4.3782,-4.316,-4.2932,-4.2451,-4.1925,-4.1888,-4.199,-4.2382,-4.2886,-4.3275,-4.3486,-4.3275,-4.2919,-4.2539,-4.242,-4.2371,-4.252,-4.3538,-4.3885,-4.3388,-4.2698,-4.2144,-4.2078,-4.2363,-4.295,-4.3866,-4.4813,-4.5355,-4.5568,-4.58,-4.58,-4.58,-4.58,-4.58,-4.58,-4.58,-4.58,-4.58,-4.58,-4.58,-4.58,-4.58,-4.58,-4.5471,-4.5084,-4.4529,-4.3987,-4.3885,-4.3782,-4.373,-4.4007,-4.4639,-4.4968,-4.551,-4.5703,-4.58,-4.58,-4.58,-4.5645,-4.5471,-4.5181,-4.4871,-4.4562,-4.404,-4.3421,-4.2763,-4.2338,-4.1854,-4.1235,-4.0926,-4.0829,-4.079,-4.079,-4.079,-4.079,-4.079,-3.3737,-3.4262,-3.4516,-3.544,-3.6879,-3.8025,-3.81,-3.7617,-3.8712,-3.9599,-3.9994,-4.0326,-4.0597,-4.0654,-4.0673,-4.0711,-4.075,-4.0731,-4.0692,-4.0863,-4.1088,-4.1152,-4.127,-4.1475,-4.1912,-4.2194,-4.2151,-4.2563,-4.3792,-4.2738,-4.2705,-4.2854,-4.2744,-4.2591,-4.2318,-4.3606,-4.4289,-4.4055,-4.4426,-4.4777,-4.4114,-4.3743,-4.318,-4.2477,-4.2304,-4.2578,-4.2841,-4.3319,-4.3945,-4.4238,-4.4212,-4.3716,-4.3295,-4.302,-4.2961,-4.3404,-4.4012,-4.4599,-4.38,-4.3013,-4.2349,-4.2099,-4.2783,-4.3537,-4.4272,-4.4813,-4.5432,-4.5703,-4.58,-4.58,-4.58,-4.58,-4.58,-4.58,-4.58,-4.58,-4.58,-4.58,-4.58,-4.58,-4.58,-4.58,-4.5684,-4.5316,-4.4659,-4.4369,-4.462,-4.4349,-4.3929,-4.4413,-4.5355,-4.5568,-4.5703,-4.578,-4.58,-4.58,-4.58,-4.578,-4.5626,-4.551,-4.5239,-4.4968,-4.4852,-4.4485,-4.375,-4.2744,-4.2067,-4.1583,-4.1177,-4.081,-4.079,-4.079,-4.079,-4.079,-4.079,-3.3411,-3.352,-3.4262,-3.5471,-3.6794,-3.7314,-3.7734,-3.7978,-3.8655,-3.9238,-3.9834,-4.0699,-4.1244,-4.1304,-4.1266,-4.1361,-4.1495,-4.1476,-4.1495,-4.1648,-4.203,-4.2583,-4.2673,-4.2681,-4.2684,-4.3079,-4.3013,-4.3354,-4.4565,-4.3825,-4.3748,-4.3423,-4.2982,-4.2611,-4.1459,-4.2903,-4.3684,-4.384,-4.4602,-4.4953,-4.4738,-4.427,-4.3665,-4.2825,-4.263,-4.2942,-4.3361,-4.3509,-4.4273,-4.5401,-4.496,-4.4596,-4.4449,-4.4382,-4.4355,-4.4462,-4.5285,-4.5336,-4.4531,-4.3699,-4.2912,-4.2415,-4.315,-4.4136,-4.4678,-4.522,-4.5645,-4.58,-4.58,-4.58,-4.58,-4.58,-4.58,-4.58,-4.58,-4.58,-4.58,-4.58,-4.58,-4.58,-4.58,-4.58,-4.58,-4.5568,-4.4833,-4.4697,-4.5175,-4.5007,-4.4452,-4.4742,-4.5684,-4.58,-4.58,-4.58,-4.58,-4.58,-4.58,-4.58,-4.5761,-4.5645,-4.5626,-4.551,-4.5413,-4.5355,-4.4581,-4.3421,-4.2667,-4.2009,-4.1467,-4.0945,-4.0829,-4.079,-4.079,-4.079,-4.079,-3.3393,-3.3411,-3.3701,-3.4425,-3.5525,-3.6671,-3.6771,-3.6286,-3.7374,-3.8659,-3.9609,-4.023,-4.0838,-4.1264,-4.1609,-4.1839,-4.2316,-4.2354,-4.2374,-4.2412,-4.2813,-4.2737,-4.2929,-4.3139,-4.3326,-4.3615,-4.3641,-4.3819,-4.4654,-4.409,-4.329,-4.2772,-4.2494,-4.2045,-4.2415,-4.3509,-4.4367,-4.4094,-4.4914,-4.5636,-4.5109,-4.507,-4.4602,-4.3274,-4.3177,-4.3294,-4.3606,-4.3583,-4.4535,-4.5874,-4.5389,-4.5078,-4.4996,-4.4926,-4.4845,-4.4928,-4.5472,-4.5202,-4.4202,-4.3343,-4.3208,-4.3189,-4.344,-4.4388,-4.52,-4.5568,-4.578,-4.58,-4.58,-4.58,-4.58,-4.58,-4.58,-4.58,-4.58,-4.58,-4.58,-4.58,-4.58,-4.58,-4.58,-4.58,-4.58,-4.58,-4.522,-4.5045,-4.5504,-4.562,-4.52,-4.5258,-4.58,-4.58,-4.58,-4.58,-4.58,-4.58,-4.58,-4.58,-4.58,-4.5761,-4.578,-4.58,-4.5664,-4.5432,-4.4794,-4.4098,-4.3208,-4.2338,-4.1564,-4.11,-4.0906,-4.079,-4.079,-4.079,-4.079,-3.3393,-3.3393,-3.3393,-3.3701,-3.4407,-3.5892,-3.6182,-3.6064,-3.7338,-3.8535,-3.9345,-3.9953,-4.0843,-4.1623,-4.1952,-4.2393,-4.3176,-4.3214,-4.3233,-4.3271,-4.3596,-4.3788,-4.3788,-4.3634,-4.4173,-4.4364,-4.4314,-4.4428,-4.501,-4.3762,-4.3007,-4.242,-4.1557,-4.1771,-4.2435,-4.3313,-4.3684,-4.3567,-4.4309,-4.5129,-4.4992,-4.4972,-4.4699,-4.384,-4.3391,-4.3216,-4.3333,-4.3723,-4.4367,-4.5343,-4.562,-4.5358,-4.5332,-4.5297,-4.5245,-4.541,-4.478,-4.4621,-4.4014,-4.2957,-4.3073,-4.375,-4.373,-4.4407,-4.5471,-4.5742,-4.578,-4.58,-4.58,-4.58,-4.58,-4.58,-4.58,-4.58,-4.58,-4.58,-4.58,-4.58,-4.58,-4.58,-4.58,-4.58,-4.58,-4.58,-4.5626,-4.5684,-4.58,-4.58,-4.58,-4.58,-4.58,-4.58,-4.58,-4.58,-4.58,-4.58,-4.58,-4.58,-4.58,-4.58,-4.58,-4.58,-4.5645,-4.5452,-4.4852,-4.4214,-4.346,-4.2667,-4.1874,-4.1255,-4.0868,-4.079,-4.079,-4.079,-4.079,-3.3393,-3.3393,-3.3393,-3.3393,-3.3701,-3.5222,-3.6671,-3.8147,-3.8542,-3.8781,-3.8952,-4.032,-4.1219,-4.2161,-4.2579,-4.3157,-4.3845,-4.3959,-4.4055,-4.4227,-4.459,-4.4876,-4.501,-4.4991,-4.4975,-4.5189,-4.5245,-4.5057,-4.5457,-4.4414,-4.3442,-4.2381,-4.1436,-4.1596,-4.2084,-4.2533,-4.2786,-4.3216,-4.3899,-4.4563,-4.466,-4.425,-4.3938,-4.3411,-4.3118,-4.2942,-4.3099,-4.3567,-4.4367,-4.5187,-4.5792,-4.6044,-4.6152,-4.6139,-4.6064,-4.5587,-4.4393,-4.4234,-4.4156,-4.315,-4.3266,-4.4117,-4.4427,-4.5026,-4.549,-4.58,-4.58,-4.58,-4.58,-4.58,-4.58,-4.58,-4.58,-4.58,-4.58,-4.58,-4.58,-4.58,-4.58,-4.58,-4.58,-4.58,-4.58,-4.58,-4.58,-4.58,-4.58,-4.58,-4.58,-4.58,-4.58,-4.58,-4.58,-4.58,-4.58,-4.58,-4.58,-4.58,-4.58,-4.58,-4.58,-4.578,-4.5664,-4.5413,-4.4949,-4.4369,-4.3788,-4.3015,-4.2125,-4.1603,-4.1235,-4.0926,-4.0965,-4.0829,-4.081,-3.3393,-3.3393,-3.3393,-3.3393,-3.3647,-3.5105,-3.6871,-3.8456,-3.8961,-3.9216,-3.9476,-3.997,-4.0886,-4.1779,-4.2487,-4.3232,-4.3997,-4.4571,-4.4838,-4.5048,-4.5125,-4.5239,-4.5277,-4.5277,-4.5298,-4.5379,-4.5458,-4.547,-4.5274,-4.4599,-4.3019,-4.1524,-4.1246,-4.1355,-4.1635,-4.2084,-4.263,-4.3138,-4.3821,-4.4055,-4.4075,-4.3723,-4.3372,-4.304,-4.3138,-4.306,-4.3391,-4.3997,-4.4855,-4.5753,-4.6085,-4.627,-4.6273,-4.6207,-4.6129,-4.5968,-4.5054,-4.4407,-4.444,-4.3576,-4.3401,-4.4311,-4.4639,-4.5065,-4.5529,-4.58,-4.58,-4.58,-4.58,-4.58,-4.58,-4.58,-4.58,-4.58,-4.58,-4.58,-4.58,-4.58,-4.58,-4.58,-4.58,-4.58,-4.58,-4.58,-4.58,-4.58,-4.58,-4.58,-4.58,-4.58,-4.58,-4.58,-4.58,-4.58,-4.58,-4.58,-4.58,-4.58,-4.58,-4.58,-4.58,-4.5761,-4.5664,-4.5452,-4.5123,-4.4736,-4.4291,-4.3556,-4.2937,-4.226,-4.1835,-4.1429,-4.1119,-4.11,-4.1119,-3.3393,-3.3393,-3.3393,-3.3574,-3.4027,-3.503,-3.6431,-3.7792,-3.872,-3.9216,-3.9408,-3.9762,-4.0623,-4.1869,-4.2562,-4.3405,-4.4571,-4.4953,-4.5201,-4.5201,-4.5239,-4.5277,-4.5277,-4.5258,-4.5338,-4.5379,-4.5362,-4.5283,-4.4866,-4.3656,-4.211,-4.1195,-4.1037,-4.1055,-4.1456,-4.2259,-4.265,-4.2942,-4.3216,-4.3509,-4.343,-4.3235,-4.2962,-4.3021,-4.3313,-4.3352,-4.3762,-4.4406,-4.4953,-4.5773,-4.5968,-4.63,-4.6284,-4.6234,-4.5859,-4.5538,-4.4625,-4.4129,-4.3983,-4.3653,-4.3866,-4.4427,-4.4871,-4.5316,-4.5568,-4.58,-4.58,-4.58,-4.58,-4.58,-4.58,-4.58,-4.58,-4.58,-4.58,-4.58,-4.58,-4.58,-4.58,-4.58,-4.58,-4.58,-4.58,-4.58,-4.58,-4.58,-4.58,-4.58,-4.58,-4.58,-4.58,-4.58,-4.58,-4.58,-4.58,-4.58,-4.58,-4.58,-4.58,-4.58,-4.58,-4.578,-4.5722,-4.5587,-4.5394,-4.4987,-4.4562,-4.4485,-4.3982,-4.3227,-4.2357,-4.1745,-4.1564,-4.1732,-4.1777,-3.3447,-3.352,-3.3556,-3.3966,-3.4492,-3.4994,-3.5643,-3.6417,-3.7867,-3.8729,-3.8958,-3.9595,-4.077,-4.1903,-4.2428,-4.3463,-4.438,-4.4934,-4.4953,-4.5163,-4.501,-4.4934,-4.48,-4.5125,-4.4994,-4.5168,-4.5247,-4.5015,-4.397,-4.2878,-4.182,-4.1013,-4.1,-4.1022,-4.1285,-4.2724,-4.2982,-4.224,-4.263,-4.2962,-4.2669,-4.2552,-4.2767,-4.3372,-4.3235,-4.2982,-4.3626,-4.4016,-4.4192,-4.509,-4.5753,-4.628,-4.6273,-4.6221,-4.5733,-4.5046,-4.4269,-4.3956,-4.3795,-4.355,-4.3885,-4.4523,-4.5297,-4.5587,-4.5761,-4.58,-4.58,-4.58,-4.58,-4.58,-4.58,-4.58,-4.58,-4.58,-4.58,-4.58,-4.58,-4.58,-4.58,-4.58,-4.58,-4.58,-4.58,-4.58,-4.58,-4.58,-4.58,-4.58,-4.58,-4.58,-4.58,-4.58,-4.58,-4.58,-4.58,-4.58,-4.58,-4.58,-4.58,-4.58,-4.58,-4.58,-4.58,-4.5684,-4.5529,-4.5181,-4.4833,-4.4852,-4.4639,-4.3827,-4.2943,-4.2073,-4.1957,-4.2318,-4.2396,-3.3773,-3.4353,-3.4968,-3.4684,-3.3941,-3.5143,-3.5449,-3.531,-3.6482,-3.7671,-3.8727,-3.9564,-4.0511,-4.1549,-4.1952,-4.2908,-4.4017,-4.4609,-4.438,-4.436,-4.438,-4.415,-4.3711,-4.415,-4.4363,-4.4632,-4.4748,-4.4593,-4.3508,-4.243,-4.1531,-4.0886,-4.0935,-4.1104,-4.1281,-4.2865,-4.3072,-4.2201,-4.2864,-4.306,-4.2708,-4.2591,-4.2767,-4.3411,-4.3489,-4.386,-4.4387,-4.468,-4.5187,-4.5929,-4.6124,-4.6293,-4.6287,-4.6269,-4.6152,-4.5694,-4.4412,-4.405,-4.3908,-4.3763,-4.3924,-4.4562,-4.5239,-4.5606,-4.58,-4.58,-4.58,-4.58,-4.58,-4.58,-4.58,-4.58,-4.58,-4.58,-4.58,-4.58,-4.58,-4.58,-4.58,-4.58,-4.58,-4.58,-4.58,-4.58,-4.58,-4.58,-4.58,-4.58,-4.58,-4.58,-4.58,-4.58,-4.58,-4.58,-4.58,-4.58,-4.58,-4.58,-4.58,-4.58,-4.58,-4.58,-4.58,-4.578,-4.5645,-4.5374,-4.5316,-4.549,-4.5123,-4.4407,-4.4136,-4.3504,-4.3021,-4.3189,-4.3111,-3.3882,-3.4637,-3.5078,-3.4568,-3.3764,-3.4483,-3.4649,-3.4558,-3.5395,-3.6366,-3.7416,-3.8691,-3.9922,-4.0996,-4.1628,-4.2297,-4.3558,-4.4341,-4.4017,-4.3749,-4.3673,-4.3501,-4.3348,-4.3252,-4.3789,-4.4116,-4.4077,-4.3728,-4.2986,-4.2245,-4.1484,-4.0887,-4.1024,-4.1416,-4.1675,-4.2846,-4.3416,-4.306,-4.3762,-4.3821,-4.3356,-4.3294,-4.3469,-4.4016,-4.4406,-4.4777,-4.509,-4.5343,-4.5519,-4.6027,-4.628,-4.6297,-4.6289,-4.6289,-4.6055,-4.5547,-4.4767,-4.4163,-4.4169,-4.4157,-4.4053,-4.4678,-4.5355,-4.5761,-4.58,-4.58,-4.58,-4.58,-4.58,-4.58,-4.58,-4.58,-4.58,-4.58,-4.58,-4.58,-4.58,-4.58,-4.58,-4.58,-4.58,-4.58,-4.58,-4.58,-4.58,-4.58,-4.58,-4.58,-4.58,-4.58,-4.58,-4.58,-4.58,-4.58,-4.58,-4.58,-4.58,-4.58,-4.58,-4.58,-4.58,-4.58,-4.58,-4.58,-4.578,-4.5742,-4.5761,-4.58,-4.5761,-4.52,-4.5181,-4.5156,-4.462,-4.4026,-4.4059,-3.381,-3.4407,-3.4836,-3.4357,-3.3611,-3.3761,-3.3817,-3.3863,-3.4532,-3.4971,-3.5529,-3.7363,-3.8729,-4.0283,-4.1338,-4.2161,-4.2908,-4.352,-4.3367,-4.31,-4.3271,-4.287,-4.2641,-4.266,-4.3139,-4.3388,-4.3406,-4.3171,-4.2722,-4.1925,-4.1234,-4.0907,-4.1272,-4.1837,-4.2319,-4.289,-4.3206,-4.3372,-4.3911,-4.466,-4.4543,-4.4351,-4.4543,-4.4855,-4.5129,-4.55,-4.5753,-4.5714,-4.5597,-4.5929,-4.6303,-4.63,-4.6289,-4.6289,-4.5976,-4.5508,-4.5058,-4.4453,-4.4161,-4.4376,-4.4453,-4.4813,-4.5432,-4.5761,-4.58,-4.58,-4.58,-4.58,-4.58,-4.58,-4.58,-4.58,-4.58,-4.58,-4.58,-4.58,-4.58,-4.58,-4.58,-4.58,-4.58,-4.58,-4.58,-4.58,-4.58,-4.58,-4.58,-4.58,-4.58,-4.58,-4.58,-4.58,-4.58,-4.58,-4.58,-4.58,-4.58,-4.58,-4.58,-4.58,-4.58,-4.58,-4.58,-4.58,-4.58,-4.58,-4.58,-4.58,-4.5742,-4.5703,-4.5645,-4.5582,-4.5336,-4.4891,-4.5045,-3.3484,-3.3791,-3.5763,-3.5448,-3.3793,-3.4321,-3.4302,-3.3799,-3.3982,-3.4081,-3.4618,-3.5566,-3.7268,-3.9838,-3.9425,-4.0305,-4.2334,-4.2831,-4.2393,-4.1877,-4.2354,-4.2068,-4.2049,-4.2469,-4.2451,-4.2814,-4.3099,-4.2656,-4.2629,-4.1604,-4.0793,-4.0703,-4.0842,-4.1176,-4.1291,-4.1984,-4.2792,-4.3217,-4.381,-4.4484,-4.5012,-4.5012,-4.5343,-4.5441,-4.5382,-4.5714,-4.5812,-4.5421,-4.5656,-4.6007,-4.6306,-4.63,-4.6289,-4.6289,-4.6094,-4.5859,-4.5391,-4.5,-4.4783,-4.4812,-4.4912,-4.4852,-4.5413,-4.578,-4.58,-4.58,-4.58,-4.58,-4.58,-4.58,-4.58,-4.58,-4.58,-4.58,-4.58,-4.58,-4.58,-4.58,-4.58,-4.58,-4.58,-4.58,-4.58,-4.58,-4.58,-4.58,-4.58,-4.58,-4.58,-4.58,-4.58,-4.58,-4.58,-4.58,-4.58,-4.58,-4.58,-4.58,-4.58,-4.58,-4.58,-4.58,-4.58,-4.58,-4.58,-4.58,-4.58,-4.58,-4.58,-4.5761,-4.578,-4.5722,-4.5606,-4.5529,-4.5529]}]]